[[{"header":{"parameterUnit":"m.s-1","parameterCategory":1,"la1":31.0,"la2":29.5877,"lo1":-88.7671,"lo2":-86.6584,"dx":0.0162,"dy":0.0185,"nx":115,"ny":88,"refTime":"2022-11-20T18:00:00:Z","depth":0,"parameterNumber":2,"parameterNumberName":"U-component_of_WINDS"},"data":[0.0,0.0,0.0,0.0,0.0,0.0,0.0,0.0,0.0,0.0,0.0,0.0,0.0,0.0,0.0,0.0,0.0,0.0,0.0,0.0,0.0,0.0,0.0,0.0,0.0,0.0,0.0,0.0,0.0,0.0,0.0,0.0,0.0,0.0,0.0,0.0,0.0,0.0,0.0,0.0,0.0,0.0,0.0,0.0,0.0,0.0,0.0,0.0,0.0,0.0,0.0,0.0,0.0,0.0,0.0,0.0,0.0,0.0,0.0,0.0,0.0,0.0,0.0,0.0,0.0,0.0,0.0,0.0,0.0,0.0,0.0,0.0,0.0,0.0,0.0,0.0,0.0,0.0,0.0,0.0,0.0,0.0,0.0,0.0,0.0,0.0,0.0,0.0,0.0,0.0,0.0,0.0,0.0,0.0,0.0,0.0,0.0,0.0,0.0,0.0,0.0,0.0,0.0,0.0,0.0,0.0,0.0,0.0,0.0,0.0,0.0,0.0,0.0,0.0,0.0,0.0,0.0,0.0,0.0,0.0,0.0,0.0,0.0,0.0,0.0,0.0,0.0,0.0,0.0,0.0,0.0,0.0,0.0,0.0,0.0,0.0,0.0,0.0,0.0,0.0,0.0,0.0,0.0,0.0,0.0,0.0,0.0,0.0,0.0,0.0,0.0,0.0,0.0,0.0,0.0,0.0,0.0,0.0,0.0,0.0,0.0,0.0,0.0,0.0,0.0,0.0,0.0,0.0,0.0,0.0,0.0,0.0,0.0,0.0,0.0,0.0,0.0,0.0,0.0,0.0,0.0,0.0,0.0,0.0,0.0,0.0,0.0,0.0,0.0,0.0,0.0,0.0,0.0,0.0,0.0,0.0,0.0,0.0,0.0,0.0,0.0,0.0,0.0,0.0,0.0,0.0,0.0,0.0,0.0,0.0,0.0,0.0,0.0,0.0,0.0,0.0,0.0,0.0,0.0,0.0,0.0,0.0,0.0,0.0,0.0,0.0,0.0,0.0,0.0,0.0,0.0,0.0,0.0,0.0,0.0,0.0,0.0,0.0,0.0,0.0,0.0,0.0,0.0,0.0,0.0,0.0,0.0,0.0,0.0,0.0,0.0,0.0,0.0,0.0,0.0,0.0,0.0,0.0,0.0,0.0,0.0,0.0,0.0,0.0,0.0,0.0,0.0,0.0,0.0,0.0,0.0,0.0,0.0,0.0,0.0,0.0,0.0,0.0,0.0,0.0,0.0,0.0,0.0,0.0,0.0,0.0,0.0,0.0,0.0,0.0,0.0,0.0,0.0,0.0,0.0,0.0,0.0,0.0,0.0,0.0,0.0,0.0,0.0,0.0,0.0,0.0,0.0,0.0,0.0,0.0,0.0,0.0,0.0,0.0,0.0,0.0,0.0,0.0,0.0,0.0,0.0,0.0,0.0,0.0,0.0,0.0,0.0,0.0,0.0,0.0,0.0,0.0,0.0,0.0,0.0,0.0,0.0,0.0,0.0,0.0,0.0,0.0,0.0,0.0,0.0,0.0,0.0,0.0,0.0,0.0,0.0,0.0,0.0,0.0,0.0,0.0,0.0,0.0,0.0,0.0,0.0,0.0,0.0,0.0,0.0,0.0,0.0,0.0,0.0,0.0,0.0,0.0,0.0,0.0,0.0,0.0,0.0,0.0,0.0,0.0,0.0,0.0,0.0,0.0,0.0,0.0,0.0,0.0,0.0,0.0,0.0,0.0,0.0,0.0,0.0,0.0,0.0,0.0,0.0,0.0,0.0,0.0,0.0,0.0,0.0,0.0,0.0,0.0,0.0,0.0,0.0,0.0,0.0,0.0,0.0,0.0,0.0,0.0,0.0,0.0,0.0,0.0,0.0,0.0,0.0,0.0,0.0,0.0,0.0,0.0,0.0,0.0,0.0,0.0,0.0,0.0,0.0,0.0,0.0,0.0,0.0,0.0,0.0,0.0,0.0,0.0,0.0,0.0,0.0,0.0,0.0,0.0,0.0,0.0,0.0,0.0,0.0,0.0,0.0,0.0,0.0,0.0,0.0,0.0,0.0,0.0,0.0,0.0,0.0,0.0,0.0,0.0,0.0,0.0,0.0,0.0,0.0,0.0,0.0,0.0,0.0,0.0,0.0,0.0,0.0,0.0,0.0,0.0,0.0,0.0,0.0,0.0,0.0,0.0,0.0,0.0,0.0,0.0,0.0,0.0,0.0,0.0,0.0,0.0,0.0,0.0,0.0,0.0,0.0,0.0,0.0,0.0,0.0,0.0,0.0,0.0,0.0,0.0,0.0,0.0,0.0,0.0,0.0,0.0,0.0,0.0,0.0,0.0,0.0,0.0,0.0,0.0,0.0,0.0,0.0,0.0,0.0,0.0,0.0,0.0,0.0,0.0,0.0,0.0,0.0,0.0,0.0,0.0,0.0,0.0,0.0,0.0,0.0,0.0,0.0,0.0,0.0,0.0,0.0,0.0,0.0,0.0,0.0,0.0,0.0,0.0,0.0,0.0,0.0,0.0,0.0,0.0,0.0,0.0,0.0,0.0,0.0,0.0,0.0,0.0,0.0,0.0,0.0,0.0,0.0,0.0,0.0,0.0,0.0,0.0,0.0,0.0,0.0,0.0,0.0,0.0,0.0,0.0,0.0,0.0,0.0,0.0,0.0,0.0,0.0,0.0,0.0,0.0,0.0,0.0,0.0,0.0,0.0,0.0,0.0,0.0,0.0,0.0,0.0,0.0,0.0,0.0,0.0,0.0,0.0,0.0,0.0,0.0,0.0,0.0,0.0,0.0,0.0,0.0,0.0,0.0,0.0,0.0,0.0,0.0,0.0,0.0,0.0,0.0,0.0,0.0,0.0,0.0,0.0,0.0,0.0,0.0,0.0,0.0,0.0,0.0,0.0,0.0,0.0,0.0,0.0,0.0,0.0,0.0,0.0,0.0,0.0,0.0,0.0,0.0,0.0,0.0,0.0,0.0,0.0,0.0,0.0,0.0,0.0,0.0,0.0,0.0,0.0,0.0,0.0,0.0,0.0,0.0,0.0,0.0,0.0,0.0,0.0,0.0,0.0,0.0,0.0,0.0,0.0,0.0,0.0,0.0,0.0,0.0,0.0,0.0,0.0,0.0,0.0,0.0,0.0,0.0,0.0,0.0,0.0,0.0,0.0,0.0,0.0,0.0,0.0,0.0,0.0,0.0,0.0,0.0,0.0,0.0,0.0,0.0,0.0,0.0,0.0,0.0,0.0,0.0,0.0,0.0,0.0,0.0,0.0,0.0,0.0,0.0,0.0,0.0,0.0,0.0,0.0,0.0,0.0,0.0,0.0,0.0,0.0,0.0,0.0,0.0,0.0,0.0,0.0,0.0,0.0,0.0,0.0,0.0,0.0,0.0,0.0,0.0,0.0,0.0,0.0,0.0,0.0,0.0,0.0,0.0,0.0,0.0,0.0,0.0,0.0,0.0,0.0,0.0,0.0,0.0,0.0,0.0,0.0,0.0,0.0,0.0,0.0,0.0,0.0,0.0,0.0,0.0,0.0,0.0,0.0,0.0,0.0,0.0,0.0,0.0,0.0,0.0,0.0,0.0,0.0,0.0,0.0,0.0,0.0,0.0,0.0,0.0,0.0,0.0,0.0,0.0,0.0,0.0,0.0,0.0,0.0,0.0,0.0,0.0,0.0,0.0,0.0,0.0,0.0,0.0,0.0,0.0,0.0,0.0,0.0,0.0,0.0,0.0,0.0,0.0,0.0,0.0,0.0,0.0,0.0,0.0,0.0,0.0,0.0,0.0,0.0,0.0,0.0,0.0,0.0,0.0,0.0,0.0,0.0,0.0,0.0,0.0,0.0,0.0,0.0,0.0,0.0,0.0,0.0,0.0,0.0,0.0,0.0,0.0,0.0,0.0,0.0,0.0,0.0,0.0,0.0,0.0,0.0,0.0,0.0,0.0,0.0,0.0,0.0,0.0,0.0,0.0,0.0,0.0,0.0,0.0,0.0,0.0,0.0,0.0,0.0,0.0,0.0,0.0,0.0,0.0,0.0,0.0,0.0,0.0,0.0,0.0,0.0,0.0,0.0,0.0,0.0,0.0,0.0,0.0,0.0,0.0,0.0,0.0,0.0,0.0,0.0,0.0,0.0,0.0,0.0,0.0,0.0,0.0,0.0,0.0,0.0,0.0,0.0,0.0,0.0,0.0,0.0,0.0,0.0,0.0,0.0,0.0,0.0,0.0,0.0,0.0,0.0,0.0,2.6794,0.0,0.0,0.0,2.6765,0.0,0.0,0.0,0.0,0.0,0.0,0.0,0.0,0.0,0.0,0.0,0.0,0.0,0.0,0.0,0.0,0.0,0.0,0.0,0.0,0.0,0.0,0.0,0.0,0.0,0.0,0.0,0.0,0.0,0.0,0.0,0.0,0.0,0.0,0.0,0.0,0.0,0.0,0.0,0.0,0.0,0.0,0.0,0.0,0.0,0.0,0.0,0.0,0.0,0.0,0.0,0.0,0.0,0.0,0.0,0.0,0.0,0.0,0.0,0.0,0.0,0.0,0.0,0.0,0.0,0.0,0.0,0.0,0.0,0.0,0.0,0.0,0.0,0.0,0.0,0.0,0.0,0.0,0.0,0.0,0.0,0.0,0.0,0.0,0.0,0.0,0.0,0.0,0.0,0.0,0.0,0.0,0.0,0.0,0.0,0.0,0.0,0.0,0.0,0.0,0.0,0.0,0.0,0.0,0.0,0.0,0.0,0.0,0.0,0.0,2.6899,2.6899,2.6846,2.6794,2.6765,0.0,0.0,0.0,0.0,0.0,0.0,0.0,0.0,0.0,0.0,0.0,0.0,0.0,0.0,0.0,0.0,0.0,0.0,0.0,0.0,0.0,0.0,0.0,0.0,0.0,0.0,0.0,0.0,0.0,0.0,0.0,0.0,0.0,0.0,0.0,0.0,0.0,0.0,0.0,0.0,0.0,0.0,0.0,0.0,0.0,0.0,0.0,0.0,0.0,0.0,0.0,0.0,0.0,0.0,0.0,0.0,0.0,0.0,0.0,0.0,0.0,0.0,0.0,0.0,0.0,0.0,0.0,0.0,0.0,0.0,0.0,0.0,0.0,0.0,0.0,0.0,0.0,0.0,0.0,0.0,0.0,0.0,0.0,0.0,0.0,0.0,0.0,0.0,0.0,0.0,0.0,0.0,0.0,0.0,0.0,0.0,0.0,0.0,0.0,0.0,0.0,0.0,0.0,0.0,0.0,0.0,0.0,0.0,0.0,0.0,0.0,0.0,2.6922,2.6753,2.6381,0.0,0.0,0.0,0.0,0.0,0.0,0.0,0.0,0.0,0.0,0.0,0.0,0.0,0.0,0.0,0.0,0.0,0.0,0.0,0.0,0.0,0.0,0.0,0.0,0.0,0.0,0.0,0.0,0.0,0.0,0.0,0.0,0.0,0.0,0.0,0.0,0.0,0.0,0.0,0.0,0.0,0.0,0.0,0.0,0.0,0.0,0.0,0.0,0.0,0.0,0.0,0.0,0.0,0.0,0.0,0.0,0.0,0.0,0.0,0.0,0.0,0.0,0.0,0.0,0.0,0.0,0.0,0.0,0.0,0.0,0.0,0.0,0.0,0.0,0.0,0.0,0.0,0.0,0.0,0.0,0.0,0.0,0.0,0.0,0.0,0.0,0.0,0.0,0.0,0.0,0.0,0.0,0.0,0.0,0.0,0.0,0.0,0.0,0.0,0.0,0.0,0.0,0.0,0.0,0.0,0.0,0.0,0.0,0.0,0.0,2.7181,2.7181,2.7181,0.0,2.5355,0.0,0.0,0.0,0.0,0.0,0.0,0.0,0.0,0.0,0.0,0.0,0.0,0.0,0.0,0.0,0.0,0.0,0.0,0.0,0.0,0.0,0.0,0.0,0.0,0.0,0.0,0.0,0.0,0.0,0.0,0.0,0.0,0.0,0.0,0.0,0.0,0.0,0.0,0.0,0.0,0.0,0.0,0.0,0.0,0.0,0.0,0.0,0.0,0.0,0.0,0.0,0.0,0.0,0.0,0.0,0.0,0.0,0.0,0.0,0.0,0.0,0.0,0.0,0.0,0.0,0.0,0.0,0.0,0.0,0.0,0.0,0.0,0.0,0.0,0.0,0.0,0.0,0.0,0.0,0.0,0.0,0.0,0.0,0.0,0.0,0.0,0.0,0.0,0.0,0.0,0.0,0.0,0.0,0.0,0.0,0.0,0.0,0.0,0.0,0.0,0.0,0.0,0.0,0.0,0.0,0.0,0.0,0.0,0.0,0.0,2.7335,2.7335,2.713,2.644,0.0,0.0,0.0,0.0,0.0,0.0,0.0,0.0,0.0,0.0,0.0,0.0,0.0,0.0,0.0,0.0,0.0,0.0,0.0,0.0,0.0,0.0,0.0,0.0,0.0,0.0,0.0,0.0,0.0,0.0,0.0,0.0,0.0,0.0,0.0,0.0,0.0,0.0,0.0,0.0,0.0,0.0,0.0,0.0,0.0,0.0,0.0,0.0,0.0,0.0,0.0,0.0,0.0,0.0,0.0,0.0,0.0,0.0,0.0,0.0,0.0,0.0,0.0,0.0,0.0,0.0,0.0,0.0,0.0,0.0,0.0,0.0,0.0,0.0,0.0,0.0,0.0,0.0,0.0,0.0,0.0,0.0,0.0,0.0,0.0,0.0,0.0,0.0,0.0,0.0,0.0,0.0,0.0,0.0,0.0,0.0,0.0,0.0,0.0,0.0,0.0,0.0,0.0,0.0,0.0,0.0,0.0,0.0,0.0,0.0,2.784,2.797,2.815,2.7721,2.6894,2.5776,0.0,0.0,0.0,0.0,0.0,0.0,0.0,0.0,0.0,0.0,0.0,0.0,0.0,0.0,0.0,0.0,0.0,0.0,0.0,0.0,0.0,0.0,0.0,0.0,0.0,0.0,0.0,0.0,0.0,0.0,0.0,0.0,0.0,0.0,0.0,0.0,0.0,0.0,0.0,0.0,0.0,0.0,0.0,0.0,0.0,0.0,0.0,0.0,0.0,0.0,0.0,0.0,0.0,0.0,0.0,0.0,0.0,0.0,0.0,0.0,0.0,0.0,0.0,0.0,0.0,0.0,0.0,0.0,0.0,0.0,0.0,0.0,0.0,0.0,0.0,0.0,0.0,0.0,0.0,0.0,0.0,0.0,0.0,0.0,0.0,0.0,0.0,0.0,0.0,0.0,0.0,0.0,0.0,0.0,0.0,0.0,0.0,0.0,0.0,0.0,0.0,0.0,0.0,0.0,0.0,0.0,0.0,0.0,2.8168,2.8797,2.946,2.999,2.9087,2.8114,0.0,0.0,0.0,0.0,0.0,0.0,0.0,0.0,0.0,0.0,0.0,0.0,0.0,0.0,0.0,0.0,0.0,0.0,0.0,0.0,0.0,0.0,0.0,0.0,0.0,0.0,0.0,0.0,0.0,0.0,0.0,0.0,0.0,0.0,0.0,0.0,0.0,0.0,0.0,0.0,0.0,0.0,0.0,0.0,0.0,0.0,0.0,0.0,0.0,0.0,0.0,0.0,0.0,0.0,0.0,0.0,0.0,0.0,0.0,0.0,0.0,0.0,0.0,0.0,0.0,0.0,0.0,0.0,0.0,0.0,0.0,0.0,0.0,0.0,0.0,0.0,0.0,0.0,0.0,0.0,0.0,0.0,0.0,0.0,0.0,0.0,0.0,0.0,0.0,0.0,0.0,0.0,0.0,0.0,0.0,0.0,0.0,0.0,0.0,0.0,0.0,0.0,0.0,0.0,0.0,0.0,0.0,0.0,0.0,2.8965,2.9962,3.0529,3.0647,3.0001,2.9205,0.0,0.0,0.0,0.0,0.0,0.0,0.0,0.0,0.0,0.0,0.0,0.0,0.0,0.0,0.0,0.0,0.0,0.0,0.0,0.0,0.0,0.0,0.0,0.0,0.0,0.0,0.0,0.0,0.0,0.0,0.0,0.0,0.0,0.0,0.0,0.0,0.0,0.0,0.0,0.0,0.0,0.0,0.0,0.0,0.0,0.0,0.0,0.0,0.0,0.0,0.0,0.0,0.0,0.0,0.0,0.0,0.0,0.0,0.0,0.0,0.0,0.0,0.0,0.0,0.0,0.0,0.0,0.0,0.0,0.0,0.0,0.0,0.0,0.0,0.0,0.0,0.0,0.0,0.0,0.0,0.0,0.0,0.0,0.0,0.0,0.0,0.0,0.0,0.0,0.0,0.0,0.0,0.0,0.0,0.0,0.0,0.0,0.0,0.0,0.0,0.0,0.0,0.0,0.0,0.0,0.0,0.0,0.0,0.0,3.0565,3.1571,3.2265,3.2577,3.1529,3.067,0.0,0.0,0.0,0.0,0.0,0.0,0.0,0.0,0.0,0.0,0.0,0.0,0.0,0.0,0.0,0.0,0.0,0.0,0.0,0.0,0.0,0.0,0.0,0.0,0.0,0.0,0.0,0.0,0.0,0.0,0.0,0.0,0.0,0.0,0.0,0.0,0.0,0.0,0.0,0.0,0.0,0.0,0.0,0.0,0.0,0.0,0.0,0.0,0.0,0.0,0.0,0.0,0.0,0.0,0.0,0.0,0.0,0.0,0.0,0.0,0.0,0.0,0.0,0.0,0.0,0.0,0.0,0.0,0.0,0.0,0.0,0.0,0.0,0.0,0.0,0.0,0.0,0.0,0.0,0.0,0.0,0.0,0.0,0.0,0.0,0.0,0.0,0.0,0.0,0.0,0.0,0.0,0.0,0.0,0.0,0.0,0.0,0.0,0.0,0.0,0.0,0.0,0.0,0.0,0.0,0.0,0.0,0.0,3.0121,3.2929,3.363,3.453,3.5884,3.3716,3.2485,0.0,0.0,0.0,0.0,0.0,0.0,0.0,0.0,0.0,0.0,0.0,0.0,0.0,0.0,0.0,0.0,0.0,0.0,0.0,0.0,0.0,0.0,0.0,0.0,0.0,0.0,0.0,0.0,0.0,0.0,0.0,0.0,0.0,0.0,0.0,0.0,0.0,0.0,0.0,0.0,0.0,0.0,0.0,0.0,0.0,0.0,0.0,0.0,0.0,0.0,0.0,0.0,0.0,0.0,0.0,0.0,0.0,0.0,0.0,0.0,0.0,0.0,0.0,0.0,0.0,0.0,0.0,0.0,0.0,0.0,0.0,0.0,0.0,0.0,0.0,0.0,0.0,0.0,0.0,0.0,0.0,0.0,0.0,0.0,0.0,0.0,0.0,0.0,0.0,0.0,0.0,0.0,0.0,0.0,0.0,0.0,0.0,0.0,0.0,0.0,0.0,0.0,0.0,0.0,0.0,0.0,0.0,0.0,0.0,3.3713,3.5295,3.6252,3.6542,3.511,3.4162,0.0,0.0,0.0,0.0,0.0,0.0,0.0,0.0,0.0,0.0,0.0,0.0,0.0,0.0,0.0,0.0,0.0,0.0,0.0,0.0,0.0,0.0,0.0,0.0,0.0,0.0,0.0,0.0,0.0,0.0,0.0,0.0,0.0,0.0,0.0,0.0,0.0,0.0,0.0,0.0,0.0,0.0,0.0,0.0,0.0,0.0,0.0,0.0,0.0,0.0,0.0,0.0,0.0,0.0,0.0,0.0,0.0,0.0,0.0,0.0,0.0,0.0,0.0,0.0,0.0,0.0,0.0,0.0,0.0,0.0,0.0,0.0,0.0,0.0,0.0,0.0,0.0,0.0,0.0,0.0,0.0,0.0,0.0,0.0,0.0,0.0,0.0,0.0,0.0,0.0,0.0,0.0,0.0,0.0,0.0,0.0,0.0,0.0,0.0,0.0,0.0,0.0,0.0,0.0,0.0,0.0,0.0,0.0,0.0,3.6954,3.8124,3.8911,3.9123,3.7621,3.643,3.5473,0.0,0.0,0.0,0.0,0.0,0.0,0.0,0.0,0.0,0.0,0.0,0.0,0.0,0.0,0.0,0.0,0.0,0.0,0.0,0.0,0.0,0.0,0.0,0.0,0.0,0.0,0.0,0.0,0.0,0.0,0.0,0.0,0.0,0.0,0.0,0.0,0.0,0.0,0.0,0.0,0.0,0.0,0.0,0.0,0.0,0.0,0.0,0.0,0.0,0.0,0.0,0.0,0.0,0.0,0.0,0.0,0.0,0.0,0.0,0.0,0.0,0.0,0.0,0.0,0.0,0.0,0.0,0.0,0.0,0.0,0.0,0.0,0.0,0.0,0.0,0.0,0.0,0.0,0.0,0.0,0.0,0.0,0.0,0.0,0.0,0.0,0.0,0.0,0.0,0.0,0.0,0.0,0.0,0.0,0.0,0.0,0.0,0.0,0.0,0.0,0.0,0.0,0.0,0.0,0.0,0.0,0.0,0.0,4.1922,4.1988,4.2289,4.2765,4.0885,3.9079,0.0,0.0,0.0,0.0,0.0,0.0,0.0,0.0,0.0,0.0,0.0,0.0,0.0,0.0,0.0,0.0,0.0,0.0,0.0,0.0,0.0,0.0,0.0,0.0,0.0,0.0,0.0,0.0,0.0,0.0,0.0,0.0,0.0,0.0,0.0,0.0,0.0,0.0,0.0,0.0,0.0,0.0,0.0,0.0,0.0,0.0,0.0,0.0,0.0,0.0,0.0,0.0,0.0,0.0,0.0,0.0,0.0,0.0,0.0,0.0,0.0,0.0,0.0,0.0,0.0,0.0,0.0,0.0,0.0,0.0,0.0,0.0,0.0,0.0,0.0,0.0,0.0,0.0,0.0,0.0,0.0,0.0,0.0,0.0,0.0,0.0,0.0,0.0,0.0,0.0,0.0,0.0,0.0,0.0,0.0,0.0,0.0,0.0,0.0,0.0,0.0,0.0,0.0,0.0,0.0,0.0,0.0,0.0,0.0,4.4206,4.5522,4.5387,4.3829,4.2076,4.0657,0.0,0.0,0.0,0.0,0.0,0.0,0.0,0.0,0.0,0.0,0.0,0.0,0.0,0.0,0.0,0.0,0.0,0.0,0.0,0.0,0.0,0.0,0.0,0.0,0.0,0.0,0.0,0.0,0.0,0.0,0.0,0.0,0.0,0.0,0.0,0.0,0.0,0.0,0.0,0.0,0.0,0.0,0.0,0.0,0.0,0.0,0.0,0.0,0.0,0.0,0.0,0.0,0.0,0.0,0.0,0.0,0.0,0.0,0.0,0.0,0.0,0.0,0.0,0.0,0.0,0.0,0.0,0.0,0.0,0.0,0.0,0.0,0.0,0.0,0.0,0.0,0.0,0.0,0.0,0.0,0.0,0.0,0.0,0.0,0.0,0.0,0.0,0.0,0.0,0.0,0.0,0.0,0.0,0.0,0.0,0.0,0.0,0.0,0.0,0.0,0.0,0.0,0.0,0.0,0.0,0.0,0.0,0.0,4.4942,4.6541,4.8568,4.8726,4.6683,4.4365,4.2399,0.0,0.0,0.0,0.0,0.0,0.0,0.0,0.0,0.0,0.0,0.0,0.0,0.0,0.0,0.0,0.0,0.0,0.0,0.0,0.0,0.0,0.0,0.0,0.0,0.0,0.0,0.0,0.0,0.0,0.0,0.0,0.0,0.0,0.0,0.0,0.0,0.0,0.0,0.0,0.0,0.0,0.0,0.0,0.0,0.0,0.0,0.0,0.0,0.0,0.0,0.0,0.0,0.0,0.0,0.0,0.0,0.0,0.0,0.0,0.0,0.0,0.0,0.0,0.0,0.0,0.0,0.0,0.0,0.0,0.0,0.0,0.0,0.0,0.0,0.0,0.0,0.0,0.0,0.0,0.0,0.0,0.0,0.0,0.0,0.0,0.0,0.0,0.0,0.0,0.0,0.0,0.0,0.0,0.0,0.0,0.0,0.0,0.0,0.0,0.0,0.0,0.0,0.0,0.0,0.0,0.0,0.0,0.0,4.7843,4.8782,5.1088,5.1657,5.0304,4.7127,4.4282,0.0,0.0,0.0,0.0,0.0,0.0,0.0,0.0,0.0,0.0,0.0,0.0,0.0,0.0,0.0,0.0,0.0,0.0,0.0,0.0,0.0,0.0,0.0,0.0,0.0,0.0,0.0,0.0,0.0,0.0,0.0,0.0,0.0,0.0,0.0,0.0,0.0,0.0,0.0,0.0,0.0,0.0,0.0,0.0,0.0,0.0,0.0,0.0,0.0,0.0,0.0,0.0,0.0,0.0,0.0,0.0,0.0,0.0,0.0,0.0,0.0,0.0,0.0,0.0,0.0,0.0,0.0,0.0,0.0,0.0,0.0,0.0,0.0,0.0,0.0,0.0,0.0,0.0,0.0,0.0,0.0,0.0,0.0,0.0,0.0,0.0,0.0,0.0,0.0,0.0,0.0,0.0,0.0,0.0,0.0,0.0,0.0,0.0,0.0,0.0,0.0,0.0,0.0,0.0,0.0,0.0,0.0,0.0,4.7838,5.0387,5.1628,5.2164,5.1826,4.8639,4.614,0.0,0.0,0.0,0.0,0.0,0.0,0.0,0.0,0.0,0.0,0.0,0.0,0.0,0.0,0.0,0.0,0.0,0.0,0.0,0.0,0.0,0.0,0.0,0.0,0.0,0.0,0.0,0.0,0.0,0.0,0.0,0.0,0.0,0.0,0.0,0.0,0.0,0.0,0.0,0.0,0.0,0.0,0.0,0.0,0.0,0.0,0.0,0.0,3.4711,0.0,0.0,0.0,0.0,0.0,0.0,0.0,0.0,0.0,0.0,0.0,0.0,0.0,0.0,0.0,0.0,0.0,0.0,0.0,0.0,0.0,0.0,0.0,0.0,0.0,0.0,0.0,0.0,0.0,0.0,0.0,0.0,0.0,0.0,0.0,0.0,0.0,0.0,0.0,0.0,0.0,0.0,0.0,0.0,0.0,0.0,0.0,0.0,0.0,0.0,0.0,0.0,0.0,0.0,0.0,0.0,0.0,0.0,0.0,4.9584,5.1933,5.3281,5.3585,5.2841,5.0787,4.8312,0.0,0.0,0.0,0.0,0.0,0.0,0.0,0.0,0.0,0.0,0.0,0.0,0.0,0.0,0.0,0.0,0.0,0.0,0.0,0.0,0.0,0.0,0.0,0.0,0.0,0.0,0.0,0.0,0.0,0.0,0.0,0.0,0.0,0.0,0.0,0.0,0.0,0.0,0.0,0.0,0.0,0.0,0.0,0.0,0.0,0.0,0.0,0.0,0.0,0.0,0.0,0.0,0.0,0.0,0.0,0.0,0.0,0.0,0.0,0.0,0.0,0.0,0.0,0.0,0.0,0.0,0.0,0.0,0.0,0.0,0.0,0.0,0.0,0.0,0.0,0.0,0.0,0.0,0.0,0.0,0.0,0.0,0.0,0.0,0.0,0.0,0.0,0.0,0.0,0.0,0.0,0.0,0.0,0.0,0.0,0.0,0.0,0.0,0.0,0.0,0.0,0.0,0.0,0.0,0.0,0.0,0.0,4.8854,5.1665,5.355,5.5106,5.5243,5.389,5.2842,5.0389,4.6619,0.0,0.0,0.0,0.0,0.0,0.0,0.0,0.0,0.0,0.0,0.0,0.0,0.0,0.0,0.0,0.0,0.0,0.0,0.0,0.0,0.0,0.0,0.0,0.0,0.0,0.0,0.0,0.0,0.0,0.0,0.0,0.0,0.0,0.0,0.0,0.0,0.0,0.0,3.1723,3.2879,0.0,0.0,0.0,0.0,0.0,0.0,0.0,0.0,3.5394,0.0,0.0,0.0,0.0,0.0,0.0,0.0,0.0,0.0,0.0,0.0,0.0,0.0,0.0,0.0,0.0,0.0,0.0,0.0,0.0,0.0,0.0,0.0,0.0,0.0,0.0,0.0,0.0,0.0,0.0,0.0,0.0,0.0,0.0,0.0,0.0,0.0,0.0,0.0,0.0,0.0,0.0,0.0,0.0,0.0,0.0,0.0,0.0,0.0,0.0,0.0,0.0,0.0,0.0,0.0,0.0,4.7044,4.9454,5.2203,5.5207,5.619,5.6224,5.5378,5.3855,5.1463,4.8216,0.0,0.0,0.0,0.0,0.0,0.0,0.0,0.0,0.0,0.0,0.0,0.0,0.0,0.0,0.0,0.0,0.0,0.0,0.0,0.0,0.0,0.0,0.0,0.0,0.0,0.0,0.0,0.0,0.0,0.0,0.0,0.0,0.0,0.0,0.0,0.0,0.0,0.0,0.0,3.5275,3.5747,0.0,0.0,0.0,0.0,0.0,0.0,0.0,0.0,3.7113,0.0,0.0,0.0,0.0,0.0,0.0,0.0,0.0,0.0,0.0,0.0,0.0,0.0,0.0,0.0,0.0,0.0,0.0,0.0,0.0,0.0,0.0,0.0,0.0,0.0,0.0,0.0,0.0,0.0,0.0,0.0,0.0,0.0,0.0,0.0,0.0,0.0,0.0,0.0,0.0,0.0,0.0,0.0,0.0,0.0,0.0,0.0,0.0,0.0,0.0,0.0,0.0,0.0,0.0,0.0,4.7508,5.0826,5.3549,5.5683,5.6799,5.6833,5.575,5.4462,5.2102,0.0,0.0,0.0,0.0,0.0,0.0,0.0,0.0,0.0,0.0,0.0,0.0,0.0,0.0,0.0,0.0,0.0,0.0,0.0,0.0,0.0,0.0,0.0,0.0,0.0,0.0,0.0,0.0,0.0,0.0,0.0,0.0,0.0,0.0,0.0,0.0,0.0,0.0,0.0,0.0,3.7361,3.8322,4.0595,0.0,0.0,0.0,0.0,0.0,0.0,4.0071,3.9116,0.0,0.0,0.0,0.0,0.0,0.0,0.0,0.0,0.0,0.0,0.0,0.0,0.0,0.0,0.0,0.0,0.0,0.0,0.0,0.0,0.0,0.0,0.0,0.0,0.0,0.0,0.0,0.0,0.0,0.0,0.0,0.0,0.0,0.0,0.0,0.0,0.0,0.0,0.0,0.0,0.0,0.0,0.0,0.0,0.0,0.0,0.0,0.0,0.0,0.0,0.0,0.0,0.0,0.0,0.0,4.7977,5.2102,5.4934,5.6156,5.7273,5.7412,5.6367,5.4833,5.2505,0.0,0.0,0.0,0.0,0.0,0.0,0.0,0.0,0.0,0.0,0.0,0.0,0.0,0.0,0.0,0.0,0.0,0.0,0.0,0.0,0.0,0.0,0.0,0.0,0.0,0.0,0.0,0.0,0.0,0.0,0.0,0.0,0.0,0.0,0.0,0.0,0.0,0.0,0.0,0.0,0.0,4.0974,4.3135,4.2924,0.0,0.0,0.0,0.0,4.146,4.1545,0.0,0.0,0.0,0.0,0.0,0.0,0.0,0.0,0.0,0.0,0.0,0.0,0.0,0.0,0.0,0.0,0.0,0.0,0.0,0.0,0.0,0.0,0.0,0.0,0.0,0.0,0.0,0.0,0.0,0.0,0.0,0.0,0.0,0.0,0.0,0.0,0.0,0.0,0.0,0.0,0.0,0.0,0.0,0.0,0.0,0.0,0.0,0.0,0.0,0.0,0.0,0.0,0.0,0.0,0.0,0.0,4.9419,5.2606,5.5407,5.7509,5.7814,5.8106,5.8462,5.5041,5.2606,0.0,0.0,0.0,0.0,0.0,0.0,0.0,0.0,0.0,0.0,0.0,0.0,0.0,0.0,0.0,0.0,0.0,0.0,0.0,0.0,0.0,0.0,0.0,0.0,0.0,0.0,0.0,0.0,0.0,0.0,0.0,0.0,0.0,0.0,0.0,0.0,0.0,0.0,0.0,0.0,0.0,4.2474,4.46,4.5197,4.5503,0.0,0.0,4.555,4.5157,4.4616,0.0,0.0,0.0,0.0,0.0,0.0,0.0,0.0,0.0,0.0,0.0,0.0,0.0,0.0,0.0,0.0,0.0,0.0,0.0,0.0,0.0,0.0,0.0,0.0,0.0,0.0,0.0,0.0,0.0,0.0,0.0,0.0,0.0,0.0,0.0,0.0,0.0,0.0,0.0,0.0,0.0,0.0,0.0,0.0,0.0,0.0,0.0,0.0,0.0,0.0,0.0,0.0,0.0,0.0,0.0,4.7077,4.972,5.3685,5.6423,5.7848,5.8727,5.8875,5.8351,5.5272,5.2841,0.0,0.0,0.0,0.0,0.0,0.0,0.0,0.0,0.0,0.0,0.0,0.0,0.0,0.0,0.0,0.0,0.0,0.0,0.0,0.0,0.0,0.0,0.0,0.0,0.0,0.0,0.0,0.0,0.0,0.0,0.0,0.0,0.0,0.0,0.0,0.0,0.0,0.0,0.0,0.0,0.0,0.0,4.5559,4.6577,0.0,0.0,0.0,4.6517,4.5001,0.0,0.0,0.0,0.0,0.0,0.0,0.0,0.0,0.0,0.0,0.0,0.0,0.0,0.0,0.0,0.0,0.0,0.0,0.0,0.0,0.0,0.0,0.0,0.0,0.0,0.0,0.0,0.0,0.0,0.0,0.0,0.0,0.0,0.0,0.0,0.0,0.0,0.0,0.0,0.0,0.0,0.0,0.0,0.0,0.0,0.0,0.0,0.0,0.0,0.0,0.0,0.0,0.0,0.0,0.0,0.0,0.0,5.0257,5.4597,5.734,5.8423,5.9539,5.9716,5.8987,5.6179,0.0,0.0,0.0,0.0,0.0,0.0,0.0,0.0,0.0,0.0,0.0,0.0,0.0,0.0,0.0,0.0,0.0,0.0,0.0,0.0,0.0,0.0,0.0,0.0,0.0,0.0,0.0,2.7906,0.0,0.0,0.0,0.0,0.0,0.0,0.0,0.0,0.0,0.0,0.0,0.0,0.0,0.0,4.6139,4.7162,4.8459,4.9268,0.0,0.0,4.8004,4.6001,4.6781,4.6573,0.0,0.0,0.0,0.0,0.0,0.0,0.0,0.0,0.0,0.0,0.0,0.0,0.0,0.0,0.0,0.0,0.0,0.0,0.0,0.0,0.0,0.0,0.0,0.0,0.0,0.0,0.0,0.0,0.0,0.0,0.0,0.0,0.0,0.0,0.0,0.0,0.0,0.0,0.0,0.0,0.0,0.0,0.0,0.0,0.0,0.0,0.0,0.0,0.0,0.0,0.0,0.0,0.0,0.0,0.0,5.1732,5.5103,5.7848,5.9844,6.0047,6.0762,6.1865,5.8337,5.5852,0.0,0.0,0.0,0.0,0.0,0.0,0.0,0.0,0.0,0.0,0.0,0.0,0.0,0.0,0.0,0.0,0.0,0.0,0.0,0.0,0.0,0.0,0.0,0.0,0.0,0.0,0.0,0.0,0.0,0.0,0.0,0.0,0.0,0.0,0.0,0.0,0.0,0.0,0.0,0.0,0.0,4.8748,5.0177,5.1623,5.2431,0.0,0.0,5.0882,5.0434,4.9977,4.8996,4.6713,0.0,0.0,0.0,0.0,0.0,0.0,0.0,0.0,0.0,0.0,0.0,0.0,0.0,0.0,0.0,0.0,0.0,0.0,0.0,0.0,0.0,0.0,0.0,0.0,0.0,0.0,0.0,0.0,0.0,0.0,0.0,0.0,0.0,0.0,0.0,0.0,0.0,0.0,0.0,0.0,0.0,0.0,0.0,0.0,0.0,0.0,0.0,0.0,0.0,0.0,0.0,0.0,0.0,4.962,5.257,5.6284,5.9268,6.14,6.1941,6.2266,6.237,5.9911,5.7533,0.0,0.0,0.0,0.0,0.0,0.0,0.0,0.0,0.0,0.0,0.0,0.0,0.0,0.0,0.0,0.0,0.0,0.0,0.0,0.0,0.0,0.0,0.0,0.0,0.0,0.0,0.0,0.0,3.3547,3.3817,3.3183,0.0,0.0,0.0,0.0,0.0,0.0,0.0,0.0,0.0,0.0,4.9434,5.2507,5.3733,0.0,0.0,5.2994,5.1942,5.0708,5.015,4.9219,4.6971,4.6058,0.0,0.0,0.0,0.0,0.0,0.0,0.0,0.0,0.0,0.0,0.0,0.0,0.0,0.0,0.0,0.0,0.0,0.0,0.0,0.0,0.0,0.0,0.0,0.0,0.0,0.0,0.0,0.0,0.0,0.0,0.0,0.0,0.0,0.0,0.0,0.0,0.0,0.0,0.0,0.0,0.0,0.0,0.0,0.0,0.0,0.0,0.0,0.0,0.0,0.0,0.0,0.0,5.069,5.3618,5.7624,6.0808,6.3049,6.4042,6.4161,6.3383,6.2081,5.9885,0.0,0.0,0.0,0.0,0.0,0.0,0.0,0.0,0.0,0.0,0.0,0.0,0.0,0.0,0.0,0.0,0.0,0.0,0.0,0.0,0.0,0.0,0.0,0.0,0.0,0.0,0.0,0.0,3.5179,3.5396,3.502,0.0,0.0,0.0,0.0,0.0,0.0,0.0,0.0,0.0,0.0,5.1092,5.401,5.5249,5.5581,5.4896,5.4143,5.3148,5.1789,5.1058,5.0215,4.8656,0.0,0.0,0.0,0.0,0.0,0.0,0.0,0.0,0.0,0.0,0.0,0.0,0.0,0.0,0.0,0.0,0.0,0.0,0.0,0.0,0.0,0.0,0.0,0.0,0.0,0.0,0.0,0.0,0.0,0.0,3.4916,0.0,0.0,0.0,0.0,0.0,0.0,0.0,0.0,0.0,0.0,0.0,0.0,0.0,0.0,0.0,0.0,0.0,0.0,0.0,0.0,0.0,0.0,5.2234,5.5138,5.915,6.237,6.4567,6.611,6.6485,6.5704,6.4979,6.3124,5.9785,0.0,0.0,0.0,0.0,0.0,0.0,0.0,0.0,0.0,0.0,0.0,0.0,0.0,0.0,0.0,0.0,0.0,0.0,0.0,0.0,0.0,0.0,0.0,0.0,0.0,0.0,3.4123,3.4881,3.5932,0.0,0.0,0.0,0.0,0.0,0.0,0.0,0.0,0.0,0.0,5.0898,5.4194,5.475,5.6039,5.6596,5.5538,5.5051,5.4742,5.4483,5.3376,5.2575,0.0,0.0,0.0,0.0,0.0,0.0,0.0,0.0,0.0,0.0,0.0,0.0,0.0,0.0,0.0,0.0,0.0,0.0,0.0,0.0,0.0,0.0,0.0,0.0,0.0,0.0,0.0,4.0955,4.103,0.0,0.0,0.0,0.0,0.0,0.0,0.0,0.0,0.0,0.0,0.0,5.0221,5.0678,0.0,0.0,0.0,0.0,0.0,0.0,0.0,0.0,0.0,0.0,0.0,0.0,5.3715,5.666,6.0245,6.3299,6.596,6.6622,6.6736,6.6446,6.6174,6.4381,6.0728,0.0,0.0,0.0,0.0,0.0,0.0,0.0,0.0,0.0,0.0,0.0,0.0,0.0,0.0,0.0,0.0,0.0,0.0,0.0,0.0,0.0,0.0,0.0,0.0,0.0,3.9032,0.0,0.0,0.0,0.0,0.0,0.0,0.0,0.0,0.0,0.0,0.0,4.6346,4.9947,5.1674,5.3461,5.5706,5.6872,5.7373,0.0,0.0,0.0,0.0,0.0,0.0,0.0,0.0,0.0,0.0,0.0,0.0,0.0,0.0,4.6432,4.4229,4.4663,4.5454,4.5282,0.0,0.0,0.0,0.0,0.0,0.0,0.0,0.0,0.0,0.0,0.0,0.0,0.0,0.0,4.5276,0.0,4.4808,0.0,0.0,0.0,0.0,0.0,0.0,0.0,0.0,5.1293,5.3058,5.4532,5.4995,5.5726,0.0,5.5628,5.3349,0.0,0.0,0.0,0.0,0.0,0.0,0.0,0.0,5.5732,5.8214,6.1775,6.4732,6.7056,6.7479,6.7625,6.757,6.7116,6.5579,6.31,5.9742,5.6768,0.0,0.0,0.0,0.0,0.0,0.0,0.0,0.0,0.0,0.0,0.0,0.0,0.0,0.0,0.0,0.0,0.0,0.0,0.0,0.0,0.0,0.0,0.0,4.2028,0.0,0.0,0.0,0.0,0.0,0.0,0.0,0.0,0.0,4.4893,4.6455,4.8748,5.1929,5.321,5.4407,5.601,0.0,0.0,0.0,0.0,0.0,0.0,0.0,5.4036,5.3314,5.3503,5.3414,5.2664,5.229,5.2091,5.2218,0.0,0.0,4.9001,4.9423,5.0228,5.0164,4.9808,4.966,4.9981,4.9922,5.0035,0.0,0.0,0.0,0.0,0.0,0.0,0.0,0.0,4.911,4.8216,0.0,4.8349,0.0,0.0,0.0,0.0,0.0,0.0,0.0,0.0,5.6849,5.8457,5.9485,5.952,6.0428,6.1858,6.0233,5.9494,5.9361,5.3913,0.0,0.0,0.0,0.0,0.0,0.0,5.8248,5.986,6.3686,6.6491,6.7998,6.8772,6.9206,6.9107,6.7672,6.688,6.6745,6.3202,6.0492,5.8942,5.367,0.0,0.0,0.0,0.0,0.0,0.0,0.0,0.0,0.0,0.0,0.0,0.0,0.0,0.0,0.0,0.0,0.0,0.0,0.0,0.0,4.3744,0.0,0.0,0.0,0.0,0.0,0.0,0.0,0.0,0.0,0.0,4.6976,4.9219,5.1455,5.254,0.0,0.0,0.0,0.0,5.751,5.6081,5.5538,5.5448,5.5478,5.5957,5.6555,5.7124,0.0,0.0,5.7274,5.596,5.5083,5.5053,5.6154,5.5902,5.2704,5.2753,5.3149,5.3149,5.3149,5.3119,5.3179,5.3514,5.3799,5.6065,0.0,0.0,0.0,0.0,5.3822,5.5109,5.7148,5.6934,5.6626,5.6149,5.601,0.0,0.0,0.0,0.0,0.0,0.0,5.6915,5.8558,5.958,6.0578,6.1593,6.1593,6.2105,6.2961,6.2504,6.2542,6.2906,6.0314,5.746,5.4406,0.0,0.0,0.0,0.0,6.0306,6.2854,6.4788,6.6698,6.8705,6.9028,6.9423,6.9918,6.8981,6.8436,6.8436,6.6289,6.4113,6.2009,5.8858,0.0,0.0,0.0,0.0,0.0,0.0,0.0,0.0,0.0,0.0,0.0,0.0,0.0,0.0,0.0,0.0,0.0,0.0,0.0,4.7566,4.8622,4.8621,0.0,0.0,0.0,0.0,0.0,0.0,0.0,0.0,0.0,5.3122,5.2386,5.2222,0.0,0.0,5.5659,5.5379,5.7516,5.9105,5.8882,0.0,0.0,0.0,5.9547,5.9398,5.9355,5.9674,5.9666,5.9011,5.9091,5.9289,5.9289,5.9976,6.0365,5.9946,5.8423,5.7408,5.7318,5.7318,5.7467,5.7915,5.8154,5.8554,6.269,6.0583,5.7902,5.7593,5.8889,5.8851,6.0257,6.2487,6.2183,6.1723,6.1138,6.112,5.9775,5.7566,5.7096,0.0,0.0,0.0,6.0886,6.2628,6.2763,6.3485,6.4546,6.458,6.5085,6.6075,6.549,6.555,6.6274,6.4092,6.1968,5.969,0.0,0.0,5.9607,6.0842,6.2391,6.4301,6.5816,6.7252,6.8605,6.9214,6.9755,7.0161,6.9755,6.9519,6.9519,6.8368,6.6728,6.4686,6.2413,5.9203,0.0,0.0,0.0,0.0,0.0,0.0,0.0,0.0,0.0,0.0,0.0,4.2187,4.1675,0.0,0.0,0.0,4.8928,5.0158,5.1562,5.1806,0.0,0.0,0.0,0.0,0.0,0.0,0.0,5.1242,5.333,5.5486,5.7152,5.6304,5.5831,5.6745,5.7647,5.8023,5.7648,0.0,6.0576,6.0475,6.0835,6.1224,6.1416,6.1595,6.1804,6.211,6.2285,6.2311,6.1923,6.2276,6.266,6.272,6.2989,6.3378,6.3767,6.251,6.1463,6.1463,6.1224,6.1283,6.1912,6.2032,6.245,6.8463,6.798,6.2021,6.0711,6.2535,6.2419,6.3692,6.5877,6.5517,6.4495,6.3103,6.4424,6.3269,6.0393,6.036,0.0,0.0,6.3087,6.4349,6.7049,6.6474,6.6914,6.8132,6.8166,6.8897,7.023,6.8897,6.8528,6.9078,6.6348,6.5096,6.561,6.2949,6.1749,6.2206,6.368,6.4536,6.4622,6.6829,6.7963,6.8098,6.9519,7.0297,7.0263,7.0263,7.0297,7.0263,6.9586,6.8538,6.7117,6.4821,6.2211,5.9279,0.0,0.0,0.0,0.0,0.0,0.0,0.0,0.0,0.0,0.0,0.0,0.0,0.0,0.0,0.0,5.4079,0.0,5.5722,5.4222,0.0,0.0,0.0,5.5164,5.5821,5.6615,5.7183,5.7281,0.0,0.0,5.9864,0.0,6.1195,6.1504,6.2103,6.219,6.1425,6.1995,6.2211,6.1852,6.1762,6.1762,6.2241,6.2899,6.3797,6.4606,6.5114,6.4964,6.4844,6.4844,6.4964,6.4874,6.4994,6.5024,6.5084,6.4874,6.5084,6.5024,6.4485,6.4216,6.4755,6.4874,6.4904,7.1601,7.1463,6.9933,6.8613,6.7591,6.7512,6.7971,6.872,6.8802,6.8383,6.7557,6.8031,6.776,6.6897,6.6897,6.7167,6.7708,6.8654,6.9248,6.9451,7.0364,7.0703,7.05,7.05,7.0656,7.0968,7.0656,7.0549,7.0764,6.9986,6.905,6.7994,6.7184,6.6323,6.5196,6.5583,6.6354,6.7618,6.7671,6.8297,6.962,7.0567,7.1075,7.1041,7.1041,7.1041,7.1041,7.0331,6.9755,6.935,6.776,6.541,6.2312,5.998,0.0,0.0,0.0,0.0,0.0,0.0,0.0,0.0,0.0,4.7502,4.7406,0.0,5.2416,0.0,5.7867,6.0404,6.1223,6.0751,0.0,0.0,5.9937,5.9365,5.8268,6.0195,6.0864,5.8807,6.0654,6.2439,6.3263,6.4167,6.5147,6.6467,6.4213,6.2521,6.2655,6.43,6.5472,6.5652,6.6523,6.7123,6.6402,6.6131,6.5981,6.5802,6.5772,6.5592,6.5114,6.5024,6.5024,6.5024,6.5024,6.5233,6.5682,6.5383,6.5473,6.6191,6.5592,6.4994,6.5622,6.5772,6.5922,7.3671,7.3671,7.3671,7.2946,7.1774,7.1429,7.1538,7.197,7.197,7.1712,7.1396,7.1274,7.1219,7.1041,7.1075,7.1041,7.1109,7.1921,7.2056,7.1718,7.2496,7.2665,7.2293,7.2293,7.2293,7.2259,7.1954,7.1817,7.1814,7.1512,7.0846,6.9936,7.0216,6.9634,6.8337,6.693,6.6694,6.7685,6.8291,6.9389,7.1109,7.1887,7.1864,7.1131,7.1098,7.0794,7.0063,6.9659,6.9254,6.8884,6.7805,6.6036,6.3665,6.1609,5.941,0.0,0.0,0.0,0.0,0.0,0.0,0.0,0.0,0.0,0.0,0.0,5.6129,0.0,6.0528,6.2569,6.2556,6.2777,6.3314,6.4304,6.4321,6.4195,6.4165,6.5222,6.5267,6.3929,6.4813,6.5831,6.6752,6.7157,6.7683,6.8723,6.663,6.5188,6.556,6.6974,6.797,6.7601,6.8535,6.9231,6.859,6.8136,6.7747,6.7448,6.7358,6.7208,6.6849,6.655,6.634,6.6311,6.6101,6.6011,6.637,6.6191,6.6191,6.661,6.643,6.6101,6.637,6.646,6.658,7.5223,7.5223,7.5223,7.5223,7.5154,7.4499,7.4499,7.4825,7.4473,7.4261,7.4206,7.3753,7.3569,7.3477,7.3477,7.3477,7.351,7.368,7.3781,7.3781,7.395,7.4052,7.4052,7.4052,7.4018,7.3916,7.3274,7.2902,7.2665,7.2225,7.1819,7.1424,7.2201,7.2009,7.0815,6.8115,6.6819,6.7161,6.9199,7.094,7.2404,7.2877,7.238,7.095,7.0781,7.0052,6.8663,6.8495,6.8071,6.7401,6.6765,6.5861,6.4606,6.2382,6.0898,0.0,5.7918,0.0,0.0,0.0,0.0,0.0,0.0,0.0,0.0,5.9778,6.0717,6.1622,6.3276,6.3983,6.3348,6.3885,6.5295,6.7967,6.8304,6.8985,7.0534,6.9932,6.9446,6.9572,6.8779,6.8643,6.9566,6.9382,6.9022,6.9242,6.9028,6.8575,6.8697,6.9334,6.9423,6.847,6.9015,6.9532,6.922,6.9034,6.8914,6.8944,6.8854,6.9004,6.8854,6.8435,6.8046,6.8016,6.7597,6.7268,6.7238,6.7328,6.7388,6.7508,6.7478,6.7298,6.7029,6.6939,6.6999,7.6775,7.6775,7.6809,7.6775,7.6775,7.6637,7.5859,7.4684,7.4772,7.4562,7.4206,7.3969,7.3695,7.3477,7.3477,7.3477,7.3544,7.4728,7.527,7.5303,7.6555,7.713,7.713,7.713,7.6826,7.6251,7.6115,7.5405,7.4221,7.5303,7.4533,7.2052,7.3265,7.2928,7.095,0.0,0.0,0.0,7.19,7.2632,7.2868,7.1732,7.0909,7.0608,7.0038,0.0,6.9276,6.8674,6.8272,6.8138,6.8004,0.0,0.0,0.0,0.0,0.0,0.0,0.0,0.0,0.0,0.0,0.0,6.1642,6.114,6.122,6.293,6.4959,6.7079,6.8594,6.9996,7.1188,7.1424,7.1564,7.1748,7.1784,7.1554,7.078,7.0838,7.0784,6.9914,6.9623,6.9597,6.9905,6.9543,6.9303,6.9517,7.0251,7.0495,6.9791,6.9913,7.0183,7.0622,7.0247,6.9939,6.9782,6.9393,6.9123,6.9004,6.9004,6.9034,6.9093,6.8974,6.8824,6.8854,6.8704,6.8615,6.8615,6.9034,6.9333,6.9423,6.9363,6.8884,6.7358,6.6999,6.6999,7.781,0.0,7.8189,7.8361,0.0,7.8361,7.7822,7.694,7.6183,7.5866,7.588,7.6163,7.6148,7.6054,7.6054,7.596,7.5933,7.6679,7.6922,7.686,7.7638,7.801,7.801,7.801,7.7773,7.7435,7.7435,7.686,7.5845,7.6893,7.6391,7.4472,7.5552,7.5518,7.4438,7.4647,7.3878,7.1908,7.2767,7.34,7.3831,7.377,7.3211,7.2378,0.0,0.0,0.0,0.0,0.0,0.0,0.0,0.0,0.0,0.0,0.0,6.7463,6.6618,6.6383,6.6772,6.6556,6.6825,6.8021,6.8142,6.7281,6.5413,6.6878,6.8402,6.9628,7.0225,7.0863,7.1622,7.2052,7.2348,7.2499,7.22,7.1851,7.1497,7.1425,7.1426,7.1253,7.1034,7.1013,7.1383,7.0984,7.0709,7.0678,7.0924,7.1077,7.1015,7.1106,7.1374,7.1443,7.0938,7.044,7.041,7.0201,6.9931,6.9961,6.9961,7.0081,7.038,7.0141,7.0051,7.029,7.0171,6.9931,6.9961,7.0231,7.044,7.044,7.041,7.0171,6.9064,6.8435,6.7986,7.8603,7.8672,7.9258,7.95,7.95,7.95,7.95,7.9431,0.0,0.0,0.0,7.8503,7.8681,7.8586,7.862,7.8524,7.8366,7.8405,7.8375,7.8213,7.8314,7.8382,7.8382,7.8382,7.8314,7.8179,7.8179,7.7807,7.7164,7.7942,7.801,7.7435,7.8145,7.8483,7.8416,7.8991,7.7405,7.3737,7.3871,7.431,7.5107,7.6087,7.5923,7.4484,7.4921,7.4186,7.2217,7.1922,7.1587,7.1043,6.987,6.9501,7.0038,6.8965,6.8652,6.9189,6.8719,6.9009,7.0367,7.0501,7.1098,7.2529,7.3274,7.2505,6.9794,7.0757,7.135,7.135,7.116,7.101,7.0935,7.1454,7.1958,7.2445,7.1918,7.1886,7.2266,7.2059,7.2064,7.2535,7.2235,7.2183,7.2583,7.2091,7.1783,7.1721,7.1383,7.1259,7.1752,7.2088,7.1982,7.1533,7.1088,7.0919,7.1068,7.1068,7.1098,7.1248,7.1248,7.1457,7.1816,7.1637,7.1517,7.1876,7.1607,7.1308,7.1278,7.1427,7.1427,7.1427,7.1427,7.1427,7.1338,7.053,6.9692,7.9362,7.9362,7.9465,7.95,7.95,7.95,7.95,7.95,7.92,7.9039,7.8922,7.9025,7.8811,7.8462,7.8462,7.8269,7.8108,7.8751,7.8957,0.0,7.96,7.987,7.9904,7.9904,7.9566,7.8991,7.8957,7.8551,7.8044,7.9228,7.9498,7.9025,8.0141,8.0479,7.9938,8.0006,7.9735,7.8992,7.7745,7.7073,7.7174,7.5968,7.5134,7.4899,7.443,7.3994,7.3658,7.3055,7.2653,7.2519,7.2317,7.2378,7.2666,7.2464,7.249,7.2776,7.2674,7.2708,7.3003,7.3037,7.3105,7.3341,7.4018,7.3984,7.3003,7.3561,7.4101,7.4006,7.4325,7.4703,7.44,7.4258,7.39,7.3461,7.3422,7.321,7.2849,7.2703,7.2674,7.2767,7.2337,7.1967,7.1998,7.1536,7.1105,7.1136,7.1383,7.1691,7.1598,7.1774,7.1947,7.1435,7.1178,7.1158,7.1678,7.1757,7.1936,7.2565,7.2535,7.2535,7.2714,7.2654,7.2624,7.2774,7.2684,7.2624,7.2654,7.3103,7.3283,7.3313,7.3313,7.3343,7.3313,7.2744,7.1966,8.012,8.0189,8.0569,8.0741,8.0741,8.0741,8.0741,8.0776,8.0741,8.0406,7.9968,8.0347,8.0459,8.0268,8.0268,7.998,7.959,7.993,8.0001,7.9735,8.004,8.0209,8.0242,8.0615,8.0615,8.031,8.0276,8.0107,7.987,8.0479,8.0615,8.0378,8.1359,8.1731,8.1426,8.1393,8.1393,8.1359,7.9837,7.896,7.896,7.859,7.8455,7.8455,7.8084,7.7747,7.7343,7.6635,7.6062,7.5658,7.5253,7.5219,7.572,7.5479,7.5411,7.5912,7.5912,7.5912,7.5912,7.5912,7.5912,7.5946,7.6251,7.6318,7.5946,7.4959,7.4435,7.4837,7.4427,7.417,7.4342,7.3772,7.3148,7.2782,7.2413,7.1925,7.1442,7.166,7.1721,7.1413,7.1383,7.1383,7.1383,7.1105,7.089,7.0921,7.1259,7.1414,7.1352,7.1533,7.1526,7.1177,7.1322,7.1707,7.234,7.2631,7.28,7.313,7.3027,7.3073,7.3313,7.3432,7.3582,7.3911,7.3971,7.3971,7.3941,7.421,7.439,7.442,7.442,7.442,7.439,7.442,7.3941,8.0879,8.0948,8.1535,8.1776,8.1776,8.1776,8.1776,8.1776,8.1776,8.1535,8.1224,8.1638,8.181,8.1715,8.1715,8.1393,8.1039,8.1077,8.0947,8.0445,8.0615,8.0615,8.0547,8.119,8.146,8.1325,8.146,8.1528,8.1562,8.1697,8.1866,8.2069,8.2611,8.2915,8.2915,8.2915,8.2915,8.2847,8.1765,8.1021,8.0716,8.1257,8.1528,8.1562,8.1494,8.1291,8.0716,8.0175,7.96,7.8991,7.845,7.8348,7.8653,7.8044,7.7841,7.8179,7.8077,7.801,7.801,7.801,7.801,7.801,7.801,7.8044,7.8013,7.6408,7.5339,7.5568,7.4659,7.4075,7.4371,7.3578,7.2829,7.2707,7.2152,7.1783,7.1044,7.1167,7.1105,7.0551,7.0705,7.0921,7.0921,7.1044,7.1259,7.1413,7.1259,7.1261,7.1414,7.1445,7.1229,7.1286,7.1678,7.222,7.2857,7.3053,7.3153,7.3334,7.316,7.3193,7.3612,7.3881,7.4151,7.4599,7.4809,7.4749,7.4839,7.4839,7.4839,7.4809,7.4958,7.5108,7.5138,7.5437,7.5407,8.1672,8.1707,8.1741,8.1776,8.181,8.181,8.1845,8.181,8.181,8.2155,8.2604,8.2052,8.175,8.149,8.1462,8.1303,8.0811,8.129,8.1495,8.1224,8.19,8.1832,8.1224,8.1934,8.1934,8.146,8.1968,8.2306,8.234,8.2949,8.3625,8.4234,8.4403,8.437,8.4403,8.437,8.4403,8.4403,8.4302,8.3558,8.2306,8.2272,8.2306,8.2306,8.2306,8.2272,8.2171,8.2171,8.2069,8.2002,8.1832,8.1562,8.0987,8.0276,7.9634,7.9058,7.8416,7.801,7.8044,7.801,7.8111,7.801,7.8145,7.8416,7.8991,7.879,7.8319,7.7716,7.7063,7.6442,7.6314,7.5569,7.4872,7.4495,7.443,7.4368,7.3506,7.3106,7.2521,7.1875,7.1167,7.089,7.0952,7.1352,7.1967,7.2275,7.1875,7.1721,7.1875,7.1414,7.1353,7.1721,7.193,7.2347,7.2797,7.269,7.2983,7.3304,7.316,7.3327,7.3776,7.4046,7.4091,7.4826,7.4869,7.4869,7.4869,7.4869,7.4869,7.4958,7.5288,7.5766,7.5796,7.5946,7.5826,8.0707,8.1086,8.1121,8.1362,8.181,8.2259,8.2466,8.25,8.2949,8.3293,8.35,8.3031,8.2796,8.2698,8.2732,8.2402,8.1936,8.2242,8.2004,8.1393,8.2035,8.1799,8.0885,8.234,8.2441,8.146,8.2475,8.305,8.3186,8.3795,8.4336,8.4573,8.4606,8.4606,8.4606,8.4606,8.4606,8.4606,8.4606,8.4302,8.3828,8.3727,8.3727,8.3659,8.3287,8.305,8.3016,8.2644,8.2408,8.2408,8.2408,8.2272,8.1968,8.1663,8.1359,8.1054,8.0784,8.0615,8.0581,8.0615,8.0581,8.0615,8.0581,8.075,8.0918,8.0368,7.9747,7.9408,7.8211,7.7525,7.764,7.6256,7.5182,7.5081,7.5015,7.4584,7.3506,7.3168,7.2583,7.1536,7.1075,7.089,7.0921,7.1167,7.1444,7.1721,7.1506,7.1567,7.1875,7.1721,7.1875,7.2398,7.258,7.2884,7.3339,7.3601,7.3746,7.3859,7.3688,7.3768,7.4148,7.4285,7.4391,7.5022,7.4976,7.4869,7.4869,7.4869,7.4869,7.5078,7.5437,7.6006,7.6365,7.6754,7.6963,7.981,8.0293,8.0534,8.119,8.2121,8.2673,8.3018,8.3259,8.3776,8.4121,8.423,8.4033,8.3937,8.394,8.3597,8.3225,8.2854,8.3024,8.2615,8.1765,8.2577,8.2238,8.1122,8.2847,8.3118,8.2272,8.3186,8.3828,8.3862,8.4336,8.4606,8.4606,8.4606,8.4606,8.4606,8.4606,8.4742,8.4945,8.4945,8.5046,8.5215,8.5249,8.5046,8.4606,8.4099,8.3795,8.3795,8.3287,8.3016,8.3016,8.3016,8.3016,8.3016,8.2847,8.2611,8.2441,8.2408,8.2408,8.2408,8.2408,8.2408,8.2408,8.2408,8.2371,8.2085,8.1334,8.0707,8.0471,7.9054,7.8142,7.8066,7.6713,7.5667,7.5538,7.5415,7.4769,7.3753,7.3291,7.2521,7.1413,7.1075,7.1013,7.1167,7.1259,7.1383,7.1598,7.1598,7.1598,7.2091,7.2275,7.2429,7.2891,7.2983,7.3168,7.366,7.3588,7.392,7.3822,7.3442,7.3365,7.4284,7.4202,7.4493,7.4915,7.5007,7.5155,7.5365,7.5365,7.5407,7.5677,7.5976,7.6425,7.6963,7.7502,7.7711,7.9534,7.9672,8.0327,8.1431,8.2845,8.2914,8.3328,8.3983,8.4052,8.4368,8.4789,8.4723,8.4797,8.4862,8.3841,8.3057,8.2956,8.3568,8.3259,8.2543,8.3795,8.3693,8.2475,8.3828,8.4133,8.3219,8.4031,8.4471,8.4505,8.4606,8.4606,8.464,8.4742,8.4708,8.4742,8.4776,8.5012,8.5655,8.5723,8.6027,8.6636,8.6738,8.6027,8.4877,8.4606,8.464,8.4606,8.4573,8.4539,8.4539,8.4539,8.4505,8.4471,8.3896,8.3287,8.2678,8.2543,8.2543,8.2611,8.2678,8.2644,8.2577,8.278,8.2359,8.22,8.1935,8.1572,8.0906,7.9707,7.878,7.7933,7.7271,7.6739,7.6739,7.6277,7.56,7.4922,7.3722,7.2768,7.2029,7.1444,7.1383,7.1875,7.1937,7.2183,7.2583,7.2798,7.2798,7.2768,7.2891,7.2922,7.2952,7.2983,7.3014,7.3045,7.3197,7.2915,7.285,7.2937,7.259,7.2979,7.3555,7.4284,7.488,7.5399,7.5866,7.6061,7.6313,7.6594,7.6694,7.6754,7.7113,7.7652,7.7741,7.7921,7.8361,7.8913,8.012,8.1224,8.2259,8.319,8.4052,8.4777,8.5294,8.5439,8.5444,8.5275,8.5241,8.5063,8.4415,8.4039,8.3968,8.4239,8.3934,8.3287,8.4167,8.3828,8.2678,8.393,8.3964,8.3118,8.4031,8.4606,8.4708,8.5114,8.5351,8.5486,8.5858,8.6095,8.6095,8.6095,8.623,8.6467,8.6501,8.6636,8.6907,8.6907,8.6636,8.6163,8.6095,8.6095,8.6061,8.6095,8.6095,8.6095,8.6095,8.6095,8.6061,8.5858,8.5587,8.5351,8.5283,8.5283,8.5283,8.5283,8.5283,8.5283,8.5283,8.5067,8.49,8.4265,8.3384,8.2247,8.0994,7.9731,7.8139,7.7401,7.7016,7.6923,7.64,7.5723,7.5046,7.4184,7.3383,7.2768,7.2368,7.2368,7.246,7.2614,7.2706,7.2922,7.2983,7.2983,7.2983,7.2983,7.2983,7.2983,7.2983,7.2983,7.2983,7.2983,7.2859,7.2889,7.2856,7.3068,7.3496,7.434,7.5164,7.5764,7.6227,7.6637,7.6981,7.6914,7.7113,7.7442,7.7502,7.7741,7.831,7.828,7.834,7.7706,7.8568,7.9982,8.1224,8.2293,8.3776,8.4846,8.557,8.6087,8.6194,8.589,8.5686,8.548,8.5202,8.4853,8.4747,8.4747,8.4606,8.42,8.3625,8.4268,8.3964,8.3152,8.4031,8.4234,8.3795,8.4742,8.5351,8.5418,8.5892,8.6129,8.6196,8.667,8.6907,8.6907,8.6907,8.6974,8.7211,8.7245,8.7347,8.755,8.7617,8.7617,8.7617,8.7617,8.7347,8.6941,8.6907,8.6907,8.6907,8.6907,8.6907,8.6907,8.6907,8.6907,8.6907,8.6873,8.6907,8.6907,8.6907,8.6873,8.6907,8.6873,8.6687,8.5805,8.4821,8.3606,8.2043,8.106,7.9701,7.8636,7.7754,7.7262,7.6954,7.6246,7.5538,7.5015,7.4214,7.3506,7.3076,7.2922,7.2952,7.2983,7.2983,7.2983,7.2983,7.2983,7.2983,7.2983,7.2983,7.2983,7.2983,7.2983,7.2983,7.2983,7.2983,7.2983,7.3014,7.2889,7.3353,7.4061,7.4942,7.5885,7.6651,7.7105,7.7577,7.7675,7.7434,7.7622,7.8011,7.816,7.828,7.8579,7.8729,7.8699,7.7741,7.8637,8.0017,8.1535,8.2949,8.4432,8.557,8.6156,8.6294,8.6194,8.589,8.5925,8.5823,8.5479,8.5407,8.5199,8.5196,8.4984,8.4471,8.3862,8.4403,8.437,8.3828,8.4505,8.5182,8.5587,8.6467,8.6805,8.6704,8.6839,8.6907,8.6907,8.7042,8.7177,8.6974,8.7144,8.738,8.7854,8.7989,8.8328,8.897,8.8937,8.8869,8.8937,8.8937,8.8328,8.7076,8.7042,8.711,8.7076,8.7042,8.6941,8.711,8.711,8.7008,8.711,8.7008,8.6974,8.7008,8.7076,8.7177,8.7144,8.7042,8.6185,8.4531,8.3747,8.2642,8.0563,7.98,7.9305,7.9182,7.8524,7.7816,7.7016,7.5907,7.5107,7.4738,7.3814,7.3014,7.2983,7.2983,7.2983,7.2983,7.2983,7.2983,7.2983,7.2983,7.2983,7.2983,7.2983,7.2983,7.2983,7.2983,7.2983,7.2983,7.2983,7.3014,7.3045,7.3014,7.3229,7.4122,7.5071,7.627,7.7059,7.7897,7.8335,7.8478,7.8266,7.825,7.8549,7.8669,7.8639,7.8729,7.8789,7.8789,7.8499,7.9327,8.081,8.1983,8.3052,8.4535,8.5604,8.6294,8.6294,8.6194,8.5959,8.6405,8.644,8.6193,8.6355,8.6486,8.6305,8.6163,8.579,8.5215,8.5317,8.5587,8.5824,8.6061,8.6332,8.6569,8.6805,8.6907,8.7042,8.7414,8.7651,8.7753,8.8158,8.8395,8.8328,8.8429,8.8564,8.87,8.8734,8.8869,8.9072,8.9106,8.9106,8.9106,8.9072,8.8835,8.8429,8.8395,8.8395,8.8361,8.8395,8.8395,8.8395,8.8395,8.8395,8.8395,8.8395,8.8395,8.8395,8.8361,8.8361,8.8361,8.8361,8.7653,8.6191,8.5648,8.4393,8.2188,8.1854,8.1463,8.0119,7.9632,7.8709,7.72,7.5815,7.483,7.4307,7.3506,7.3076,7.2983,7.2983,7.2983,7.2983,7.2983,7.2983,7.2983,7.2983,7.2983,7.2983,7.2983,7.2983,7.2983,7.2983,7.3045,7.3137,7.326,7.3353,7.3414,7.3383,7.3599,7.443,7.5538,7.6708,7.7703,7.8643,7.902,7.9022,7.8979,7.8873,7.8789,7.8759,7.8759,7.8789,7.8789,7.8789,7.9258,8.0051,8.1569,8.2638,8.3466,8.4984,8.5846,8.626,8.6294,8.6265,8.6371,8.6783,8.6953,8.6875,8.7103,8.7199,8.7016,8.6907,8.6805,8.6569,8.6298,8.6501,8.6941,8.7211,8.7313,8.738,8.7583,8.7719,8.7719,8.8158,8.8395,8.8497,8.8869,8.9038,8.9106,8.9106,8.9106,8.9106,8.9072,8.9106,8.9106,8.9106,8.9106,8.9106,8.9106,8.9106,8.9106,8.9106,8.9106,8.9106,8.9106,8.9106,8.9106,8.9072,8.9106,8.9106,8.9072,8.9072,8.9106,8.9004,8.8847,8.8438,8.8324,8.7445,8.6062,8.5603,8.4602,8.2849,8.2182,8.1787,8.0631,7.994,7.9016,7.76,7.6215,7.4922,7.3907,7.326,7.3014,7.2983,7.2983,7.2983,7.2983,7.2983,7.2983,7.2983,7.2983,7.2983,7.2983,7.2983,7.3014,7.3014,7.2983,7.3137,7.3353,7.3537,7.3722,7.3783,7.3845,7.4276,7.4953,7.6369,7.7662,7.8746,7.9681,7.9414,7.9496,7.9272,7.9076,7.8933,7.8789,7.8789,7.8789,7.8789,7.8789,8.0086,8.0914,8.2397,8.3466,8.4225,8.5639,8.626,8.6329,8.6398,8.6676,8.6989,8.7264,8.7433,8.7595,8.7687,8.7647,8.7369,8.7321,8.755,8.7685,8.7414,8.7211,8.7347,8.782,8.8057,8.8158,8.8632,8.8937,8.8835,8.8937,8.9072,8.9004,8.9038,8.9106,8.9106,8.9106,8.9106,8.9106,8.9106,8.9106,8.9106,8.9106,8.9106,8.9106,8.9106,8.9106,8.9106,8.9106,8.9106,8.9106,8.9106,8.9106,8.9106,8.9106,8.9106,8.9106,8.9106,8.9106,8.9072,8.8847,8.8358,8.7445,8.709,8.5972,8.3962,8.3606,8.2982,8.1566,8.1323,8.1186,8.0771,8.0032,7.8924,7.797,7.6431,7.4892,7.3322,7.3014,7.2983,7.3014,7.2983,7.3076,7.3168,7.3199,7.326,7.326,7.3322,7.3383,7.3353,7.3445,7.3199,7.326,7.3476,7.366,7.403,7.4061,7.4307,7.4676,7.4738,7.5107,7.5815,7.7262,7.8616,7.9697,8.0248,7.998,7.9789,7.9505,7.9076,7.8933,7.8789,7.8789,7.8789,7.8789,7.8789,8.1638,8.2466,8.3949,8.4708,8.5018,8.5915,8.6294,8.6398,8.688,8.709,8.7401,8.8329,8.8529,8.8482,8.8777,8.8829,8.854,8.854,8.8564,8.8734,8.8632,8.8531,8.8531,8.8666,8.8767,8.8801,8.8937,8.9072,8.9106,8.9106,8.9106,8.9106,8.9106,8.9106,8.9106,8.9106,8.9106,8.9106,8.9106,8.9106,8.9106,8.9106,8.9106,8.9106,8.9106,8.9106,8.9106,8.9106,8.9106,8.9106,8.9106,8.9106,8.9106,8.9106,8.9106,8.9106,8.9106,8.9106,8.8959,8.8209,8.7562,8.709,8.6216,8.4854,8.3345,8.3114,8.2481,8.1461,8.1048,8.1048,8.0925,8.0248,7.9078,7.7385,7.5815,7.4338,7.3383,7.2983,7.2983,7.3014,7.3445,7.3691,7.3814,7.4061,7.4338,7.4368,7.4338,7.4338,7.4184,7.4214,7.4122,7.4368,7.4584,7.4615,7.4707,7.4707,7.4953,7.5507,7.5784,7.6031,7.6985,7.8278,7.954,8.0664,8.0618,8.0322,7.993,7.9647,7.922,7.8933,7.8789,7.8789,7.8789,7.8789,7.8789,8.319,8.3949,8.4846,8.5363,8.5708,8.6122,8.6294,8.6432,8.7087,8.7503,8.7882,8.8634,8.9141,8.9124,8.9203,8.9295,8.9072,8.9106,8.9072,8.9072,8.9038,8.9038,8.9072,8.9072,8.9106,8.9106,8.9106,8.9106,8.9106,8.9106,8.9106,8.9106,8.9106,8.9106,8.9106,8.9106,8.9106,8.9106,8.9106,8.9106,8.9106,8.9106,8.9106,8.9106,8.9106,8.9106,8.9106,8.9106,8.9106,8.9106,8.9106,8.9106,8.9106,8.9106,8.9106,8.9106,8.9106,8.9106,8.8959,8.8324,8.7445,8.6459,8.548,8.4219,8.2717,8.2213,8.1839,8.1186,8.1048,8.0925,8.0555,7.9817,7.8462,7.6831,7.5538,7.4553,7.3907,7.3876,7.3845,7.3937,7.4153,7.443,7.4399,7.4799,7.4953,7.4984,7.4861,7.4892,7.4892,7.5015,7.5107,7.5199,7.523,7.5169,7.5323,7.5415,7.5692,7.6246,7.6954,7.7169,7.797,7.9139,8.0001,8.0832,8.0679,8.0632,8.0212,7.9759,7.9363,7.9076,7.8933,7.8789,7.8789,7.8789,7.8789,8.4535,8.519,8.5294,8.5708,8.6225,8.6294,8.6398,8.657,8.7294,8.7916,8.8328,8.873,8.9233,8.9517,8.9261,8.9072,8.9106,8.9106,8.9106,8.9106,8.9106,8.9106,8.9106,8.9106,8.9106,8.9106,8.9106,8.9106,8.9106,8.9106,8.9106,8.9106,8.9106,8.9106,8.9106,8.9106,8.9106,8.9106,8.9106,8.9106,8.9106,8.9106,8.9106,8.9106,8.9106,8.9106,8.9106,8.9106,8.9106,8.9106,8.9106,8.9106,8.9106,8.9106,8.9106,8.9106,8.9106,8.9106,8.9072,8.87,8.7829,8.5972,8.5231,8.3962,8.2078,8.1597,8.1186,8.1079,8.1048,8.0709,7.9971,7.8832,7.7724,7.6615,7.6123,7.5815,7.5353,7.5107,7.5015,7.5046,7.5015,7.5107,7.5107,7.5169,7.5261,7.5754,7.5661,7.5692,7.5692,7.5723,7.5692,7.56,7.56,7.56,7.5846,7.6123,7.6523,7.7016,7.797,7.8493,7.8893,7.9755,8.034,8.0832,8.0848,8.0632,8.0182,7.9759,7.9475,7.922,7.8933,7.8789,7.8789,7.8789,7.8789,8.5052,8.5259,8.5811,8.6156,8.6294,8.6329,8.6639,8.7225,8.7984,8.8674,8.9259,8.9625,8.9785,8.9881,8.9295,8.9106,8.9106,8.9106,8.9106,8.9106,8.9106,8.9106,8.9106,8.9106,8.9106,8.9106,8.9106,8.9106,8.9106,8.9106,8.9106,8.9106,8.9106,8.9106,8.9106,8.9106,8.9106,8.9106,8.9106,8.9106,8.9106,8.9106,8.9106,8.9106,8.9106,8.9106,8.9106,8.9106,8.9106,8.9106,8.9106,8.9106,8.9106,8.9106,8.9106,8.9106,8.9106,8.9106,8.8959,8.8209,8.7327,8.6612,8.4854,8.3345,8.2849,8.1597,8.1186,8.1048,8.1048,8.0555,7.9509,7.8585,7.7662,7.6923,7.6708,7.6677,7.6431,7.5661,7.5199,7.5199,7.5507,7.5815,7.5846,7.6246,7.64,7.6523,7.6523,7.6554,7.6492,7.64,7.6308,7.6154,7.6215,7.6215,7.6308,7.6615,7.6923,7.7447,7.8401,7.9293,7.9694,8.0217,8.0709,8.0925,8.1017,8.0771,8.0352,8.0041,7.9759,7.9332,7.9076,7.8933,7.8933,7.8789,7.8789,8.5708,8.5777,8.6156,8.6294,8.6294,8.6329,8.6742,8.7467,8.826,8.9019,8.9639,8.9899,8.999,8.999,8.9407,8.9106,8.9106,8.9106,8.9106,8.9106,8.9106,8.9106,8.9106,8.9106,8.9106,8.9106,8.9106,8.9106,8.9106,8.9106,8.9106,8.9106,8.9106,8.9106,8.9106,8.9106,8.9106,8.9106,8.9106,8.9106,8.9106,8.9106,8.9106,8.9106,8.9106,8.9106,8.9106,8.9106,8.9106,8.9106,8.9106,8.9106,8.9106,8.9106,8.9106,8.9106,8.9106,8.9106,8.8847,8.8472,8.7829,8.709,8.5106,8.3994,8.2982,8.1839,8.1186,8.1048,8.0956,8.0525,7.9232,7.8062,7.7416,7.7169,7.7016,7.7016,7.6892,7.6369,7.5938,7.6,7.6308,7.6431,7.6646,7.6862,7.6892,7.6769,7.6769,7.68,7.6831,7.6739,7.6831,7.6769,7.6862,7.6892,7.6892,7.7046,7.7231,7.7785,7.8524,7.9293,7.9878,8.0432,8.1017,8.1048,8.1048,8.091,8.0492,8.0182,7.99,7.9617,7.9363,7.9076,7.8933,7.8933,7.8789,8.6294,8.6294,8.6294,8.6294,8.6294,8.6329,8.6811,8.7674,8.8295,8.9122,8.9777,8.9967,8.999,8.9881,8.9329,8.9072,8.9106,8.9106,8.9106,8.9106,8.9106,8.9106,8.9106,8.9106,8.9106,8.9106,8.9106,8.9106,8.9106,8.9106,8.9106,8.9106,8.9106,8.9106,8.9106,8.9106,8.9106,8.9106,8.9106,8.9106,8.9106,8.9106,8.9106,8.9106,8.9106,8.9106,8.9106,8.9106,8.9106,8.9106,8.9106,8.9106,8.9106,8.9106,8.9106,8.9106,8.9106,8.9106,8.9106,8.8959,8.8438,8.7327,8.6216,8.4854,8.3606,8.2347,8.1597,8.1063,8.074,8.0094,7.9016,7.7877,7.72,7.7016,7.7016,7.7016,7.7016,7.7016,7.6892,7.6892,7.6769,7.68,7.6862,7.6985,7.7016,7.7016,7.7016,7.7016,7.7016,7.7016,7.7016,7.7016,7.7016,7.7016,7.7016,7.7108,7.7323,7.8062,7.8739,7.9386,8.0063,8.0617,8.1048,8.1048,8.1048,8.091,8.0632,8.0352,8.0041,7.99,7.9505,7.922,7.9076,7.8933,7.8933,8.6294,8.6294,8.6294,8.6294,8.6294,8.6294,8.7087,8.8295,8.8501,8.9398,9.0431,9.0138,8.999,8.9881,8.9407,8.9072,8.9072,8.9106,8.9106,8.9106,8.9106,8.9106,8.9106,8.9106,8.9106,8.9106,8.9106,8.9106,8.9106,8.9106,8.9106,8.9106,8.9106,8.9106,8.9106,8.9106,8.9106,8.9106,8.9106,8.9106,8.9106,8.9106,8.9106,8.9106,8.9106,8.9106,8.9106,8.9106,8.9106,8.9106,8.9106,8.9106,8.9106,8.9106,8.9106,8.9106,8.9106,8.9106,8.9106,8.9072,8.8959,8.8472,8.7445,8.6095,8.4728,8.3475,8.2182,8.0984,8.0063,7.9139,7.8308,7.7508,7.7108,7.7016,7.7016,7.7016,7.7016,7.7016,7.7016,7.7016,7.7016,7.7016,7.7016,7.7016,7.7016,7.7016,7.7016,7.7016,7.7016,7.7016,7.7016,7.7016,7.7016,7.7016,7.7016,7.7108,7.7323,7.8278,7.8986,7.957,8.0217,8.0771,8.1048,8.1048,8.1048,8.1048,8.0771,8.0632,8.0352,8.0212,7.9647,7.922,7.922,7.922,7.8933,8.6294,8.6294,8.6294,8.6294,8.6294,8.6329,8.7191,8.8467,8.8605,8.9433,9.0362,9.0422,9.0207,9.0099,8.9517,8.9295,8.9072,8.9106,8.9106,8.9106,8.9106,8.9106,8.9106,8.9106,8.9106,8.9106,8.9106,8.9106,8.9106,8.9106,8.9106,8.9106,8.9106,8.9106,8.9106,8.9106,8.9106,8.9106,8.9106,8.9106,8.9106,8.9106,8.9106,8.9106,8.9106,8.9106,8.9106,8.9106,8.9106,8.9106,8.9106,8.9106,8.9106,8.9106,8.9106,8.9106,8.9106,8.9106,8.9106,8.9106,8.9072,8.8926,8.7829,8.6579,8.5231,8.3833,8.2325,8.0811,7.9786,7.8801,7.8124,7.7416,7.7077,7.7016,7.7016,7.7016,7.7016,7.7016,7.7016,7.7016,7.7016,7.7016,7.7016,7.7016,7.7016,7.7016,7.7016,7.7016,7.7016,7.7016,7.7016,7.7016,7.7016,7.7016,7.7016,7.7077,7.7323,7.8216,7.8955,7.954,8.0186,8.0679,8.0956,8.1048,8.1048,8.1048,8.091,8.0771,8.0632,8.0492,8.0072,7.9647,7.9505,7.922,7.9076,8.6294,8.6294,8.6294,8.6294,8.6294,8.6294,8.7191,8.8398,8.8605,8.9433,9.0674,9.0529,9.0422,9.0173,8.9847,8.944,8.9184,8.9184,8.9106,8.9106,8.9106,8.9106,8.9106,8.9106,8.9106,8.9106,8.9106,8.9106,8.9106,8.9106,8.9106,8.9106,8.9106,8.9106,8.9106,8.9106,8.9106,8.9106,8.9106,8.9106,8.9106,8.9106,8.9106,8.9106,8.9106,8.9106,8.9106,8.9106,8.9106,8.9106,8.9106,8.9106,8.9106,8.9106,8.9106,8.9106,8.9106,8.9106,8.9106,8.9106,8.9106,8.9072,8.7829,8.6579,8.5073,8.351,8.1901,8.0273,7.9447,7.8678,7.7847,7.7323,7.7077,7.7016,7.7016,7.7016,7.7016,7.7016,7.7016,7.7016,7.7016,7.7016,7.7016,7.7016,7.7016,7.7016,7.7016,7.7016,7.7016,7.7016,7.7016,7.7016,7.7016,7.7016,7.7016,7.7016,7.7385,7.8031,7.8585,7.9078,7.9786,8.0494,8.0709,8.0956,8.1048,8.1048,8.091,8.091,8.0771,8.0492,8.0352,7.99,7.9647,7.9363,7.922,8.6294,8.6294,8.6294,8.6294,8.6294,8.6294,8.7191,8.8501,8.8605,8.9433,9.0812,9.0529,9.0422,9.028,8.9847,8.9517,8.9407,8.9184,8.9072,8.9072,8.9106,8.9106,8.9106,8.9106,8.9106,8.9106,8.9106,8.9106,8.9106,8.9106,8.9106,8.9106,8.9106,8.9106,8.9106,8.9106,8.9106,8.9106,8.9106,8.9106,8.9106,8.9106,8.9106,8.9106,8.9106,8.9106,8.9106,8.9106,8.9106,8.9106,8.9106,8.9106,8.9106,8.9106,8.9106,8.9106,8.9106,8.9106,8.9106,8.9106,8.8959,8.87,8.7829,8.6459,8.4822,8.2692,8.0873,7.9459,7.9078,7.8493,7.7539,7.7139,7.7016,7.7016,7.7016,7.7016,7.7016,7.7016,7.7016,7.7016,7.7016,7.7016,7.7016,7.7016,7.7016,7.7016,7.7016,7.7016,7.7016,7.7016,7.7016,7.7016,7.7016,7.7016,7.7016,7.7016,7.7262,7.7847,7.8247,7.8678,7.9447,8.0186,8.0617,8.0802,8.0956,8.1048,8.1048,8.091,8.091,8.0771,8.0492,8.0072,7.9505,7.9363,7.9363,8.6294,8.6294,8.6294,8.6294,8.6294,8.6294,8.7156,8.8364,8.8605,8.9433,9.0605,9.0707,9.0529,9.0207,8.9956,8.9737,8.9407,8.9295,8.9184,8.9072,8.9072,8.9106,8.9106,8.9106,8.9106,8.9106,8.9106,8.9106,8.9106,8.9106,8.9106,8.9106,8.9106,8.9106,8.9106,8.9106,8.9106,8.9106,8.9106,8.9106,8.9106,8.9106,8.9106,8.9106,8.9106,8.9106,8.9106,8.9106,8.9106,8.9106,8.9106,8.9106,8.9106,8.9106,8.9106,8.9106,8.9106,8.9106,8.9106,8.9106,8.8813,8.8094,8.7327,8.6216,8.4155,8.1972,8.0217,7.9232,7.8709,7.8031,7.7293,7.7046,7.7016,7.7016,7.7016,7.7016,7.7016,7.7016,7.7016,7.7016,7.7016,7.7016,7.7016,7.7016,7.7016,7.7016,7.7016,7.7016,7.7016,7.7016,7.7016,7.7016,7.7016,7.7016,7.7016,7.7016,7.7016,7.7477,7.7908,7.8432,7.9201,7.9817,8.0248,8.0709,8.0986,8.1048,8.1048,8.1048,8.091,8.091,8.0771,8.0352,7.9789,7.9647,7.9475,8.6294,8.6294,8.6294,8.6294,8.6294,8.6122,8.7018,8.8501,8.8329,8.9226,9.0467,9.0707,9.0494,9.0173,9.0173,8.9847,8.9517,8.9407,8.9295,8.9184,8.9072,8.9072,8.9106,8.9106,8.9106,8.9106,8.9106,8.9106,8.9106,8.9106,8.9106,8.9106,8.9106,8.9106,8.9106,8.9106,8.9106,8.9106,8.9106,8.9106,8.9106,8.9106,8.9106,8.9106,8.9106,8.9106,8.9106,8.9106,8.9106,8.9106,8.9106,8.9106,8.9106,8.9106,8.9106,8.9106,8.9106,8.9106,8.9106,8.9072,8.8586,8.7829,8.6459,8.5323,8.2887,8.0978,7.9817,7.917,7.8493,7.7816,7.72,7.7016,7.7016,7.7016,7.7016,7.7016,7.7016,7.7016,7.7016,7.7016,7.7016,7.7016,7.7016,7.7016,7.7016,7.7016,7.7016,7.7016,7.7016,7.7016,7.7016,7.7016,7.7016,7.7016,7.7016,7.7016,7.7016,7.7108,7.757,7.8031,7.8739,7.9386,7.994,8.0402,8.0894,8.1048,8.1048,8.1048,8.1048,8.1048,8.091,8.0632,8.0182,7.99,7.9617,8.6294,8.6294,8.6294,8.626,8.6225,8.5535,8.6536,8.8398,8.7812,8.8812,9.0674,9.0601,9.0601,9.0494,9.0064,8.9956,9.0173,8.9517,8.9295,8.9295,8.9184,8.9106,8.9106,8.9106,8.9106,8.9106,8.9106,8.9106,8.9106,8.9106,8.9106,8.9106,8.9106,8.9106,8.9106,8.9106,8.9106,8.9106,8.9106,8.9106,8.9106,8.9106,8.9106,8.9106,8.9106,8.9106,8.9106,8.9106,8.9106,8.9106,8.9106,8.9106,8.9106,8.9106,8.9106,8.9106,8.9106,8.9106,8.9106,8.8847,8.8847,8.8209,8.6459,8.393,8.1621,8.0675,7.9786,7.9047,7.8247,7.7693,7.7231,7.7016,7.7016,7.7016,7.7016,7.7016,7.7016,7.7016,7.7016,7.7016,7.7016,7.7016,7.7016,7.7016,7.7016,7.7016,7.7016,7.7016,7.7016,7.7016,7.7016,7.7016,7.7016,7.7016,7.7016,7.7016,7.7016,7.7016,7.7262,7.7662,7.8124,7.8801,7.9632,8.0217,8.0709,8.0894,8.1048,8.1048,8.1048,8.1048,8.091,8.0492,8.0072,7.9647,7.9363,8.6294,8.626,8.5811,8.5639,8.5604,8.5328,8.6225,8.7639,8.757,8.8674,9.0812,9.0707,9.0494,9.0315,9.0388,8.9956,8.9737,8.9737,8.9517,8.9295,8.9184,8.9106,8.9106,8.9106,8.9106,8.9106,8.9106,8.9106,8.9106,8.9106,8.9106,8.9106,8.9106,8.9106,8.9106,8.9106,8.9106,8.9106,8.9106,8.9106,8.9106,8.9106,8.9106,8.9106,8.9106,8.9106,8.9106,8.9106,8.9106,8.9106,8.9106,8.9106,8.9106,8.9106,8.9106,8.9106,8.9106,8.9106,8.8847,8.8324,8.7209,8.5198,8.3704,8.2057,8.0723,7.9909,7.9201,7.8493,7.7847,7.7323,7.7139,7.7016,7.7016,7.7016,7.7016,7.7016,7.7016,7.7016,7.7016,7.7016,7.7016,7.7016,7.7016,7.7016,7.7016,7.7016,7.7016,7.7016,7.7016,7.7016,7.7016,7.7016,7.7016,7.7016,7.7016,7.7016,7.7016,7.7016,7.7016,7.7385,7.7816,7.8616,7.9386,8.0001,8.0525,8.0832,8.1017,8.1048,8.1048,8.1048,8.0771,8.0352,7.993,7.9363,7.9076,8.6294,8.626,8.5742,8.5535,8.5466,8.4811,8.5639,8.7191,8.7156,8.8501,9.0778,9.0707,9.0494,9.0388,9.0173,9.028,8.9847,8.9771,8.9662,8.944,8.9295,8.9184,8.9072,8.9106,8.9106,8.9106,8.9106,8.9106,8.9106,8.9106,8.9106,8.9106,8.9106,8.9106,8.9106,8.9106,8.9106,8.9106,8.9106,8.9106,8.9106,8.9106,8.9106,8.9106,8.9106,8.9106,8.9106,8.9106,8.9106,8.9106,8.9106,8.9106,8.9106,8.9106,8.9106,8.9106,8.9106,8.9106,8.87,8.7712,8.5972,8.3994,8.2849,8.1497,8.0261,7.9478,7.8893,7.8154,7.7477,7.7016,7.7016,7.7016,7.7016,7.7016,7.7016,7.7016,7.7016,7.7016,7.7016,7.7016,7.7016,7.7016,7.7016,7.7016,7.7016,7.7016,7.7016,7.7016,7.7016,7.7016,7.7016,7.7016,7.7016,7.7016,7.7016,7.7016,7.7016,7.7016,7.7046,7.7169,7.7662,7.8432,7.9047,7.954,8.0094,8.0709,8.0956,8.1048,8.1048,8.1048,8.0771,8.0352,7.993,7.9505,7.922,8.6294,8.6294,8.6225,8.6225,8.5984,8.3914,8.4777,8.7225,8.7087,8.8295,9.0674,9.0601,9.0601,9.0494,9.0173,9.0064,9.028,8.9847,8.9662,8.9771,8.9662,8.944,8.9184,8.9184,8.9184,8.9072,8.9106,8.9106,8.9106,8.9106,8.9106,8.9106,8.9106,8.9106,8.9106,8.9106,8.9106,8.9106,8.9106,8.9106,8.9106,8.9106,8.9106,8.9106,8.9106,8.9106,8.9106,8.9106,8.9106,8.9106,8.9106,8.9106,8.9106,8.9106,8.9106,8.9106,8.9106,8.9072,8.8813,8.7712,8.548,8.3245,8.2213,8.1601,8.0366,7.9447,7.8709,7.7908,7.7354,7.7077,7.7016,7.7016,7.7016,7.7016,7.7016,7.7016,7.7016,7.7016,7.7016,7.7016,7.7016,7.7016,7.7016,7.7016,7.7016,7.7016,7.7016,7.7016,7.7016,7.7016,7.7016,7.7016,7.7016,7.7016,7.7016,7.7016,7.7016,7.7016,7.7046,7.7139,7.7385,7.7908,7.8493,7.9078,7.9786,8.0494,8.0832,8.1048,8.1048,8.1048,8.0771,8.0492,8.0072,7.9647,7.9363,8.6294,8.626,8.5777,8.5846,8.6156,8.5535,8.6087,8.7501,8.8708,8.9881,9.064,9.0707,9.0601,9.0494,9.0494,9.028,9.0207,9.0388,9.0207,9.0024,8.9881,8.9662,8.9407,8.9295,8.9295,8.9184,8.9106,8.9106,8.9106,8.9106,8.9106,8.9106,8.9106,8.9106,8.9106,8.9106,8.9106,8.9106,8.9106,8.9106,8.9106,8.9106,8.9106,8.9106,8.9106,8.9106,8.9106,8.9106,8.9106,8.9106,8.9106,8.9106,8.9106,8.9106,8.9072,8.9072,8.8959,8.8094,8.6819,8.5106,8.3704,8.2481,8.1745,8.1175,7.9601,7.9293,7.8493,7.7693,7.7231,7.7016,7.7016,7.7016,7.7016,7.7016,7.7016,7.7016,7.7016,7.7016,7.7016,7.7016,7.7016,7.7016,7.7016,7.7016,7.7016,7.7016,7.7016,7.7016,7.7016,7.7016,7.7016,7.7016,7.7016,7.7016,7.7016,7.7016,7.7139,7.72,7.7108,7.7046,7.7323,7.7693,7.8278,7.9016,7.9694,8.0309,8.074,8.1048,8.1048,8.1048,8.091,8.0492,8.0041,7.9759,7.9617,8.6294,8.626,8.5777,8.6018,8.6536,8.6156,8.6605,8.795,8.964,9.0571,9.0743,9.0812,9.0707,9.0601,9.0601,9.0601,9.0315,9.0315,9.0422,9.0099,9.0099,8.9881,8.9628,8.9517,8.9295,8.9184,8.9072,8.9106,8.9106,8.9106,8.9106,8.9106,8.9106,8.9106,8.9106,8.9106,8.9106,8.9106,8.9106,8.9106,8.9106,8.9106,8.9106,8.9106,8.9106,8.9106,8.9106,8.9106,8.9106,8.9106,8.9106,8.9106,8.9106,8.9072,8.8847,8.8586,8.7712,8.6579,8.4728,8.3994,8.2717,8.1461,8.0894,8.0217,7.9263,7.8862,7.8124,7.7447,7.7077,7.7016,7.7016,7.7016,7.7016,7.7016,7.7016,7.7016,7.7016,7.7016,7.7016,7.7016,7.7016,7.7016,7.7016,7.7016,7.7016,7.7016,7.7016,7.7016,7.7016,7.7016,7.7016,7.7016,7.7016,7.7016,7.7016,7.7016,7.7169,7.7354,7.7385,7.7385,7.7477,7.7877,7.8432,7.8893,7.9417,8.0001,8.0709,8.1048,8.1048,8.1048,8.1048,8.0632,8.0182,8.0041,7.99,8.6294,8.6294,8.6329,8.6742,8.7122,8.6191,8.6846,8.8708,8.9467,9.0192,9.0812,9.0812,9.0812,9.0707,9.0494,9.0601,9.0707,9.0494,9.0529,9.0422,9.0388,9.0064,8.9737,8.9628,8.9517,8.9295,8.9184,8.9184,8.9106,8.9106,8.9106,8.9106,8.9106,8.9106,8.9106,8.9106,8.9106,8.9106,8.9106,8.9106,8.9106,8.9106,8.9106,8.9106,8.9106,8.9106,8.9106,8.9106,8.9106,8.9106,8.9106,8.9106,8.9106,8.9106,8.8209,8.7209,8.6095,8.4602,8.3606,8.3114,8.2222,8.0939,8.034,7.9755,7.9201,7.8555,7.7847,7.7354,7.7016,7.7016,7.7016,7.7016,7.7016,7.7016,7.7016,7.7016,7.7016,7.7016,7.7016,7.7016,7.7016,7.7016,7.7016,7.7016,7.7016,7.7016,7.7016,7.7016,7.7016,7.7016,7.7016,7.7016,7.7016,7.7016,7.7046,7.7139,7.7385,7.7662,7.8001,7.8062,7.8093,7.8031,7.8432,7.8801,7.9109,7.9724,8.0679,8.1048,8.1048,8.1048,8.1048,8.091,8.0492,8.0322,8.0182,8.6294,8.6363,8.688,8.7225,8.7501,8.8122,8.9122,9.0157,9.0433,9.064,9.0812,9.0812,9.0812,9.0812,9.0707,9.0707,9.0707,9.0707,9.0707,9.0707,9.0601,9.0388,9.0173,9.0064,8.9737,8.9517,8.9295,8.9184,8.9072,8.9106,8.9106,8.9106,8.9106,8.9106,8.9106,8.9106,8.9106,8.9106,8.9106,8.9106,8.9106,8.9106,8.9106,8.9106,8.9106,8.9106,8.9106,8.9106,8.9106,8.9106,8.9106,8.9106,8.9106,8.9072,8.8438,8.709,8.5231,8.3507,8.2982,8.2213,8.1411,8.0508,7.9786,7.9417,7.8924,7.837,7.7693,7.7262,7.7016,7.7016,7.7016,7.7016,7.7016,7.7016,7.7016,7.7016,7.7016,7.7016,7.7016,7.7016,7.7016,7.7016,7.7016,7.7016,7.7016,7.7016,7.7016,7.7016,7.7016,7.7016,7.7016,7.7016,7.7046,7.7046,7.7293,7.7416,7.7693,7.8001,7.8432,7.8585,7.8278,7.8247,7.8462,7.8924,7.9509,8.0155,8.0894,8.1048,8.1048,8.1048,8.1048,8.1079,8.094,8.0771,8.0601,8.6467,8.6777,8.7225,8.7743,8.8467,8.9605,9.0433,9.0778,9.0812,9.0812,9.0812,9.0812,9.0812,9.0812,9.0812,9.0812,9.0812,9.0812,9.0812,9.0812,9.0812,9.0601,9.0529,9.0315,8.9881,8.9628,8.9407,8.9184,8.9072,8.9106,8.9106,8.9106,8.9106,8.9106,8.9106,8.9106,8.9106,8.9106,8.9106,8.9106,8.9106,8.9106,8.9106,8.9106,8.9106,8.9106,8.9106,8.9106,8.9106,8.9106,8.9106,8.9106,8.8959,8.8586,8.7679,8.6216,8.4474,8.2982,8.2182,8.1257,8.0631,8.0001,7.9263,7.877,7.8432,7.7939,7.7477,7.7108,7.7046,7.7016,7.7016,7.7016,7.7016,7.7016,7.7016,7.7016,7.7016,7.7016,7.7016,7.7016,7.7016,7.7016,7.7016,7.7016,7.7016,7.7016,7.7016,7.7016,7.7016,7.7016,7.7016,7.7016,7.7077,7.7108,7.7416,7.7847,7.8308,7.8709,7.9201,7.9201,7.8647,7.8524,7.877,7.9386,8.0155,8.0648,8.1048,8.1048,8.1048,8.1048,8.1048,8.1079,8.1079,8.094,8.0771,8.6811,8.7398,8.7536,8.8501,8.9778,9.0502,9.0778,9.0812,9.0812,9.0812,9.0812,9.0812,9.0812,9.0812,9.0812,9.0812,9.0812,9.0812,9.0812,9.0812,9.0812,9.0707,9.0494,9.0207,9.0099,8.9628,8.9407,8.9295,8.9184,8.9106,8.9106,8.9106,8.9106,8.9106,8.9106,8.9106,8.9106,8.9106,8.9106,8.9106,8.9106,8.9106,8.9106,8.9106,8.9106,8.9106,8.9106,8.9106,8.9106,8.9106,8.9106,8.9106,8.87,8.7945,8.6699,8.5355,8.3994,8.2584,8.1548,8.0723,8.0186,7.9601,7.8832,7.8247,7.7847,7.757,7.7169,7.7077,7.7046,7.7016,7.7016,7.7016,7.7016,7.7016,7.7016,7.7016,7.7016,7.7016,7.7016,7.7016,7.7016,7.7016,7.7016,7.7016,7.7016,7.7016,7.7016,7.7016,7.7046,7.7046,7.7108,7.7139,7.7293,7.7477,7.7816,7.8308,7.8955,7.9478,7.9909,7.9663,7.8986,7.8924,7.9078,7.9601,8.0155,8.0709,8.1048,8.1048,8.1048,8.1048,8.1048,8.1048,8.1048,8.1079,8.1048,8.726,8.7536,8.8674,8.9709,9.0502,9.0709,9.0812,9.0812,9.0812,9.0812,9.0812,9.0812,9.0812,9.0812,9.0812,9.0812,9.0812,9.0812,9.0812,9.0812,9.0812,9.0812,9.0707,9.0494,9.0422,9.0207,8.9881,8.944,8.9184,8.9106,8.9106,8.9106,8.9106,8.9106,8.9106,8.9106,8.9106,8.9106,8.9106,8.9106,8.9106,8.9106,8.9106,8.9106,8.9106,8.9106,8.9106,8.9106,8.9106,8.9106,8.9106,8.9106,8.9072,8.7829,8.6459,8.5231,8.3994,8.2685,8.1423,8.0477,7.9847,7.9232,7.8524,7.7877,7.7416,7.7139,7.7016,7.7016,7.7016,7.7016,7.7016,7.7016,7.7016,7.7016,7.7016,7.7016,7.7016,7.7016,7.7016,7.7016,7.7016,7.7016,7.7016,7.7016,7.7016,7.7016,7.7016,7.7046,7.7108,7.7139,7.7323,7.7416,7.7693,7.7908,7.8308,7.877,7.9417,7.9909,8.034,7.9909,7.9293,7.917,7.9139,7.954,8.0001,8.0648,8.1048,8.1048,8.1048,8.1048,8.1048,8.1048,8.1048,8.1048,8.1048,8.7639,8.8122,8.9536,9.0433,9.0778,9.0812,9.0812,9.0812,9.0812,9.0812,9.0812,9.0812,9.0812,9.0812,9.0812,9.0812,9.0812,9.0812,9.0812,9.0812,9.0812,9.0812,9.0812,9.0707,9.0494,9.0315,8.999,8.9551,8.9218,8.9106,8.9106,8.9106,8.9106,8.9106,8.9106,8.9106,8.9106,8.9106,8.9106,8.9106,8.9106,8.9106,8.9106,8.9106,8.9106,8.9106,8.9106,8.9106,8.9106,8.9106,8.9106,8.9106,8.8959,8.8472,8.7327,8.6095,8.4822,8.3218,8.1815,8.0544,7.949,7.8843,7.8001,7.7293,7.7231,7.7016,7.7016,7.7016,7.7016,7.7016,7.7016,7.7016,7.7016,7.7016,7.7016,7.7016,7.7016,7.7016,7.7016,7.7016,7.7016,7.7016,7.7016,7.7016,7.7016,7.7016,7.7016,7.7323,7.7354,7.7539,7.7631,7.7816,7.8185,7.8678,7.9232,7.954,7.9847,8.0309,8.0709,8.0063,7.9447,7.9232,7.9201,7.9478,7.9971,8.0771,8.1048,8.1048,8.1048,8.1048,8.1048,8.1048,8.1048,8.1048,8.1048,8.8088,8.9019,9.026,9.0812,9.0812,9.0812,9.0812,9.0812,9.0812,9.0812,9.0812,9.0812,9.0812,9.0812,9.0812,9.0812,9.0812,9.0812,9.0812,9.0812,9.0812,9.0812,9.0707,9.0601,9.0494,9.0315,8.9881,8.9551,8.9218,8.9218,8.9106,8.9106,8.9106,8.9106,8.9106,8.9106,8.9106,8.9106,8.9106,8.9106,8.9106,8.9106,8.9106,8.9106,8.9106,8.9106,8.9106,8.9106,8.9106,8.9106,8.9106,8.9106,8.9106,8.8847,8.8094,8.6938,8.5711,8.4212,8.2491,8.0526,7.9507,7.846,7.7517,7.7046,7.7046,7.7016,7.7016,7.7016,7.7016,7.7016,7.7016,7.7016,7.7016,7.7016,7.7016,7.7016,7.7016,7.7016,7.7016,7.7016,7.7016,7.7016,7.7016,7.7016,7.7046,7.7046,7.7262,7.7539,7.7847,7.8154,7.8401,7.8585,7.8893,7.9447,7.994,8.0217,8.0371,8.0525,8.074,8.0124,7.9601,7.9293,7.917,7.9324,7.9909,8.0802,8.1048,8.1048,8.1048,8.1048,8.1048,8.1048,8.1048,8.1048,8.1048,8.9157,9.0398,9.0709,9.0812,9.0812,9.0812,9.0812,9.0812,9.0812,9.0812,9.0812,9.0812,9.0812,9.0812,9.0812,9.0812,9.0812,9.0812,9.0812,9.0812,9.0812,9.0812,9.0812,9.0707,9.0601,9.028,9.0099,8.9771,8.9407,8.9184,8.9106,8.9106,8.9106,8.9106,8.9106,8.9106,8.9106,8.9106,8.9106,8.9106,8.9106,8.9106,8.9106,8.9106,8.9106,8.9106,8.9106,8.9106,8.9106,8.9106,8.9106,8.9106,8.9106,8.9072,8.8472,8.7545,8.6336,8.5122,8.3342,8.0998,7.9695,7.8995,7.8175,7.7046,7.7016,7.7016,7.7016,7.7016,7.7016,7.7016,7.7016,7.7016,7.7016,7.7016,7.7016,7.7016,7.7016,7.7016,7.7016,7.7016,7.7016,7.7016,7.7016,7.7046,7.7077,7.72,7.757,7.7908,7.8339,7.8709,7.9139,7.9386,7.9632,7.9786,8.0094,8.0586,8.0802,8.0894,8.0586,7.9694,7.9201,7.9201,7.917,7.9263,8.0001,8.0925,8.1048,8.1048,8.1048,8.1048,8.1048,8.1048,8.1048,8.1048,8.1048]},{"header":{"parameterUnit":"m.s-1","parameterCategory":1,"la1":31.0,"la2":29.5877,"lo1":-88.7671,"lo2":-86.6584,"dx":0.0162,"dy":0.0185,"nx":115,"ny":88,"refTime":"2022-11-20T18:00:00:Z","depth":0,"parameterNumber":3,"parameterNumberName":"V-component_of_WINDS"},"data":[0.0,0.0,0.0,0.0,0.0,0.0,0.0,0.0,0.0,0.0,0.0,0.0,0.0,0.0,0.0,0.0,0.0,0.0,0.0,0.0,0.0,0.0,0.0,0.0,0.0,0.0,0.0,0.0,0.0,0.0,0.0,0.0,0.0,0.0,0.0,0.0,0.0,0.0,0.0,0.0,0.0,0.0,0.0,0.0,0.0,0.0,0.0,0.0,0.0,0.0,0.0,0.0,0.0,0.0,0.0,0.0,0.0,0.0,0.0,0.0,0.0,0.0,0.0,0.0,0.0,0.0,0.0,0.0,0.0,0.0,0.0,0.0,0.0,0.0,0.0,0.0,0.0,0.0,0.0,0.0,0.0,0.0,0.0,0.0,0.0,0.0,0.0,0.0,0.0,0.0,0.0,0.0,0.0,0.0,0.0,0.0,0.0,0.0,0.0,0.0,0.0,0.0,0.0,0.0,0.0,0.0,0.0,0.0,0.0,0.0,0.0,0.0,0.0,0.0,0.0,0.0,0.0,0.0,0.0,0.0,0.0,0.0,0.0,0.0,0.0,0.0,0.0,0.0,0.0,0.0,0.0,0.0,0.0,0.0,0.0,0.0,0.0,0.0,0.0,0.0,0.0,0.0,0.0,0.0,0.0,0.0,0.0,0.0,0.0,0.0,0.0,0.0,0.0,0.0,0.0,0.0,0.0,0.0,0.0,0.0,0.0,0.0,0.0,0.0,0.0,0.0,0.0,0.0,0.0,0.0,0.0,0.0,0.0,0.0,0.0,0.0,0.0,0.0,0.0,0.0,0.0,0.0,0.0,0.0,0.0,0.0,0.0,0.0,0.0,0.0,0.0,0.0,0.0,0.0,0.0,0.0,0.0,0.0,0.0,0.0,0.0,0.0,0.0,0.0,0.0,0.0,0.0,0.0,0.0,0.0,0.0,0.0,0.0,0.0,0.0,0.0,0.0,0.0,0.0,0.0,0.0,0.0,0.0,0.0,0.0,0.0,0.0,0.0,0.0,0.0,0.0,0.0,0.0,0.0,0.0,0.0,0.0,0.0,0.0,0.0,0.0,0.0,0.0,0.0,0.0,0.0,0.0,0.0,0.0,0.0,0.0,0.0,0.0,0.0,0.0,0.0,0.0,0.0,0.0,0.0,0.0,0.0,0.0,0.0,0.0,0.0,0.0,0.0,0.0,0.0,0.0,0.0,0.0,0.0,0.0,0.0,0.0,0.0,0.0,0.0,0.0,0.0,0.0,0.0,0.0,0.0,0.0,0.0,0.0,0.0,0.0,0.0,0.0,0.0,0.0,0.0,0.0,0.0,0.0,0.0,0.0,0.0,0.0,0.0,0.0,0.0,0.0,0.0,0.0,0.0,0.0,0.0,0.0,0.0,0.0,0.0,0.0,0.0,0.0,0.0,0.0,0.0,0.0,0.0,0.0,0.0,0.0,0.0,0.0,0.0,0.0,0.0,0.0,0.0,0.0,0.0,0.0,0.0,0.0,0.0,0.0,0.0,0.0,0.0,0.0,0.0,0.0,0.0,0.0,0.0,0.0,0.0,0.0,0.0,0.0,0.0,0.0,0.0,0.0,0.0,0.0,0.0,0.0,0.0,0.0,0.0,0.0,0.0,0.0,0.0,0.0,0.0,0.0,0.0,0.0,0.0,0.0,0.0,0.0,0.0,0.0,0.0,0.0,0.0,0.0,0.0,0.0,0.0,0.0,0.0,0.0,0.0,0.0,0.0,0.0,0.0,0.0,0.0,0.0,0.0,0.0,0.0,0.0,0.0,0.0,0.0,0.0,0.0,0.0,0.0,0.0,0.0,0.0,0.0,0.0,0.0,0.0,0.0,0.0,0.0,0.0,0.0,0.0,0.0,0.0,0.0,0.0,0.0,0.0,0.0,0.0,0.0,0.0,0.0,0.0,0.0,0.0,0.0,0.0,0.0,0.0,0.0,0.0,0.0,0.0,0.0,0.0,0.0,0.0,0.0,0.0,0.0,0.0,0.0,0.0,0.0,0.0,0.0,0.0,0.0,0.0,0.0,0.0,0.0,0.0,0.0,0.0,0.0,0.0,0.0,0.0,0.0,0.0,0.0,0.0,0.0,0.0,0.0,0.0,0.0,0.0,0.0,0.0,0.0,0.0,0.0,0.0,0.0,0.0,0.0,0.0,0.0,0.0,0.0,0.0,0.0,0.0,0.0,0.0,0.0,0.0,0.0,0.0,0.0,0.0,0.0,0.0,0.0,0.0,0.0,0.0,0.0,0.0,0.0,0.0,0.0,0.0,0.0,0.0,0.0,0.0,0.0,0.0,0.0,0.0,0.0,0.0,0.0,0.0,0.0,0.0,0.0,0.0,0.0,0.0,0.0,0.0,0.0,0.0,0.0,0.0,0.0,0.0,0.0,0.0,0.0,0.0,0.0,0.0,0.0,0.0,0.0,0.0,0.0,0.0,0.0,0.0,0.0,0.0,0.0,0.0,0.0,0.0,0.0,0.0,0.0,0.0,0.0,0.0,0.0,0.0,0.0,0.0,0.0,0.0,0.0,0.0,0.0,0.0,0.0,0.0,0.0,0.0,0.0,0.0,0.0,0.0,0.0,0.0,0.0,0.0,0.0,0.0,0.0,0.0,0.0,0.0,0.0,0.0,0.0,0.0,0.0,0.0,0.0,0.0,0.0,0.0,0.0,0.0,0.0,0.0,0.0,0.0,0.0,0.0,0.0,0.0,0.0,0.0,0.0,0.0,0.0,0.0,0.0,0.0,0.0,0.0,0.0,0.0,0.0,0.0,0.0,0.0,0.0,0.0,0.0,0.0,0.0,0.0,0.0,0.0,0.0,0.0,0.0,0.0,0.0,0.0,0.0,0.0,0.0,0.0,0.0,0.0,0.0,0.0,0.0,0.0,0.0,0.0,0.0,0.0,0.0,0.0,0.0,0.0,0.0,0.0,0.0,0.0,0.0,0.0,0.0,0.0,0.0,0.0,0.0,0.0,0.0,0.0,0.0,0.0,0.0,0.0,0.0,0.0,0.0,0.0,0.0,0.0,0.0,0.0,0.0,0.0,0.0,0.0,0.0,0.0,0.0,0.0,0.0,0.0,0.0,0.0,0.0,0.0,0.0,0.0,0.0,0.0,0.0,0.0,0.0,0.0,0.0,0.0,0.0,0.0,0.0,0.0,0.0,0.0,0.0,0.0,0.0,0.0,0.0,0.0,0.0,0.0,0.0,0.0,0.0,0.0,0.0,0.0,0.0,0.0,0.0,0.0,0.0,0.0,0.0,0.0,0.0,0.0,0.0,0.0,0.0,0.0,0.0,0.0,0.0,0.0,0.0,0.0,0.0,0.0,0.0,0.0,0.0,0.0,0.0,0.0,0.0,0.0,0.0,0.0,0.0,0.0,0.0,0.0,0.0,0.0,0.0,0.0,0.0,0.0,0.0,0.0,0.0,0.0,0.0,0.0,0.0,0.0,0.0,0.0,0.0,0.0,0.0,0.0,0.0,0.0,0.0,0.0,0.0,0.0,0.0,0.0,0.0,0.0,0.0,0.0,0.0,0.0,0.0,0.0,0.0,0.0,0.0,0.0,0.0,0.0,0.0,0.0,0.0,0.0,0.0,0.0,0.0,0.0,0.0,0.0,0.0,0.0,0.0,0.0,0.0,0.0,0.0,0.0,0.0,0.0,0.0,0.0,0.0,0.0,0.0,0.0,0.0,0.0,0.0,0.0,0.0,0.0,0.0,0.0,0.0,0.0,0.0,0.0,0.0,0.0,0.0,0.0,0.0,0.0,0.0,0.0,0.0,0.0,0.0,0.0,0.0,0.0,0.0,0.0,0.0,0.0,0.0,0.0,0.0,0.0,0.0,0.0,0.0,0.0,0.0,0.0,0.0,0.0,0.0,0.0,0.0,0.0,0.0,0.0,0.0,0.0,0.0,0.0,0.0,0.0,0.0,0.0,0.0,0.0,0.0,0.0,0.0,0.0,0.0,0.0,0.0,0.0,0.0,0.0,0.0,0.0,0.0,0.0,0.0,0.0,0.0,0.0,0.0,0.0,0.0,0.0,0.0,0.0,0.0,0.0,0.0,0.0,0.0,0.0,0.0,0.0,0.0,0.0,0.0,0.0,0.0,0.0,0.0,0.0,0.0,0.0,0.0,0.0,0.0,0.0,0.0,0.0,0.0,0.0,0.0,0.0,0.0,0.0,0.0,0.0,0.0,0.0,0.0,0.0,0.0,0.0,0.0,0.0,0.0,-2.4125,0.0,0.0,0.0,-2.4099,0.0,0.0,0.0,0.0,0.0,0.0,0.0,0.0,0.0,0.0,0.0,0.0,0.0,0.0,0.0,0.0,0.0,0.0,0.0,0.0,0.0,0.0,0.0,0.0,0.0,0.0,0.0,0.0,0.0,0.0,0.0,0.0,0.0,0.0,0.0,0.0,0.0,0.0,0.0,0.0,0.0,0.0,0.0,0.0,0.0,0.0,0.0,0.0,0.0,0.0,0.0,0.0,0.0,0.0,0.0,0.0,0.0,0.0,0.0,0.0,0.0,0.0,0.0,0.0,0.0,0.0,0.0,0.0,0.0,0.0,0.0,0.0,0.0,0.0,0.0,0.0,0.0,0.0,0.0,0.0,0.0,0.0,0.0,0.0,0.0,0.0,0.0,0.0,0.0,0.0,0.0,0.0,0.0,0.0,0.0,0.0,0.0,0.0,0.0,0.0,0.0,0.0,0.0,0.0,0.0,0.0,0.0,0.0,0.0,0.0,-2.4008,-2.4008,-2.4067,-2.4125,-2.4099,0.0,0.0,0.0,0.0,0.0,0.0,0.0,0.0,0.0,0.0,0.0,0.0,0.0,0.0,0.0,0.0,0.0,0.0,0.0,0.0,0.0,0.0,0.0,0.0,0.0,0.0,0.0,0.0,0.0,0.0,0.0,0.0,0.0,0.0,0.0,0.0,0.0,0.0,0.0,0.0,0.0,0.0,0.0,0.0,0.0,0.0,0.0,0.0,0.0,0.0,0.0,0.0,0.0,0.0,0.0,0.0,0.0,0.0,0.0,0.0,0.0,0.0,0.0,0.0,0.0,0.0,0.0,0.0,0.0,0.0,0.0,0.0,0.0,0.0,0.0,0.0,0.0,0.0,0.0,0.0,0.0,0.0,0.0,0.0,0.0,0.0,0.0,0.0,0.0,0.0,0.0,0.0,0.0,0.0,0.0,0.0,0.0,0.0,0.0,0.0,0.0,0.0,0.0,0.0,0.0,0.0,0.0,0.0,0.0,0.0,0.0,0.0,-2.3923,-2.3878,-2.365,0.0,0.0,0.0,0.0,0.0,0.0,0.0,0.0,0.0,0.0,0.0,0.0,0.0,0.0,0.0,0.0,0.0,0.0,0.0,0.0,0.0,0.0,0.0,0.0,0.0,0.0,0.0,0.0,0.0,0.0,0.0,0.0,0.0,0.0,0.0,0.0,0.0,0.0,0.0,0.0,0.0,0.0,0.0,0.0,0.0,0.0,0.0,0.0,0.0,0.0,0.0,0.0,0.0,0.0,0.0,0.0,0.0,0.0,0.0,0.0,0.0,0.0,0.0,0.0,0.0,0.0,0.0,0.0,0.0,0.0,0.0,0.0,0.0,0.0,0.0,0.0,0.0,0.0,0.0,0.0,0.0,0.0,0.0,0.0,0.0,0.0,0.0,0.0,0.0,0.0,0.0,0.0,0.0,0.0,0.0,0.0,0.0,0.0,0.0,0.0,0.0,0.0,0.0,0.0,0.0,0.0,0.0,0.0,0.0,0.0,-2.3628,-2.3628,-2.3628,0.0,-2.2334,0.0,0.0,0.0,0.0,0.0,0.0,0.0,0.0,0.0,0.0,0.0,0.0,0.0,0.0,0.0,0.0,0.0,0.0,0.0,0.0,0.0,0.0,0.0,0.0,0.0,0.0,0.0,0.0,0.0,0.0,0.0,0.0,0.0,0.0,0.0,0.0,0.0,0.0,0.0,0.0,0.0,0.0,0.0,0.0,0.0,0.0,0.0,0.0,0.0,0.0,0.0,0.0,0.0,0.0,0.0,0.0,0.0,0.0,0.0,0.0,0.0,0.0,0.0,0.0,0.0,0.0,0.0,0.0,0.0,0.0,0.0,0.0,0.0,0.0,0.0,0.0,0.0,0.0,0.0,0.0,0.0,0.0,0.0,0.0,0.0,0.0,0.0,0.0,0.0,0.0,0.0,0.0,0.0,0.0,0.0,0.0,0.0,0.0,0.0,0.0,0.0,0.0,0.0,0.0,0.0,0.0,0.0,0.0,0.0,0.0,-2.345,-2.345,-2.3688,-2.3289,0.0,0.0,0.0,0.0,0.0,0.0,0.0,0.0,0.0,0.0,0.0,0.0,0.0,0.0,0.0,0.0,0.0,0.0,0.0,0.0,0.0,0.0,0.0,0.0,0.0,0.0,0.0,0.0,0.0,0.0,0.0,0.0,0.0,0.0,0.0,0.0,0.0,0.0,0.0,0.0,0.0,0.0,0.0,0.0,0.0,0.0,0.0,0.0,0.0,0.0,0.0,0.0,0.0,0.0,0.0,0.0,0.0,0.0,0.0,0.0,0.0,0.0,0.0,0.0,0.0,0.0,0.0,0.0,0.0,0.0,0.0,0.0,0.0,0.0,0.0,0.0,0.0,0.0,0.0,0.0,0.0,0.0,0.0,0.0,0.0,0.0,0.0,0.0,0.0,0.0,0.0,0.0,0.0,0.0,0.0,0.0,0.0,0.0,0.0,0.0,0.0,0.0,0.0,0.0,0.0,0.0,0.0,0.0,0.0,0.0,-2.3155,-2.3366,-2.3516,-2.3781,-2.3482,-2.2506,0.0,0.0,0.0,0.0,0.0,0.0,0.0,0.0,0.0,0.0,0.0,0.0,0.0,0.0,0.0,0.0,0.0,0.0,0.0,0.0,0.0,0.0,0.0,0.0,0.0,0.0,0.0,0.0,0.0,0.0,0.0,0.0,0.0,0.0,0.0,0.0,0.0,0.0,0.0,0.0,0.0,0.0,0.0,0.0,0.0,0.0,0.0,0.0,0.0,0.0,0.0,0.0,0.0,0.0,0.0,0.0,0.0,0.0,0.0,0.0,0.0,0.0,0.0,0.0,0.0,0.0,0.0,0.0,0.0,0.0,0.0,0.0,0.0,0.0,0.0,0.0,0.0,0.0,0.0,0.0,0.0,0.0,0.0,0.0,0.0,0.0,0.0,0.0,0.0,0.0,0.0,0.0,0.0,0.0,0.0,0.0,0.0,0.0,0.0,0.0,0.0,0.0,0.0,0.0,0.0,0.0,0.0,0.0,-2.2506,-2.2907,-2.3329,-2.3855,-2.3977,-2.3801,0.0,0.0,0.0,0.0,0.0,0.0,0.0,0.0,0.0,0.0,0.0,0.0,0.0,0.0,0.0,0.0,0.0,0.0,0.0,0.0,0.0,0.0,0.0,0.0,0.0,0.0,0.0,0.0,0.0,0.0,0.0,0.0,0.0,0.0,0.0,0.0,0.0,0.0,0.0,0.0,0.0,0.0,0.0,0.0,0.0,0.0,0.0,0.0,0.0,0.0,0.0,0.0,0.0,0.0,0.0,0.0,0.0,0.0,0.0,0.0,0.0,0.0,0.0,0.0,0.0,0.0,0.0,0.0,0.0,0.0,0.0,0.0,0.0,0.0,0.0,0.0,0.0,0.0,0.0,0.0,0.0,0.0,0.0,0.0,0.0,0.0,0.0,0.0,0.0,0.0,0.0,0.0,0.0,0.0,0.0,0.0,0.0,0.0,0.0,0.0,0.0,0.0,0.0,0.0,0.0,0.0,0.0,0.0,0.0,-2.263,-2.268,-2.2901,-2.3199,-2.3651,-2.3335,0.0,0.0,0.0,0.0,0.0,0.0,0.0,0.0,0.0,0.0,0.0,0.0,0.0,0.0,0.0,0.0,0.0,0.0,0.0,0.0,0.0,0.0,0.0,0.0,0.0,0.0,0.0,0.0,0.0,0.0,0.0,0.0,0.0,0.0,0.0,0.0,0.0,0.0,0.0,0.0,0.0,0.0,0.0,0.0,0.0,0.0,0.0,0.0,0.0,0.0,0.0,0.0,0.0,0.0,0.0,0.0,0.0,0.0,0.0,0.0,0.0,0.0,0.0,0.0,0.0,0.0,0.0,0.0,0.0,0.0,0.0,0.0,0.0,0.0,0.0,0.0,0.0,0.0,0.0,0.0,0.0,0.0,0.0,0.0,0.0,0.0,0.0,0.0,0.0,0.0,0.0,0.0,0.0,0.0,0.0,0.0,0.0,0.0,0.0,0.0,0.0,0.0,0.0,0.0,0.0,0.0,0.0,0.0,0.0,-2.3242,-2.2937,-2.2908,-2.3345,-2.3975,-2.3747,0.0,0.0,0.0,0.0,0.0,0.0,0.0,0.0,0.0,0.0,0.0,0.0,0.0,0.0,0.0,0.0,0.0,0.0,0.0,0.0,0.0,0.0,0.0,0.0,0.0,0.0,0.0,0.0,0.0,0.0,0.0,0.0,0.0,0.0,0.0,0.0,0.0,0.0,0.0,0.0,0.0,0.0,0.0,0.0,0.0,0.0,0.0,0.0,0.0,0.0,0.0,0.0,0.0,0.0,0.0,0.0,0.0,0.0,0.0,0.0,0.0,0.0,0.0,0.0,0.0,0.0,0.0,0.0,0.0,0.0,0.0,0.0,0.0,0.0,0.0,0.0,0.0,0.0,0.0,0.0,0.0,0.0,0.0,0.0,0.0,0.0,0.0,0.0,0.0,0.0,0.0,0.0,0.0,0.0,0.0,0.0,0.0,0.0,0.0,0.0,0.0,0.0,0.0,0.0,0.0,0.0,0.0,0.0,-2.4067,-2.4255,-2.3548,-2.3621,-2.4547,-2.4835,-2.504,0.0,0.0,0.0,0.0,0.0,0.0,0.0,0.0,0.0,0.0,0.0,0.0,0.0,0.0,0.0,0.0,0.0,0.0,0.0,0.0,0.0,0.0,0.0,0.0,0.0,0.0,0.0,0.0,0.0,0.0,0.0,0.0,0.0,0.0,0.0,0.0,0.0,0.0,0.0,0.0,0.0,0.0,0.0,0.0,0.0,0.0,0.0,0.0,0.0,0.0,0.0,0.0,0.0,0.0,0.0,0.0,0.0,0.0,0.0,0.0,0.0,0.0,0.0,0.0,0.0,0.0,0.0,0.0,0.0,0.0,0.0,0.0,0.0,0.0,0.0,0.0,0.0,0.0,0.0,0.0,0.0,0.0,0.0,0.0,0.0,0.0,0.0,0.0,0.0,0.0,0.0,0.0,0.0,0.0,0.0,0.0,0.0,0.0,0.0,0.0,0.0,0.0,0.0,0.0,0.0,0.0,0.0,0.0,0.0,-2.3497,-2.3251,-2.343,-2.3844,-2.4018,-2.381,0.0,0.0,0.0,0.0,0.0,0.0,0.0,0.0,0.0,0.0,0.0,0.0,0.0,0.0,0.0,0.0,0.0,0.0,0.0,0.0,0.0,0.0,0.0,0.0,0.0,0.0,0.0,0.0,0.0,0.0,0.0,0.0,0.0,0.0,0.0,0.0,0.0,0.0,0.0,0.0,0.0,0.0,0.0,0.0,0.0,0.0,0.0,0.0,0.0,0.0,0.0,0.0,0.0,0.0,0.0,0.0,0.0,0.0,0.0,0.0,0.0,0.0,0.0,0.0,0.0,0.0,0.0,0.0,0.0,0.0,0.0,0.0,0.0,0.0,0.0,0.0,0.0,0.0,0.0,0.0,0.0,0.0,0.0,0.0,0.0,0.0,0.0,0.0,0.0,0.0,0.0,0.0,0.0,0.0,0.0,0.0,0.0,0.0,0.0,0.0,0.0,0.0,0.0,0.0,0.0,0.0,0.0,0.0,0.0,-2.3998,-2.4054,-2.4196,-2.4447,-2.4548,-2.4227,-2.3479,0.0,0.0,0.0,0.0,0.0,0.0,0.0,0.0,0.0,0.0,0.0,0.0,0.0,0.0,0.0,0.0,0.0,0.0,0.0,0.0,0.0,0.0,0.0,0.0,0.0,0.0,0.0,0.0,0.0,0.0,0.0,0.0,0.0,0.0,0.0,0.0,0.0,0.0,0.0,0.0,0.0,0.0,0.0,0.0,0.0,0.0,0.0,0.0,0.0,0.0,0.0,0.0,0.0,0.0,0.0,0.0,0.0,0.0,0.0,0.0,0.0,0.0,0.0,0.0,0.0,0.0,0.0,0.0,0.0,0.0,0.0,0.0,0.0,0.0,0.0,0.0,0.0,0.0,0.0,0.0,0.0,0.0,0.0,0.0,0.0,0.0,0.0,0.0,0.0,0.0,0.0,0.0,0.0,0.0,0.0,0.0,0.0,0.0,0.0,0.0,0.0,0.0,0.0,0.0,0.0,0.0,0.0,0.0,-2.5564,-2.5605,-2.5788,-2.6207,-2.6046,-2.5744,0.0,0.0,0.0,0.0,0.0,0.0,0.0,0.0,0.0,0.0,0.0,0.0,0.0,0.0,0.0,0.0,0.0,0.0,0.0,0.0,0.0,0.0,0.0,0.0,0.0,0.0,0.0,0.0,0.0,0.0,0.0,0.0,0.0,0.0,0.0,0.0,0.0,0.0,0.0,0.0,0.0,0.0,0.0,0.0,0.0,0.0,0.0,0.0,0.0,0.0,0.0,0.0,0.0,0.0,0.0,0.0,0.0,0.0,0.0,0.0,0.0,0.0,0.0,0.0,0.0,0.0,0.0,0.0,0.0,0.0,0.0,0.0,0.0,0.0,0.0,0.0,0.0,0.0,0.0,0.0,0.0,0.0,0.0,0.0,0.0,0.0,0.0,0.0,0.0,0.0,0.0,0.0,0.0,0.0,0.0,0.0,0.0,0.0,0.0,0.0,0.0,0.0,0.0,0.0,0.0,0.0,0.0,0.0,0.0,-2.6693,-2.7082,-2.7003,-2.6335,-2.5911,-2.5529,0.0,0.0,0.0,0.0,0.0,0.0,0.0,0.0,0.0,0.0,0.0,0.0,0.0,0.0,0.0,0.0,0.0,0.0,0.0,0.0,0.0,0.0,0.0,0.0,0.0,0.0,0.0,0.0,0.0,0.0,0.0,0.0,0.0,0.0,0.0,0.0,0.0,0.0,0.0,0.0,0.0,0.0,0.0,0.0,0.0,0.0,0.0,0.0,0.0,0.0,0.0,0.0,0.0,0.0,0.0,0.0,0.0,0.0,0.0,0.0,0.0,0.0,0.0,0.0,0.0,0.0,0.0,0.0,0.0,0.0,0.0,0.0,0.0,0.0,0.0,0.0,0.0,0.0,0.0,0.0,0.0,0.0,0.0,0.0,0.0,0.0,0.0,0.0,0.0,0.0,0.0,0.0,0.0,0.0,0.0,0.0,0.0,0.0,0.0,0.0,0.0,0.0,0.0,0.0,0.0,0.0,0.0,0.0,-2.7138,-2.7965,-2.8608,-2.8416,-2.7498,-2.6657,-2.5982,0.0,0.0,0.0,0.0,0.0,0.0,0.0,0.0,0.0,0.0,0.0,0.0,0.0,0.0,0.0,0.0,0.0,0.0,0.0,0.0,0.0,0.0,0.0,0.0,0.0,0.0,0.0,0.0,0.0,0.0,0.0,0.0,0.0,0.0,0.0,0.0,0.0,0.0,0.0,0.0,0.0,0.0,0.0,0.0,0.0,0.0,0.0,0.0,0.0,0.0,0.0,0.0,0.0,0.0,0.0,0.0,0.0,0.0,0.0,0.0,0.0,0.0,0.0,0.0,0.0,0.0,0.0,0.0,0.0,0.0,0.0,0.0,0.0,0.0,0.0,0.0,0.0,0.0,0.0,0.0,0.0,0.0,0.0,0.0,0.0,0.0,0.0,0.0,0.0,0.0,0.0,0.0,0.0,0.0,0.0,0.0,0.0,0.0,0.0,0.0,0.0,0.0,0.0,0.0,0.0,0.0,0.0,0.0,-2.8605,-2.9166,-2.9793,-2.9824,-2.9043,-2.7898,-2.6871,0.0,0.0,0.0,0.0,0.0,0.0,0.0,0.0,0.0,0.0,0.0,0.0,0.0,0.0,0.0,0.0,0.0,0.0,0.0,0.0,0.0,0.0,0.0,0.0,0.0,0.0,0.0,0.0,0.0,0.0,0.0,0.0,0.0,0.0,0.0,0.0,0.0,0.0,0.0,0.0,0.0,0.0,0.0,0.0,0.0,0.0,0.0,0.0,0.0,0.0,0.0,0.0,0.0,0.0,0.0,0.0,0.0,0.0,0.0,0.0,0.0,0.0,0.0,0.0,0.0,0.0,0.0,0.0,0.0,0.0,0.0,0.0,0.0,0.0,0.0,0.0,0.0,0.0,0.0,0.0,0.0,0.0,0.0,0.0,0.0,0.0,0.0,0.0,0.0,0.0,0.0,0.0,0.0,0.0,0.0,0.0,0.0,0.0,0.0,0.0,0.0,0.0,0.0,0.0,0.0,0.0,0.0,0.0,-2.8461,-2.9829,-3.0108,-3.0117,-2.9922,-2.8794,-2.7723,0.0,0.0,0.0,0.0,0.0,0.0,0.0,0.0,0.0,0.0,0.0,0.0,0.0,0.0,0.0,0.0,0.0,0.0,0.0,0.0,0.0,0.0,0.0,0.0,0.0,0.0,0.0,0.0,0.0,0.0,0.0,0.0,0.0,0.0,0.0,0.0,0.0,0.0,0.0,0.0,0.0,0.0,0.0,0.0,0.0,0.0,0.0,0.0,-2.9126,0.0,0.0,0.0,0.0,0.0,0.0,0.0,0.0,0.0,0.0,0.0,0.0,0.0,0.0,0.0,0.0,0.0,0.0,0.0,0.0,0.0,0.0,0.0,0.0,0.0,0.0,0.0,0.0,0.0,0.0,0.0,0.0,0.0,0.0,0.0,0.0,0.0,0.0,0.0,0.0,0.0,0.0,0.0,0.0,0.0,0.0,0.0,0.0,0.0,0.0,0.0,0.0,0.0,0.0,0.0,0.0,0.0,0.0,0.0,-2.9499,-3.0591,-3.0917,-3.0937,-3.0508,-2.9767,-2.8886,0.0,0.0,0.0,0.0,0.0,0.0,0.0,0.0,0.0,0.0,0.0,0.0,0.0,0.0,0.0,0.0,0.0,0.0,0.0,0.0,0.0,0.0,0.0,0.0,0.0,0.0,0.0,0.0,0.0,0.0,0.0,0.0,0.0,0.0,0.0,0.0,0.0,0.0,0.0,0.0,0.0,0.0,0.0,0.0,0.0,0.0,0.0,0.0,0.0,0.0,0.0,0.0,0.0,0.0,0.0,0.0,0.0,0.0,0.0,0.0,0.0,0.0,0.0,0.0,0.0,0.0,0.0,0.0,0.0,0.0,0.0,0.0,0.0,0.0,0.0,0.0,0.0,0.0,0.0,0.0,0.0,0.0,0.0,0.0,0.0,0.0,0.0,0.0,0.0,0.0,0.0,0.0,0.0,0.0,0.0,0.0,0.0,0.0,0.0,0.0,0.0,0.0,0.0,0.0,0.0,0.0,0.0,-2.95,-3.0737,-3.1386,-3.1976,-3.1894,-3.1113,-3.0817,-2.9978,-2.8289,0.0,0.0,0.0,0.0,0.0,0.0,0.0,0.0,0.0,0.0,0.0,0.0,0.0,0.0,0.0,0.0,0.0,0.0,0.0,0.0,0.0,0.0,0.0,0.0,0.0,0.0,0.0,0.0,0.0,0.0,0.0,0.0,0.0,0.0,0.0,0.0,0.0,0.0,-2.7334,-2.8206,0.0,0.0,0.0,0.0,0.0,0.0,0.0,0.0,-2.9831,0.0,0.0,0.0,0.0,0.0,0.0,0.0,0.0,0.0,0.0,0.0,0.0,0.0,0.0,0.0,0.0,0.0,0.0,0.0,0.0,0.0,0.0,0.0,0.0,0.0,0.0,0.0,0.0,0.0,0.0,0.0,0.0,0.0,0.0,0.0,0.0,0.0,0.0,0.0,0.0,0.0,0.0,0.0,0.0,0.0,0.0,0.0,0.0,0.0,0.0,0.0,0.0,0.0,0.0,0.0,0.0,-2.8267,-2.9715,-3.0903,-3.2035,-3.2441,-3.2461,-3.1973,-3.1407,-3.0465,-2.8971,0.0,0.0,0.0,0.0,0.0,0.0,0.0,0.0,0.0,0.0,0.0,0.0,0.0,0.0,0.0,0.0,0.0,0.0,0.0,0.0,0.0,0.0,0.0,0.0,0.0,0.0,0.0,0.0,0.0,0.0,0.0,0.0,0.0,0.0,0.0,0.0,0.0,0.0,0.0,-2.9731,-3.0262,0.0,0.0,0.0,0.0,0.0,0.0,0.0,0.0,-3.1004,0.0,0.0,0.0,0.0,0.0,0.0,0.0,0.0,0.0,0.0,0.0,0.0,0.0,0.0,0.0,0.0,0.0,0.0,0.0,0.0,0.0,0.0,0.0,0.0,0.0,0.0,0.0,0.0,0.0,0.0,0.0,0.0,0.0,0.0,0.0,0.0,0.0,0.0,0.0,0.0,0.0,0.0,0.0,0.0,0.0,0.0,0.0,0.0,0.0,0.0,0.0,0.0,0.0,0.0,0.0,-2.8405,-3.0238,-3.1543,-3.2148,-3.2793,-3.2812,-3.2187,-3.1761,-3.0844,0.0,0.0,0.0,0.0,0.0,0.0,0.0,0.0,0.0,0.0,0.0,0.0,0.0,0.0,0.0,0.0,0.0,0.0,0.0,0.0,0.0,0.0,0.0,0.0,0.0,0.0,0.0,0.0,0.0,0.0,0.0,0.0,0.0,0.0,0.0,0.0,0.0,0.0,0.0,0.0,-3.1073,-3.1872,-3.3168,0.0,0.0,0.0,0.0,0.0,0.0,-3.2449,-3.1394,0.0,0.0,0.0,0.0,0.0,0.0,0.0,0.0,0.0,0.0,0.0,0.0,0.0,0.0,0.0,0.0,0.0,0.0,0.0,0.0,0.0,0.0,0.0,0.0,0.0,0.0,0.0,0.0,0.0,0.0,0.0,0.0,0.0,0.0,0.0,0.0,0.0,0.0,0.0,0.0,0.0,0.0,0.0,0.0,0.0,0.0,0.0,0.0,0.0,0.0,0.0,0.0,0.0,0.0,0.0,-2.8685,-3.0844,-3.2037,-3.2422,-3.3066,-3.298,-3.2054,-3.1978,-3.0928,0.0,0.0,0.0,0.0,0.0,0.0,0.0,0.0,0.0,0.0,0.0,0.0,0.0,0.0,0.0,0.0,0.0,0.0,0.0,0.0,0.0,0.0,0.0,0.0,0.0,0.0,0.0,0.0,0.0,0.0,0.0,0.0,0.0,0.0,0.0,0.0,0.0,0.0,0.0,0.0,0.0,-3.2885,-3.4311,-3.445,0.0,0.0,0.0,0.0,-3.4329,-3.3047,0.0,0.0,0.0,0.0,0.0,0.0,0.0,0.0,0.0,0.0,0.0,0.0,0.0,0.0,0.0,0.0,0.0,0.0,0.0,0.0,0.0,0.0,0.0,0.0,0.0,0.0,0.0,0.0,0.0,0.0,0.0,0.0,0.0,0.0,0.0,0.0,0.0,0.0,0.0,0.0,0.0,0.0,0.0,0.0,0.0,0.0,0.0,0.0,0.0,0.0,0.0,0.0,0.0,0.0,0.0,0.0,-2.9547,-3.1142,-3.2312,-3.3203,-3.3379,-3.2708,-3.1413,-3.1618,-3.0679,0.0,0.0,0.0,0.0,0.0,0.0,0.0,0.0,0.0,0.0,0.0,0.0,0.0,0.0,0.0,0.0,0.0,0.0,0.0,0.0,0.0,0.0,0.0,0.0,0.0,0.0,0.0,0.0,0.0,0.0,0.0,0.0,0.0,0.0,0.0,0.0,0.0,0.0,0.0,0.0,0.0,-3.2298,-3.3761,-3.4525,-3.4445,0.0,0.0,-3.6232,-3.528,-3.5649,0.0,0.0,0.0,0.0,0.0,0.0,0.0,0.0,0.0,0.0,0.0,0.0,0.0,0.0,0.0,0.0,0.0,0.0,0.0,0.0,0.0,0.0,0.0,0.0,0.0,0.0,0.0,0.0,0.0,0.0,0.0,0.0,0.0,0.0,0.0,0.0,0.0,0.0,0.0,0.0,0.0,0.0,0.0,0.0,0.0,0.0,0.0,0.0,0.0,0.0,0.0,0.0,0.0,0.0,0.0,-2.8287,-2.9728,-3.1465,-3.274,-3.3398,-3.3906,-3.365,-3.2511,-3.2234,-3.1281,0.0,0.0,0.0,0.0,0.0,0.0,0.0,0.0,0.0,0.0,0.0,0.0,0.0,0.0,0.0,0.0,0.0,0.0,0.0,0.0,0.0,0.0,0.0,0.0,0.0,0.0,0.0,0.0,0.0,0.0,0.0,0.0,0.0,0.0,0.0,0.0,0.0,0.0,0.0,0.0,0.0,0.0,-3.4176,-3.5098,0.0,0.0,0.0,-3.6836,-3.6604,0.0,0.0,0.0,0.0,0.0,0.0,0.0,0.0,0.0,0.0,0.0,0.0,0.0,0.0,0.0,0.0,0.0,0.0,0.0,0.0,0.0,0.0,0.0,0.0,0.0,0.0,0.0,0.0,0.0,0.0,0.0,0.0,0.0,0.0,0.0,0.0,0.0,0.0,0.0,0.0,0.0,0.0,0.0,0.0,0.0,0.0,0.0,0.0,0.0,0.0,0.0,0.0,0.0,0.0,0.0,0.0,0.0,-3.0048,-3.184,-3.3105,-3.373,-3.4375,-3.4303,-3.3373,-3.2927,0.0,0.0,0.0,0.0,0.0,0.0,0.0,0.0,0.0,0.0,0.0,0.0,0.0,0.0,0.0,0.0,0.0,0.0,0.0,0.0,0.0,0.0,0.0,0.0,0.0,0.0,0.0,-2.3624,0.0,0.0,0.0,0.0,0.0,0.0,0.0,0.0,0.0,0.0,0.0,0.0,0.0,0.0,-3.3985,-3.4108,-3.5047,-3.5795,0.0,0.0,-3.6835,-3.7417,-3.688,-3.6386,0.0,0.0,0.0,0.0,0.0,0.0,0.0,0.0,0.0,0.0,0.0,0.0,0.0,0.0,0.0,0.0,0.0,0.0,0.0,0.0,0.0,0.0,0.0,0.0,0.0,0.0,0.0,0.0,0.0,0.0,0.0,0.0,0.0,0.0,0.0,0.0,0.0,0.0,0.0,0.0,0.0,0.0,0.0,0.0,0.0,0.0,0.0,0.0,0.0,0.0,0.0,0.0,0.0,0.0,0.0,-3.093,-3.2135,-3.3398,-3.4551,-3.4668,-3.4202,-3.3415,-3.3174,-3.2246,0.0,0.0,0.0,0.0,0.0,0.0,0.0,0.0,0.0,0.0,0.0,0.0,0.0,0.0,0.0,0.0,0.0,0.0,0.0,0.0,0.0,0.0,0.0,0.0,0.0,0.0,0.0,0.0,0.0,0.0,0.0,0.0,0.0,0.0,0.0,0.0,0.0,0.0,0.0,0.0,0.0,-3.3347,-3.2898,-3.3685,-3.4375,0.0,0.0,-3.663,-3.698,-3.766,-3.7596,-3.6333,0.0,0.0,0.0,0.0,0.0,0.0,0.0,0.0,0.0,0.0,0.0,0.0,0.0,0.0,0.0,0.0,0.0,0.0,0.0,0.0,0.0,0.0,0.0,0.0,0.0,0.0,0.0,0.0,0.0,0.0,0.0,0.0,0.0,0.0,0.0,0.0,0.0,0.0,0.0,0.0,0.0,0.0,0.0,0.0,0.0,0.0,0.0,0.0,0.0,0.0,0.0,0.0,0.0,-2.9667,-3.1431,-3.2824,-3.4219,-3.5449,-3.5762,-3.5588,-3.4929,-3.459,-3.3552,0.0,0.0,0.0,0.0,0.0,0.0,0.0,0.0,0.0,0.0,0.0,0.0,0.0,0.0,0.0,0.0,0.0,0.0,0.0,0.0,0.0,0.0,0.0,0.0,0.0,0.0,0.0,0.0,-2.6092,-2.7262,-2.8091,0.0,0.0,0.0,0.0,0.0,0.0,0.0,0.0,0.0,0.0,-3.3658,-3.3612,-3.4232,0.0,0.0,-3.7975,-3.9141,-3.9975,-4.0611,-4.0393,-3.9066,-3.8818,0.0,0.0,0.0,0.0,0.0,0.0,0.0,0.0,0.0,0.0,0.0,0.0,0.0,0.0,0.0,0.0,0.0,0.0,0.0,0.0,0.0,0.0,0.0,0.0,0.0,0.0,0.0,0.0,0.0,0.0,0.0,0.0,0.0,0.0,0.0,0.0,0.0,0.0,0.0,0.0,0.0,0.0,0.0,0.0,0.0,0.0,0.0,0.0,0.0,0.0,0.0,0.0,-3.0008,-3.1269,-3.2768,-3.388,-3.459,-3.5135,-3.5565,-3.5678,-3.5124,-3.4401,0.0,0.0,0.0,0.0,0.0,0.0,0.0,0.0,0.0,0.0,0.0,0.0,0.0,0.0,0.0,0.0,0.0,0.0,0.0,0.0,0.0,0.0,0.0,0.0,0.0,0.0,0.0,0.0,-2.7239,-2.8664,-2.991,0.0,0.0,0.0,0.0,0.0,0.0,0.0,0.0,0.0,0.0,-3.4624,-3.4741,-3.5197,-3.6267,-3.8261,-3.9518,-4.0782,-4.2125,-4.2276,-4.1763,-4.0827,0.0,0.0,0.0,0.0,0.0,0.0,0.0,0.0,0.0,0.0,0.0,0.0,0.0,0.0,0.0,0.0,0.0,0.0,0.0,0.0,0.0,0.0,0.0,0.0,0.0,0.0,0.0,0.0,0.0,0.0,-2.1818,0.0,0.0,0.0,0.0,0.0,0.0,0.0,0.0,0.0,0.0,0.0,0.0,0.0,0.0,0.0,0.0,0.0,0.0,0.0,0.0,0.0,0.0,-3.0309,-3.025,-3.1783,-3.2123,-3.1666,-3.2244,-3.3511,-3.4935,-3.455,-3.4452,-3.504,0.0,0.0,0.0,0.0,0.0,0.0,0.0,0.0,0.0,0.0,0.0,0.0,0.0,0.0,0.0,0.0,0.0,0.0,0.0,0.0,0.0,0.0,0.0,0.0,0.0,0.0,-2.5597,-2.812,-3.0284,0.0,0.0,0.0,0.0,0.0,0.0,0.0,0.0,0.0,0.0,-3.6473,-3.6382,-3.5896,-3.6566,-3.7638,-3.925,-3.9997,-4.0878,-4.2567,-4.189,-4.1076,0.0,0.0,0.0,0.0,0.0,0.0,0.0,0.0,0.0,0.0,0.0,0.0,0.0,0.0,0.0,0.0,0.0,0.0,0.0,0.0,0.0,0.0,0.0,0.0,0.0,0.0,0.0,-2.4974,-2.4775,0.0,0.0,0.0,0.0,0.0,0.0,0.0,0.0,0.0,0.0,0.0,-2.8559,-2.7659,0.0,0.0,0.0,0.0,0.0,0.0,0.0,0.0,0.0,0.0,0.0,0.0,-3.1799,-3.2878,-3.4085,-3.5268,-3.6187,-3.6361,-3.6802,-3.7402,-3.7249,-3.6611,-3.5593,0.0,0.0,0.0,0.0,0.0,0.0,0.0,0.0,0.0,0.0,0.0,0.0,0.0,0.0,0.0,0.0,0.0,0.0,0.0,0.0,0.0,0.0,0.0,0.0,0.0,-2.5957,0.0,0.0,0.0,0.0,0.0,0.0,0.0,0.0,0.0,0.0,0.0,-3.7363,-3.8153,-3.8587,-3.8663,-3.8465,-3.8905,-4.0173,0.0,0.0,0.0,0.0,0.0,0.0,0.0,0.0,0.0,0.0,0.0,0.0,0.0,0.0,-4.0541,-3.8788,-3.8825,-3.9165,-3.9363,0.0,0.0,0.0,0.0,0.0,0.0,0.0,0.0,0.0,0.0,0.0,0.0,0.0,0.0,-2.7339,0.0,-2.7057,0.0,0.0,0.0,0.0,0.0,0.0,0.0,0.0,-2.8726,-2.941,-3.0696,-2.986,-2.9319,0.0,-2.9422,-2.8217,0.0,0.0,0.0,0.0,0.0,0.0,0.0,0.0,-3.2993,-3.3779,-3.495,-3.6066,-3.6788,-3.6829,-3.7293,-3.8035,-3.836,-3.8053,-3.6799,-3.5191,-3.3773,0.0,0.0,0.0,0.0,0.0,0.0,0.0,0.0,0.0,0.0,0.0,0.0,0.0,0.0,0.0,0.0,0.0,0.0,0.0,0.0,0.0,0.0,0.0,-2.8082,0.0,0.0,0.0,0.0,0.0,0.0,0.0,0.0,0.0,-3.7837,-3.8465,-3.93,-4.0571,-4.083,-4.0999,-4.1068,0.0,0.0,0.0,0.0,0.0,0.0,0.0,-4.656,-4.6141,-4.6101,-4.6025,-4.5579,-4.5056,-4.4687,-4.4599,0.0,0.0,-4.2409,-4.2398,-4.2899,-4.3034,-4.2729,-4.2602,-4.3067,-4.3016,-4.3304,0.0,0.0,0.0,0.0,0.0,0.0,0.0,0.0,-2.9073,-2.8971,0.0,-2.9051,0.0,0.0,0.0,0.0,0.0,0.0,0.0,0.0,-3.1028,-3.0756,-3.0473,-3.049,-2.9636,-2.8354,-3.0031,-2.9501,-2.7052,-2.747,0.0,0.0,0.0,0.0,0.0,0.0,-3.3799,-3.3011,-3.4399,-3.4613,-3.3717,-3.3914,-3.4883,-3.6938,-3.8092,-3.8613,-3.8535,-3.6858,-3.5455,-3.4547,-3.2408,0.0,0.0,0.0,0.0,0.0,0.0,0.0,0.0,0.0,0.0,0.0,0.0,0.0,0.0,0.0,0.0,0.0,0.0,0.0,0.0,-2.8817,0.0,0.0,0.0,0.0,0.0,0.0,0.0,0.0,0.0,0.0,-3.9243,-4.0393,-4.1854,-4.3119,0.0,0.0,0.0,0.0,-4.4529,-4.4012,-4.5377,-4.6527,-4.6552,-4.6954,-4.7456,-4.7933,0.0,0.0,-4.8058,-4.7374,-4.6838,-4.6813,-4.7749,-4.7744,-4.5413,-4.5055,-4.5193,-4.5193,-4.5193,-4.5168,-4.5219,-4.5908,-4.6356,-3.1237,0.0,0.0,0.0,0.0,-3.1231,-3.1657,-3.2498,-3.2871,-3.2858,-3.2745,-3.2828,0.0,0.0,0.0,0.0,0.0,0.0,-3.3525,-3.3809,-3.4225,-3.4448,-3.4317,-3.4317,-3.3545,-3.2254,-3.2711,-3.1353,-2.8503,-3.0566,-3.0552,-2.8473,0.0,0.0,0.0,0.0,-3.4293,-3.6289,-3.6842,-3.7353,-3.8084,-3.8066,-3.8482,-3.9357,-3.9426,-3.9512,-3.9512,-3.8465,-3.7389,-3.6344,-3.4843,0.0,0.0,0.0,0.0,0.0,0.0,0.0,0.0,0.0,0.0,0.0,0.0,0.0,0.0,0.0,0.0,0.0,0.0,0.0,-2.9435,-3.1275,-3.2488,0.0,0.0,0.0,0.0,0.0,0.0,0.0,0.0,0.0,-4.321,-4.3184,-4.3626,0.0,0.0,-4.5476,-4.5448,-4.6784,-4.7863,-4.8323,0.0,0.0,0.0,-5.0634,-5.0507,-5.0918,-5.0966,-5.0735,-5.0178,-5.0024,-4.9971,-4.9971,-5.055,-5.0877,-5.0524,-4.924,-4.8385,-4.8309,-4.8309,-4.8435,-4.8812,-4.9014,-4.957,-3.3861,-3.3237,-3.2593,-3.2585,-3.3149,-3.3296,-3.3745,-3.4637,-3.5181,-3.5278,-3.5121,-3.5465,-3.521,-3.4418,-3.4138,0.0,0.0,0.0,-3.5865,-3.6524,-3.6602,-3.6838,-3.7266,-3.7285,-3.6636,-3.5318,-3.5743,-3.4305,-3.0904,-3.3721,-3.3471,-3.0414,0.0,0.0,-3.4414,-3.4774,-3.584,-3.7687,-3.819,-3.8828,-3.9609,-3.9961,-4.0273,-4.0508,-4.0273,-4.0137,-4.0137,-3.9473,-3.872,-3.7724,-3.6581,-3.4873,0.0,0.0,0.0,0.0,0.0,0.0,0.0,0.0,0.0,0.0,0.0,-2.6618,-2.655,0.0,0.0,0.0,-3.0278,-3.0888,-3.1288,-3.2529,0.0,0.0,0.0,0.0,0.0,0.0,0.0,-4.2053,-4.3573,-4.5132,-4.6488,-4.6414,-4.6434,-4.6985,-4.7732,-4.8258,-4.8159,0.0,-5.0381,-5.0745,-5.1046,-5.1373,-5.1993,-5.2144,-5.2321,-5.3047,-5.2962,-5.275,-5.2422,-5.2488,-5.2578,-5.2628,-5.2854,-5.3181,-5.3507,-5.2452,-5.1574,-5.1574,-5.1373,-5.1423,-5.195,-5.2051,-5.2402,-3.6402,-3.6146,-3.4026,-3.3653,-3.4308,-3.4599,-3.5123,-3.5768,-3.6504,-3.6489,-3.6249,-3.7008,-3.6897,-3.593,-3.591,0.0,0.0,-3.6976,-3.7527,-3.8711,-3.8379,-3.8633,-3.9336,-3.9355,-3.8782,-3.7736,-3.8782,-3.7596,-3.4441,-3.6777,-3.6456,-3.325,-3.5253,-3.6555,-3.7009,-3.751,-3.7825,-3.8065,-3.8779,-3.9238,-3.9316,-4.0137,-4.0586,-4.0566,-4.0566,-4.0586,-4.0566,-4.0176,-3.957,-3.875,-3.7803,-3.6463,-3.4744,0.0,0.0,0.0,0.0,0.0,0.0,0.0,0.0,0.0,0.0,0.0,0.0,0.0,0.0,0.0,-3.2333,0.0,-3.3316,-3.3228,0.0,0.0,0.0,-3.7736,-4.093,-4.1893,-4.3286,-4.5768,0.0,0.0,-4.8911,0.0,-4.9998,-4.9805,-5.074,-5.1494,-5.1314,-5.179,-5.2201,-5.19,-5.1825,-5.1825,-5.2226,-5.2779,-5.3532,-5.4451,-5.4637,-5.4511,-5.4411,-5.4411,-5.4511,-5.4436,-5.4536,-5.4561,-5.4612,-5.4436,-5.4612,-5.4561,-5.411,-5.3884,-5.4336,-5.4436,-5.4461,-3.8071,-3.7998,-3.738,-3.6867,-3.6128,-3.6275,-3.6905,-3.7896,-3.7746,-3.8101,-3.9004,-3.8883,-3.8728,-3.8818,-3.8818,-3.8975,-3.9288,-3.9837,-3.998,-4.0098,-4.0625,-4.082,-4.0703,-4.0703,-4.0588,-4.0357,-4.0588,-3.951,-3.7231,-3.9395,-3.9067,-3.6534,-3.8399,-3.8485,-3.7074,-3.7105,-3.8117,-3.983,-3.9662,-3.983,-4.0195,-4.0742,-4.1035,-4.1016,-4.1016,-4.1016,-4.1016,-4.0605,-4.0273,-4.0039,-3.9121,-3.7955,-3.6522,-3.5861,0.0,0.0,0.0,0.0,0.0,0.0,0.0,0.0,0.0,-2.9539,-2.9766,0.0,-3.2436,0.0,-3.4599,-3.5759,-3.6063,-3.6323,0.0,0.0,-3.691,-3.8185,-4.08,-4.2542,-4.4423,-4.6987,-4.868,-4.9889,-5.0547,-5.173,-5.2755,-5.3107,-5.2231,-5.1768,-5.2341,-5.3478,-5.4452,-5.4845,-5.5326,-5.5826,-5.5471,-5.5491,-5.5365,-5.5214,-5.5189,-5.5039,-5.4637,-5.4561,-5.4561,-5.4561,-5.4561,-5.4737,-5.5114,-5.4863,-5.4938,-5.5541,-5.5039,-5.4536,-5.5064,-5.5189,-5.5315,-3.9171,-3.9171,-3.9171,-3.8786,-3.8163,-3.7979,-3.8439,-3.928,-3.928,-3.9751,-4.0394,-4.053,-4.0705,-4.1016,-4.1035,-4.1016,-4.1055,-4.1523,-4.1601,-4.1406,-4.1855,-4.1953,-4.1738,-4.1738,-4.1738,-4.1719,-4.1543,-4.0839,-3.9807,-4.0666,-4.0492,-3.9166,-4.0335,-4.0406,-3.9058,-3.8448,-3.87,-3.9869,-4.0226,-4.067,-4.1055,-4.1504,-4.17,-4.1483,-4.1463,-4.1286,-4.1065,-4.0828,-4.0591,-4.0373,-3.9741,-3.8898,-3.7689,-3.7018,-3.6051,0.0,0.0,0.0,0.0,0.0,0.0,0.0,0.0,0.0,0.0,0.0,-3.4228,0.0,-3.601,-3.6856,-3.7032,-3.7348,-3.7668,-3.8067,-3.8267,-3.9532,-4.2269,-4.3993,-4.6126,-4.8613,-5.041,-5.1897,-5.2623,-5.3181,-5.3838,-5.4664,-5.3716,-5.3261,-5.4284,-5.5209,-5.5782,-5.6473,-5.7,-5.7324,-5.73,-5.7173,-5.6846,-5.6595,-5.652,-5.6394,-5.6093,-5.5842,-5.5666,-5.5641,-5.5465,-5.539,-5.5691,-5.5541,-5.5541,-5.5892,-5.5742,-5.5465,-5.5691,-5.5767,-5.5867,-3.9997,-3.9997,-3.9997,-3.9997,-3.996,-3.9612,-3.9612,-3.9995,-4.0646,-4.0952,-4.1133,-4.194,-4.2261,-4.2422,-4.2422,-4.2422,-4.2441,-4.2539,-4.2598,-4.2598,-4.2695,-4.2754,-4.2754,-4.2754,-4.2734,-4.2676,-4.2305,-4.209,-4.1953,-4.1699,-4.1465,-4.1445,-4.1896,-4.1994,-4.1713,-4.0524,-3.9951,-3.9758,-4.0762,-4.1578,-4.2013,-4.2288,-4.2211,-4.1793,-4.1693,-4.147,-4.1053,-4.0953,-4.0901,-4.0499,-4.0117,-3.9573,-3.8628,-3.7854,-3.7136,0.0,-3.6016,0.0,0.0,0.0,0.0,0.0,0.0,0.0,0.0,-3.5741,-3.6302,-3.6844,-3.7272,-3.7689,-3.7688,-3.8007,-3.8846,-4.0236,-4.0435,-4.1655,-4.4719,-4.6507,-4.8401,-5.0779,-5.2301,-5.363,-5.4351,-5.4207,-5.4412,-5.5078,-5.4908,-5.5037,-5.6128,-5.6397,-5.6721,-5.7199,-5.74,-5.7573,-5.7825,-5.7926,-5.7826,-5.7851,-5.7775,-5.7901,-5.7775,-5.7424,-5.7097,-5.7072,-5.6721,-5.6445,-5.642,-5.6495,-5.6545,-5.6646,-5.662,-5.647,-5.6244,-5.6168,-5.6219,-4.0822,-4.0822,-4.084,-4.0822,-4.0822,-4.0749,-4.0547,-4.034,-4.0177,-4.0484,-4.1133,-4.1637,-4.212,-4.2422,-4.2422,-4.2422,-4.2461,-4.3144,-4.3457,-4.3476,-4.4199,-4.4531,-4.4531,-4.4531,-4.4355,-4.4023,-4.3945,-4.3535,-4.2851,-4.3476,-4.3249,-4.223,-4.2941,-4.2744,-4.1793,0.0,0.0,0.0,-4.2564,-4.2784,-4.2923,-4.2465,-4.2396,-4.2216,-4.1875,0.0,-4.1625,-4.1263,-4.1022,-4.0941,-4.0861,0.0,0.0,0.0,0.0,0.0,0.0,0.0,0.0,0.0,0.0,0.0,-3.7038,-3.6737,-3.6603,-3.7625,-3.8646,-3.9513,-4.0405,-4.1025,-4.1308,-4.1445,-4.2365,-4.4399,-4.4638,-4.6025,-4.956,-5.0762,-5.1901,-5.3647,-5.4151,-5.4375,-5.4616,-5.4824,-5.5126,-5.5297,-5.588,-5.6326,-5.6516,-5.6614,-5.7087,-5.8216,-5.8424,-5.8426,-5.8554,-5.8227,-5.8001,-5.7901,-5.7901,-5.7926,-5.7976,-5.7876,-5.775,-5.7775,-5.765,-5.7575,-5.7575,-5.7926,-5.8177,-5.8252,-5.8202,-5.7801,-5.652,-5.6219,-5.6219,-4.1372,0.0,-4.1574,-4.1666,0.0,-4.1666,-4.1597,-4.1341,-4.0935,-4.1192,-4.2061,-4.2436,-4.2863,-4.3029,-4.3029,-4.3195,-4.3399,-4.3826,-4.4188,-4.4375,-4.4824,-4.5039,-4.5039,-4.5039,-4.4902,-4.4707,-4.4707,-4.4375,-4.3789,-4.4394,-4.4327,-4.3431,-4.406,-4.4041,-4.3411,-4.3751,-4.3517,-4.2781,-4.2863,-4.302,-4.3057,-4.3238,-4.334,-4.306,0.0,0.0,0.0,0.0,0.0,0.0,0.0,0.0,0.0,0.0,0.0,-3.9937,-3.983,-3.969,-3.9725,-3.94,-3.9559,-4.0068,-3.9939,-3.9632,-3.8724,-4.0383,-4.1712,-4.2252,-4.3669,-4.4711,-4.4972,-4.5242,-4.5869,-4.7081,-4.7111,-4.7783,-4.983,-5.1418,-5.2611,-5.3693,-5.4753,-5.5482,-5.577,-5.5709,-5.5743,-5.5718,-5.5912,-5.6285,-5.6488,-5.6814,-5.754,-5.8632,-5.8998,-5.9106,-5.9081,-5.8905,-5.8679,-5.8704,-5.8704,-5.8805,-5.9056,-5.8855,-5.878,-5.8981,-5.888,-5.8679,-5.8704,-5.893,-5.9106,-5.9106,-5.9081,-5.888,-5.7951,-5.7424,-5.7047,-4.1794,-4.1831,-4.2142,-4.2271,-4.2271,-4.2271,-4.2271,-4.2234,0.0,0.0,0.0,-4.3291,-4.3614,-4.3785,-4.3804,-4.3976,-4.4337,-4.4585,-4.4795,-4.5156,-4.5215,-4.5254,-4.5254,-4.5254,-4.5215,-4.5137,-4.5137,-4.4922,-4.4551,-4.5,-4.5039,-4.4707,-4.5117,-4.5312,-4.5273,-4.5605,-4.4915,-4.3218,-4.3297,-4.3554,-4.3582,-4.415,-4.4277,-4.3874,-4.4132,-4.3917,-4.3178,-4.3215,-4.3014,-4.2476,-4.1775,-4.1554,-4.1875,-4.1234,-4.0843,-4.1163,-4.0883,-4.0853,-4.1243,-4.1322,-4.1463,-4.1875,-4.2305,-4.2072,-4.0907,-4.2725,-4.4153,-4.4153,-4.5771,-4.7001,-4.7397,-4.7744,-4.8536,-4.9557,-4.9428,-4.9406,-5.0366,-5.1875,-5.3325,-5.3673,-5.5178,-5.6395,-5.6708,-5.6323,-5.6083,-5.6035,-5.577,-5.5674,-5.6312,-5.7085,-5.8031,-5.8706,-5.9123,-5.9508,-5.9633,-5.9633,-5.9659,-5.9784,-5.9784,-5.996,-6.0261,-6.0111,-6.001,-6.0311,-6.0085,-5.9834,-5.9809,-5.9935,-5.9935,-5.9935,-5.9935,-5.9935,-5.9859,-5.9182,-5.8478,-4.2197,-4.2197,-4.2252,-4.2271,-4.2271,-4.2271,-4.2271,-4.2271,-4.2334,-4.2469,-4.2851,-4.2907,-4.3461,-4.4166,-4.4166,-4.4508,-4.4869,-4.5238,-4.5586,0.0,-4.5957,-4.6113,-4.6133,-4.6133,-4.5937,-4.5605,-4.5586,-4.5351,-4.5058,-4.5742,-4.5898,-4.5625,-4.6269,-4.6465,-4.6152,-4.6191,-4.6035,-4.5836,-4.534,-4.5173,-4.5233,-4.4972,-4.4922,-4.4782,-4.4501,-4.424,-4.404,-4.3679,-4.3439,-4.3358,-4.3238,-4.306,-4.2804,-4.2685,-4.2487,-4.2229,-4.217,-4.219,-4.2148,-4.2168,-4.2207,-4.2344,-4.2734,-4.2715,-4.2148,-4.2899,-4.3214,-4.3376,-4.4219,-4.5108,-4.6717,-4.7307,-4.9146,-5.2399,-5.2856,-5.368,-5.5145,-5.5787,-5.6017,-5.6089,-5.6262,-5.6227,-5.6251,-5.589,-5.5554,-5.5578,-5.577,-5.6263,-5.6697,-5.7604,-5.8261,-5.8887,-5.9198,-5.9709,-5.9879,-6.0211,-6.0362,-6.0889,-6.0864,-6.0864,-6.1014,-6.0964,-6.0939,-6.1065,-6.0989,-6.0939,-6.0964,-6.1341,-6.1492,-6.1517,-6.1517,-6.1542,-6.1517,-6.104,-6.0387,-4.2601,-4.2637,-4.2839,-4.2931,-4.2931,-4.2931,-4.2931,-4.2949,-4.2931,-4.2978,-4.2968,-4.3172,-4.3458,-4.3809,-4.3809,-4.4333,-4.503,-4.5222,-4.5493,-4.6035,-4.6211,-4.6308,-4.6328,-4.6543,-4.6543,-4.6367,-4.6348,-4.625,-4.6113,-4.6465,-4.6543,-4.6406,-4.6973,-4.7187,-4.7012,-4.6992,-4.6992,-4.6973,-4.6327,-4.6048,-4.6048,-4.6062,-4.5983,-4.5983,-4.5766,-4.5568,-4.5331,-4.4916,-4.4581,-4.4344,-4.4107,-4.4087,-4.4159,-4.3797,-4.3758,-4.3828,-4.3828,-4.3828,-4.3828,-4.3828,-4.3828,-4.3848,-4.4023,-4.4062,-4.3848,-4.4375,-4.4947,-4.5189,-4.7187,-4.9092,-5.038,-5.1416,-5.2902,-5.4845,-5.4815,-5.4941,-5.5566,-5.5987,-5.6035,-5.5794,-5.577,-5.577,-5.577,-5.5554,-5.5385,-5.5409,-5.5674,-5.6046,-5.6756,-5.7155,-5.7663,-5.8154,-5.8533,-5.911,-5.9632,-6.0139,-6.0547,-6.0822,-6.1006,-6.1316,-6.1517,-6.1617,-6.1743,-6.2019,-6.2069,-6.2069,-6.2044,-6.227,-6.2421,-6.2446,-6.2446,-6.2446,-6.2421,-6.2446,-6.2044,-4.3004,-4.3041,-4.3353,-4.3481,-4.3481,-4.3481,-4.3481,-4.3481,-4.3481,-4.3353,-4.3188,-4.3408,-4.3499,-4.3678,-4.3678,-4.4193,-4.4921,-4.5173,-4.5565,-4.6445,-4.6543,-4.6543,-4.6504,-4.6875,-4.7031,-4.6953,-4.7031,-4.707,-4.709,-4.7168,-4.7266,-4.7383,-4.7695,-4.7871,-4.7871,-4.7871,-4.7871,-4.7832,-4.7207,-4.6777,-4.6601,-4.6914,-4.707,-4.709,-4.7051,-4.6933,-4.6601,-4.6289,-4.5957,-4.5605,-4.5293,-4.5234,-4.541,-4.5058,-4.4941,-4.5137,-4.5078,-4.5039,-4.5039,-4.5039,-4.5039,-4.5039,-4.5039,-4.5058,-4.5268,-4.5684,-4.6168,-4.6763,-4.9415,-5.1868,-5.2804,-5.4694,-5.6136,-5.655,-5.6371,-5.6083,-5.5506,-5.5602,-5.5554,-5.5121,-5.5241,-5.5409,-5.5409,-5.5506,-5.5674,-5.5794,-5.5674,-5.5926,-5.6551,-5.6576,-5.6658,-5.7213,-5.7785,-5.8482,-5.8999,-5.9687,-6.0303,-6.0452,-6.0846,-6.1416,-6.1768,-6.1994,-6.222,-6.2596,-6.2772,-6.2722,-6.2797,-6.2797,-6.2797,-6.2772,-6.2898,-6.3023,-6.3048,-6.3299,-6.3274,-4.3426,-4.3444,-4.3463,-4.3481,-4.3499,-4.3499,-4.3518,-4.3499,-4.3499,-4.3683,-4.3921,-4.3628,-4.3696,-4.4015,-4.423,-4.4604,-4.5488,-4.5991,-4.6343,-4.6894,-4.7285,-4.7246,-4.6894,-4.7305,-4.7305,-4.7031,-4.7324,-4.7519,-4.7539,-4.7891,-4.8281,-4.8633,-4.873,-4.8711,-4.873,-4.8711,-4.873,-4.873,-4.8672,-4.8242,-4.7519,-4.75,-4.7519,-4.7519,-4.7519,-4.75,-4.7441,-4.7441,-4.7383,-4.7344,-4.7246,-4.709,-4.6758,-4.6348,-4.5976,-4.5644,-4.5273,-4.5039,-4.5058,-4.5039,-4.5098,-4.5039,-4.5117,-4.5273,-4.5605,-4.5719,-4.5674,-4.6007,-4.7688,-5.0117,-5.1717,-5.4152,-5.642,-5.7941,-5.8151,-5.8103,-5.743,-5.7117,-5.666,-5.6155,-5.5602,-5.5385,-5.5433,-5.5746,-5.6227,-5.6468,-5.6155,-5.6035,-5.6155,-5.6046,-5.5998,-5.6541,-5.7472,-5.8325,-5.8949,-5.939,-5.9896,-6.0427,-6.0846,-6.1256,-6.1632,-6.1857,-6.2169,-6.2509,-6.2822,-6.2822,-6.2822,-6.2822,-6.2822,-6.2898,-6.3174,-6.3576,-6.3601,-6.3726,-6.3626,-4.2913,-4.3114,-4.3133,-4.3261,-4.3499,-4.3738,-4.3848,-4.3866,-4.4105,-4.4288,-4.4398,-4.4614,-4.4721,-4.4901,-4.492,-4.5442,-4.6357,-4.653,-4.6632,-4.6992,-4.7363,-4.7226,-4.6699,-4.7539,-4.7598,-4.7031,-4.7617,-4.7949,-4.8027,-4.8379,-4.8691,-4.8828,-4.8848,-4.8848,-4.8848,-4.8848,-4.8848,-4.8848,-4.8848,-4.8672,-4.8398,-4.834,-4.834,-4.8301,-4.8086,-4.7949,-4.793,-4.7715,-4.7578,-4.7578,-4.7578,-4.75,-4.7324,-4.7148,-4.6973,-4.6797,-4.6641,-4.6543,-4.6523,-4.6543,-4.6523,-4.6543,-4.6523,-4.6621,-4.6954,-4.7814,-4.8392,-4.8423,-4.9826,-5.1313,-5.2616,-5.5403,-5.769,-5.8396,-5.8608,-5.8271,-5.743,-5.7165,-5.6708,-5.589,-5.553,-5.5385,-5.5409,-5.5602,-5.5818,-5.6035,-5.5866,-5.5914,-5.6155,-5.6035,-5.6155,-5.6564,-5.7218,-5.7715,-5.8336,-5.9071,-5.9452,-5.981,-6.0206,-6.054,-6.1123,-6.1509,-6.1871,-6.2395,-6.2634,-6.2822,-6.2822,-6.2822,-6.2822,-6.2998,-6.3299,-6.3776,-6.4078,-6.4404,-6.458,-4.2436,-4.2692,-4.2821,-4.3169,-4.3664,-4.3958,-4.4141,-4.427,-4.4545,-4.4728,-4.5022,-4.5389,-4.5811,-4.6051,-4.5863,-4.6133,-4.6876,-4.6972,-4.698,-4.7207,-4.7676,-4.748,-4.6836,-4.7832,-4.7988,-4.75,-4.8027,-4.8398,-4.8418,-4.8691,-4.8848,-4.8848,-4.8848,-4.8848,-4.8848,-4.8848,-4.8926,-4.9043,-4.9043,-4.9101,-4.9199,-4.9219,-4.9101,-4.8848,-4.8555,-4.8379,-4.8379,-4.8086,-4.793,-4.793,-4.793,-4.793,-4.793,-4.7832,-4.7695,-4.7598,-4.7578,-4.7578,-4.7578,-4.7578,-4.7578,-4.7578,-4.7578,-4.7797,-4.8593,-4.9841,-5.0923,-5.1513,-5.2822,-5.3957,-5.4409,-5.7024,-5.8852,-5.9017,-5.8921,-5.8416,-5.7622,-5.7261,-5.666,-5.5794,-5.553,-5.5482,-5.5602,-5.5674,-5.577,-5.5938,-5.5938,-5.5938,-5.6323,-5.6468,-5.6588,-5.6949,-5.7021,-5.7165,-5.755,-5.8273,-5.8798,-5.8984,-5.9207,-5.9675,-6.0154,-6.0626,-6.1135,-6.1481,-6.2107,-6.2784,-6.2959,-6.2959,-6.3274,-6.35,-6.3751,-6.4128,-6.458,-6.5032,-6.5208,-4.2289,-4.2362,-4.2711,-4.3298,-4.405,-4.4086,-4.4306,-4.4655,-4.4691,-4.5096,-4.5797,-4.6001,-4.6762,-4.7768,-4.6713,-4.6514,-4.6934,-4.728,-4.7586,-4.7656,-4.8379,-4.832,-4.7617,-4.8398,-4.8574,-4.8047,-4.8516,-4.8769,-4.8789,-4.8848,-4.8848,-4.8867,-4.8926,-4.8906,-4.8926,-4.8945,-4.9082,-4.9453,-4.9492,-4.9668,-5.0019,-5.0078,-4.9668,-4.9004,-4.8848,-4.8867,-4.8848,-4.8828,-4.8808,-4.8808,-4.8808,-4.8789,-4.8769,-4.8437,-4.8086,-4.7734,-4.7656,-4.7656,-4.7695,-4.7734,-4.7715,-4.7676,-4.7793,-4.8513,-5.0372,-5.095,-5.1967,-5.4059,-5.5812,-5.6713,-5.6882,-5.8493,-5.9955,-5.9955,-5.9594,-5.9065,-5.8536,-5.7598,-5.6852,-5.6275,-5.5818,-5.577,-5.6155,-5.6203,-5.6395,-5.6708,-5.6876,-5.6876,-5.6852,-5.6949,-5.6973,-5.6997,-5.7021,-5.7045,-5.7069,-5.7445,-5.774,-5.7947,-5.8277,-5.8521,-5.9097,-5.9564,-6.0154,-6.0908,-6.1878,-6.2539,-6.2979,-6.3469,-6.3986,-6.4354,-6.4404,-6.4705,-6.5157,-6.5233,-6.5383,-4.1666,-4.1959,-4.2601,-4.3188,-4.3738,-4.4233,-4.4691,-4.5077,-4.5352,-4.5908,-4.6392,-4.6784,-4.725,-4.8127,-4.8003,-4.8032,-4.8235,-4.839,-4.8215,-4.8086,-4.8594,-4.8398,-4.7734,-4.8457,-4.8476,-4.7988,-4.8516,-4.8848,-4.8906,-4.9141,-4.9277,-4.9355,-4.957,-4.9707,-4.9707,-4.9707,-4.9785,-4.9922,-4.9941,-5.0019,-5.0176,-5.0176,-5.0019,-4.9746,-4.9707,-4.9707,-4.9687,-4.9707,-4.9707,-4.9707,-4.9707,-4.9707,-4.9687,-4.957,-4.9414,-4.9277,-4.9238,-4.9238,-4.9238,-4.9238,-4.9238,-4.9238,-4.9238,-4.961,-5.051,-5.1637,-5.3121,-5.5216,-5.7241,-5.8461,-5.9418,-5.993,-6.0171,-6.0099,-5.969,-5.9161,-5.8632,-5.7959,-5.7333,-5.6852,-5.654,-5.654,-5.6612,-5.6732,-5.6804,-5.6973,-5.7021,-5.7021,-5.7021,-5.7021,-5.7021,-5.7021,-5.7021,-5.7021,-5.7021,-5.7021,-5.718,-5.7204,-5.7435,-5.7861,-5.82,-5.9398,-6.0057,-6.0807,-6.1727,-6.2894,-6.3459,-6.3969,-6.4705,-6.4982,-6.5032,-6.5233,-6.571,-6.5685,-6.5735,-4.1317,-4.1776,-4.2527,-4.3188,-4.3756,-4.4545,-4.5113,-4.5498,-4.5773,-4.6072,-4.6635,-4.7009,-4.7382,-4.796,-4.8497,-4.8682,-4.8682,-4.8848,-4.8613,-4.8281,-4.8652,-4.8476,-4.8008,-4.8516,-4.8633,-4.8379,-4.8926,-4.9277,-4.9316,-4.959,-4.9726,-4.9766,-5.0039,-5.0176,-5.0176,-5.0176,-5.0215,-5.0351,-5.0371,-5.043,-5.0547,-5.0586,-5.0586,-5.0586,-5.0586,-5.043,-5.0195,-5.0176,-5.0176,-5.0176,-5.0176,-5.0176,-5.0176,-5.0176,-5.0176,-5.0176,-5.0156,-5.0176,-5.0176,-5.0176,-5.0156,-5.0176,-5.0156,-5.0554,-5.1812,-5.326,-5.5076,-5.7447,-5.8893,-6.0332,-6.0887,-6.0748,-6.0364,-6.0123,-5.957,-5.9017,-5.8608,-5.7983,-5.743,-5.7093,-5.6973,-5.6997,-5.7021,-5.7021,-5.7021,-5.7021,-5.7021,-5.7021,-5.7021,-5.7021,-5.7021,-5.7021,-5.7021,-5.7021,-5.7021,-5.7021,-5.7021,-5.7045,-5.7204,-5.7309,-5.7862,-5.908,-6.0092,-6.0698,-6.1883,-6.3101,-6.403,-6.4687,-6.5132,-6.5459,-6.5584,-6.5685,-6.5936,-6.6061,-6.6036,-4.1335,-4.1812,-4.2546,-4.3353,-4.4105,-4.4893,-4.5498,-4.581,-4.5883,-4.6072,-4.6635,-4.6653,-4.7084,-4.7626,-4.8075,-4.8204,-4.8447,-4.8819,-4.8769,-4.8418,-4.873,-4.8711,-4.8398,-4.8789,-4.918,-4.9414,-4.9922,-5.0117,-5.0058,-5.0137,-5.0176,-5.0176,-5.0254,-5.0332,-5.0215,-5.0312,-5.0449,-5.0723,-5.0801,-5.0996,-5.1367,-5.1348,-5.1308,-5.1348,-5.1348,-5.0996,-5.0273,-5.0254,-5.0293,-5.0273,-5.0254,-5.0195,-5.0293,-5.0293,-5.0234,-5.0293,-5.0234,-5.0215,-5.0234,-5.0273,-5.0332,-5.0312,-5.0254,-5.1785,-5.4372,-5.5431,-5.7064,-6.016,-6.1233,-6.1682,-6.1586,-6.135,-6.0796,-6.0171,-5.9305,-5.868,-5.8392,-5.767,-5.7045,-5.7021,-5.7021,-5.7021,-5.7021,-5.7021,-5.7021,-5.7021,-5.7021,-5.7021,-5.7021,-5.7021,-5.7021,-5.7021,-5.7021,-5.7021,-5.7021,-5.7021,-5.7045,-5.7069,-5.7045,-5.7213,-5.7911,-5.8916,-5.9857,-6.0748,-6.2519,-6.3718,-6.4406,-6.5093,-6.566,-6.5911,-6.6011,-6.5986,-6.6061,-6.6112,-6.6112,-4.1739,-4.2179,-4.2968,-4.3591,-4.416,-4.4948,-4.5517,-4.5883,-4.5883,-4.6072,-4.6672,-4.6914,-4.7422,-4.827,-4.8858,-4.9181,-4.9577,-4.9746,-4.9531,-4.9199,-4.9258,-4.9414,-4.9551,-4.9687,-4.9844,-4.998,-5.0117,-5.0176,-5.0254,-5.0469,-5.0605,-5.0664,-5.0898,-5.1035,-5.0996,-5.1055,-5.1133,-5.1211,-5.123,-5.1308,-5.1426,-5.1445,-5.1445,-5.1445,-5.1426,-5.1289,-5.1055,-5.1035,-5.1035,-5.1016,-5.1035,-5.1035,-5.1035,-5.1035,-5.1035,-5.1035,-5.1035,-5.1035,-5.1035,-5.1016,-5.1016,-5.1016,-5.1016,-5.2148,-5.4383,-5.5091,-5.6924,-6.0263,-6.0846,-6.1109,-6.2035,-6.2215,-6.1494,-6.0315,-5.9233,-5.8464,-5.8055,-5.743,-5.7093,-5.7021,-5.7021,-5.7021,-5.7021,-5.7021,-5.7021,-5.7021,-5.7021,-5.7021,-5.7021,-5.7021,-5.7021,-5.7021,-5.7021,-5.7069,-5.7141,-5.7237,-5.7309,-5.7357,-5.7333,-5.7502,-5.8151,-5.9017,-5.9931,-6.1256,-6.2836,-6.3989,-6.4852,-6.5395,-6.5889,-6.6112,-6.6086,-6.6086,-6.6112,-6.6112,-6.6112,-4.2142,-4.2564,-4.3371,-4.394,-4.438,-4.5187,-4.5645,-4.5865,-4.5883,-4.6352,-4.6896,-4.7119,-4.7704,-4.8652,-4.9281,-4.9586,-4.9986,-5.0176,-5.0117,-4.998,-4.9824,-4.9941,-5.0195,-5.0351,-5.041,-5.0449,-5.0566,-5.0644,-5.0644,-5.0898,-5.1035,-5.1094,-5.1308,-5.1406,-5.1445,-5.1445,-5.1445,-5.1445,-5.1426,-5.1445,-5.1445,-5.1445,-5.1445,-5.1445,-5.1445,-5.1445,-5.1445,-5.1445,-5.1445,-5.1445,-5.1445,-5.1445,-5.1445,-5.1426,-5.1445,-5.1445,-5.1426,-5.1426,-5.1445,-5.1387,-5.1814,-5.2354,-5.2547,-5.3849,-5.5889,-5.666,-5.8145,-6.0748,-6.1648,-6.1911,-6.2713,-6.2456,-6.1734,-6.0628,-5.9546,-5.8536,-5.7742,-5.7237,-5.7045,-5.7021,-5.7021,-5.7021,-5.7021,-5.7021,-5.7021,-5.7021,-5.7021,-5.7021,-5.7021,-5.7021,-5.7045,-5.7045,-5.7021,-5.7141,-5.7309,-5.7454,-5.7598,-5.7646,-5.7694,-5.8031,-5.856,-5.9666,-6.0676,-6.2079,-6.3665,-6.4309,-6.4951,-6.5347,-6.5767,-6.594,-6.6112,-6.6112,-6.6112,-6.6112,-6.6112,-4.2582,-4.3023,-4.3811,-4.438,-4.4783,-4.5535,-4.5865,-4.5902,-4.5938,-4.6329,-4.6986,-4.738,-4.7967,-4.8805,-4.9359,-4.9588,-4.9683,-5.0161,-5.0547,-5.0625,-5.0469,-5.0351,-5.043,-5.0703,-5.084,-5.0898,-5.1172,-5.1348,-5.1289,-5.1348,-5.1426,-5.1387,-5.1406,-5.1445,-5.1445,-5.1445,-5.1445,-5.1445,-5.1445,-5.1445,-5.1445,-5.1445,-5.1445,-5.1445,-5.1445,-5.1445,-5.1445,-5.1445,-5.1445,-5.1445,-5.1445,-5.1445,-5.1445,-5.1445,-5.1445,-5.1445,-5.1445,-5.1445,-5.1426,-5.1814,-5.2567,-5.3849,-5.442,-5.6098,-5.9064,-5.9635,-6.0567,-6.2588,-6.2967,-6.3145,-6.3105,-6.2528,-6.1662,-6.0917,-5.9714,-5.8512,-5.7285,-5.7045,-5.7021,-5.7045,-5.7021,-5.7093,-5.7165,-5.7189,-5.7237,-5.7237,-5.7285,-5.7333,-5.7309,-5.7381,-5.7189,-5.7237,-5.7405,-5.755,-5.7838,-5.7862,-5.8055,-5.8343,-5.8392,-5.868,-5.9233,-6.0364,-6.1422,-6.2828,-6.3832,-6.4478,-6.4901,-6.5248,-6.5767,-6.594,-6.6112,-6.6112,-6.6112,-6.6112,-6.6112,-4.3408,-4.3848,-4.4636,-4.504,-4.5205,-4.5682,-4.5883,-4.5938,-4.6195,-4.655,-4.6962,-4.771,-4.8568,-4.9299,-4.9972,-5.0513,-5.0862,-5.0862,-5.1133,-5.123,-5.1172,-5.1113,-5.1113,-5.1191,-5.125,-5.1269,-5.1348,-5.1426,-5.1445,-5.1445,-5.1445,-5.1445,-5.1445,-5.1445,-5.1445,-5.1445,-5.1445,-5.1445,-5.1445,-5.1445,-5.1445,-5.1445,-5.1445,-5.1445,-5.1445,-5.1445,-5.1445,-5.1445,-5.1445,-5.1445,-5.1445,-5.1445,-5.1445,-5.1445,-5.1445,-5.1445,-5.1445,-5.1445,-5.162,-5.274,-5.3658,-5.442,-5.5723,-5.7775,-6.0,-6.0386,-6.1312,-6.279,-6.3322,-6.3322,-6.3225,-6.2696,-6.1782,-6.046,-5.9233,-5.8079,-5.7333,-5.7021,-5.7021,-5.7045,-5.7381,-5.7574,-5.767,-5.7862,-5.8079,-5.8103,-5.8079,-5.8079,-5.7959,-5.7983,-5.7911,-5.8103,-5.8271,-5.8295,-5.8367,-5.8367,-5.856,-5.8993,-5.9209,-5.9402,-6.0147,-6.1157,-6.2143,-6.3305,-6.3554,-6.4178,-6.4726,-6.5075,-6.5594,-6.594,-6.6112,-6.6112,-6.6112,-6.6112,-6.6112,-4.4233,-4.4636,-4.5113,-4.5388,-4.5572,-4.5792,-4.5883,-4.5957,-4.6305,-4.6771,-4.7221,-4.8375,-4.9158,-4.9912,-5.0726,-5.1037,-5.1426,-5.1445,-5.1426,-5.1426,-5.1406,-5.1406,-5.1426,-5.1426,-5.1445,-5.1445,-5.1445,-5.1445,-5.1445,-5.1445,-5.1445,-5.1445,-5.1445,-5.1445,-5.1445,-5.1445,-5.1445,-5.1445,-5.1445,-5.1445,-5.1445,-5.1445,-5.1445,-5.1445,-5.1445,-5.1445,-5.1445,-5.1445,-5.1445,-5.1445,-5.1445,-5.1445,-5.1445,-5.1445,-5.1445,-5.1445,-5.1445,-5.1445,-5.162,-5.2547,-5.3849,-5.5346,-5.6846,-5.8697,-6.0928,-6.1671,-6.2232,-6.3145,-6.3322,-6.3225,-6.2937,-6.236,-6.1301,-6.0027,-5.9017,-5.8247,-5.7742,-5.7718,-5.7694,-5.7766,-5.7935,-5.8151,-5.8127,-5.844,-5.856,-5.8584,-5.8488,-5.8512,-5.8512,-5.8608,-5.868,-5.8752,-5.8776,-5.8728,-5.8848,-5.8921,-5.9137,-5.957,-6.0123,-6.0291,-6.0917,-6.1831,-6.2504,-6.3153,-6.3602,-6.3851,-6.4377,-6.4876,-6.5421,-6.5767,-6.594,-6.6112,-6.6112,-6.6112,-6.6112,-4.4948,-4.5297,-4.5352,-4.5572,-4.5847,-4.5883,-4.5938,-4.603,-4.6415,-4.6992,-4.7958,-4.8931,-4.9717,-5.0646,-5.1017,-5.1426,-5.1445,-5.1445,-5.1445,-5.1445,-5.1445,-5.1445,-5.1445,-5.1445,-5.1445,-5.1445,-5.1445,-5.1445,-5.1445,-5.1445,-5.1445,-5.1445,-5.1445,-5.1445,-5.1445,-5.1445,-5.1445,-5.1445,-5.1445,-5.1445,-5.1445,-5.1445,-5.1445,-5.1445,-5.1445,-5.1445,-5.1445,-5.1445,-5.1445,-5.1445,-5.1445,-5.1445,-5.1445,-5.1445,-5.1445,-5.1445,-5.1445,-5.1445,-5.1426,-5.1988,-5.3296,-5.6098,-5.7219,-5.9064,-6.185,-6.2612,-6.3145,-6.3346,-6.3322,-6.3057,-6.248,-6.159,-6.0724,-5.9859,-5.9474,-5.9233,-5.8872,-5.868,-5.8608,-5.8632,-5.8608,-5.868,-5.868,-5.8728,-5.88,-5.9185,-5.9113,-5.9137,-5.9137,-5.9161,-5.9137,-5.9065,-5.9065,-5.9065,-5.9257,-5.9474,-5.9786,-6.0171,-6.0917,-6.1326,-6.1638,-6.2312,-6.2768,-6.3153,-6.345,-6.3851,-6.4353,-6.4876,-6.5223,-6.5594,-6.594,-6.6112,-6.6112,-6.6112,-6.6112,-4.5223,-4.5333,-4.5627,-4.581,-4.5883,-4.5902,-4.6067,-4.6379,-4.6782,-4.7149,-4.796,-4.917,-4.9769,-5.0078,-5.1037,-5.1445,-5.1445,-5.1445,-5.1445,-5.1445,-5.1445,-5.1445,-5.1445,-5.1445,-5.1445,-5.1445,-5.1445,-5.1445,-5.1445,-5.1445,-5.1445,-5.1445,-5.1445,-5.1445,-5.1445,-5.1445,-5.1445,-5.1445,-5.1445,-5.1445,-5.1445,-5.1445,-5.1445,-5.1445,-5.1445,-5.1445,-5.1445,-5.1445,-5.1445,-5.1445,-5.1445,-5.1445,-5.1445,-5.1445,-5.1445,-5.1445,-5.1445,-5.1445,-5.162,-5.274,-5.404,-5.5178,-5.7775,-6.0,-6.0748,-6.2612,-6.3145,-6.3322,-6.3322,-6.2937,-6.2119,-6.1398,-6.0676,-6.0099,-5.9931,-5.9907,-5.9714,-5.9113,-5.8752,-5.8752,-5.8993,-5.9233,-5.9257,-5.957,-5.969,-5.9786,-5.9786,-5.981,-5.9762,-5.969,-5.9618,-5.9498,-5.9546,-5.9546,-5.9618,-5.9859,-6.0099,-6.0508,-6.1253,-6.1951,-6.2263,-6.2672,-6.3057,-6.3225,-6.3298,-6.3675,-6.4202,-6.4527,-6.4876,-6.5397,-6.5767,-6.594,-6.594,-6.6112,-6.6112,-4.5572,-4.5608,-4.581,-4.5883,-4.5883,-4.5902,-4.6122,-4.6507,-4.6929,-4.7332,-4.7913,-4.932,-4.9882,-4.9882,-5.0842,-5.1445,-5.1445,-5.1445,-5.1445,-5.1445,-5.1445,-5.1445,-5.1445,-5.1445,-5.1445,-5.1445,-5.1445,-5.1445,-5.1445,-5.1445,-5.1445,-5.1445,-5.1445,-5.1445,-5.1445,-5.1445,-5.1445,-5.1445,-5.1445,-5.1445,-5.1445,-5.1445,-5.1445,-5.1445,-5.1445,-5.1445,-5.1445,-5.1445,-5.1445,-5.1445,-5.1445,-5.1445,-5.1445,-5.1445,-5.1445,-5.1445,-5.1445,-5.1445,-5.1814,-5.2374,-5.3296,-5.442,-5.7405,-5.9087,-6.0567,-6.2232,-6.3145,-6.3322,-6.3249,-6.2913,-6.1903,-6.0989,-6.0484,-6.0291,-6.0171,-6.0171,-6.0075,-5.9666,-5.9329,-5.9378,-5.9618,-5.9714,-5.9883,-6.0051,-6.0075,-5.9979,-5.9979,-6.0003,-6.0027,-5.9955,-6.0027,-5.9979,-6.0051,-6.0075,-6.0075,-6.0195,-6.0339,-6.0772,-6.135,-6.1951,-6.2408,-6.2841,-6.3298,-6.3322,-6.3322,-6.3498,-6.4026,-6.4353,-6.4702,-6.505,-6.5421,-6.5767,-6.594,-6.594,-6.6112,-4.5883,-4.5883,-4.5883,-4.5883,-4.5883,-4.5902,-4.6158,-4.6617,-4.6947,-4.7387,-4.7987,-4.9358,-4.9882,-5.0078,-5.1056,-5.1426,-5.1445,-5.1445,-5.1445,-5.1445,-5.1445,-5.1445,-5.1445,-5.1445,-5.1445,-5.1445,-5.1445,-5.1445,-5.1445,-5.1445,-5.1445,-5.1445,-5.1445,-5.1445,-5.1445,-5.1445,-5.1445,-5.1445,-5.1445,-5.1445,-5.1445,-5.1445,-5.1445,-5.1445,-5.1445,-5.1445,-5.1445,-5.1445,-5.1445,-5.1445,-5.1445,-5.1445,-5.1445,-5.1445,-5.1445,-5.1445,-5.1445,-5.1445,-5.1445,-5.162,-5.2354,-5.404,-5.5723,-5.7775,-5.9635,-6.1492,-6.2612,-6.3049,-6.3081,-6.2576,-6.1734,-6.0845,-6.0315,-6.0171,-6.0171,-6.0171,-6.0171,-6.0171,-6.0075,-6.0075,-5.9979,-6.0003,-6.0051,-6.0147,-6.0171,-6.0171,-6.0171,-6.0171,-6.0171,-6.0171,-6.0171,-6.0171,-6.0171,-6.0171,-6.0171,-6.0243,-6.0412,-6.0989,-6.1518,-6.2023,-6.2552,-6.2985,-6.3322,-6.3322,-6.3322,-6.3498,-6.3851,-6.4202,-6.4527,-6.4702,-6.5248,-6.5594,-6.5767,-6.594,-6.594,-4.5883,-4.5883,-4.5883,-4.5883,-4.5883,-4.5883,-4.6305,-4.6947,-4.7057,-4.7534,-4.8336,-4.9452,-4.9882,-5.0078,-5.0842,-5.1426,-5.1426,-5.1445,-5.1445,-5.1445,-5.1445,-5.1445,-5.1445,-5.1445,-5.1445,-5.1445,-5.1445,-5.1445,-5.1445,-5.1445,-5.1445,-5.1445,-5.1445,-5.1445,-5.1445,-5.1445,-5.1445,-5.1445,-5.1445,-5.1445,-5.1445,-5.1445,-5.1445,-5.1445,-5.1445,-5.1445,-5.1445,-5.1445,-5.1445,-5.1445,-5.1445,-5.1445,-5.1445,-5.1445,-5.1445,-5.1445,-5.1445,-5.1445,-5.1445,-5.1426,-5.162,-5.2374,-5.3849,-5.591,-5.796,-5.9818,-6.1648,-6.2704,-6.2552,-6.1831,-6.1181,-6.0556,-6.0243,-6.0171,-6.0171,-6.0171,-6.0171,-6.0171,-6.0171,-6.0171,-6.0171,-6.0171,-6.0171,-6.0171,-6.0171,-6.0171,-6.0171,-6.0171,-6.0171,-6.0171,-6.0171,-6.0171,-6.0171,-6.0171,-6.0171,-6.0243,-6.0412,-6.1157,-6.171,-6.2167,-6.2672,-6.3105,-6.3322,-6.3322,-6.3322,-6.3322,-6.3675,-6.3851,-6.4202,-6.4377,-6.5075,-6.5594,-6.5594,-6.5594,-6.594,-4.5883,-4.5883,-4.5883,-4.5883,-4.5883,-4.5902,-4.636,-4.7039,-4.7112,-4.7552,-4.83,-4.9095,-4.9489,-4.9686,-5.0646,-5.1037,-5.1426,-5.1445,-5.1445,-5.1445,-5.1445,-5.1445,-5.1445,-5.1445,-5.1445,-5.1445,-5.1445,-5.1445,-5.1445,-5.1445,-5.1445,-5.1445,-5.1445,-5.1445,-5.1445,-5.1445,-5.1445,-5.1445,-5.1445,-5.1445,-5.1445,-5.1445,-5.1445,-5.1445,-5.1445,-5.1445,-5.1445,-5.1445,-5.1445,-5.1445,-5.1445,-5.1445,-5.1445,-5.1445,-5.1445,-5.1445,-5.1445,-5.1445,-5.1445,-5.1445,-5.1426,-5.16,-5.3296,-5.5157,-5.7219,-5.9247,-6.1195,-6.2289,-6.2336,-6.1566,-6.1037,-6.0484,-6.0219,-6.0171,-6.0171,-6.0171,-6.0171,-6.0171,-6.0171,-6.0171,-6.0171,-6.0171,-6.0171,-6.0171,-6.0171,-6.0171,-6.0171,-6.0171,-6.0171,-6.0171,-6.0171,-6.0171,-6.0171,-6.0171,-6.0171,-6.0219,-6.0412,-6.1109,-6.1686,-6.2143,-6.2648,-6.3033,-6.3249,-6.3322,-6.3322,-6.3322,-6.3498,-6.3675,-6.3851,-6.4026,-6.4552,-6.5075,-6.5248,-6.5594,-6.5767,-4.5883,-4.5883,-4.5883,-4.5883,-4.5883,-4.5883,-4.636,-4.7002,-4.7112,-4.7552,-4.8212,-4.8898,-4.9095,-4.947,-5.0059,-5.0861,-5.1231,-5.1231,-5.1445,-5.1445,-5.1445,-5.1445,-5.1445,-5.1445,-5.1445,-5.1445,-5.1445,-5.1445,-5.1445,-5.1445,-5.1445,-5.1445,-5.1445,-5.1445,-5.1445,-5.1445,-5.1445,-5.1445,-5.1445,-5.1445,-5.1445,-5.1445,-5.1445,-5.1445,-5.1445,-5.1445,-5.1445,-5.1445,-5.1445,-5.1445,-5.1445,-5.1445,-5.1445,-5.1445,-5.1445,-5.1445,-5.1445,-5.1445,-5.1445,-5.1445,-5.1445,-5.1426,-5.3296,-5.5157,-5.7383,-5.9567,-6.1437,-6.2154,-6.2071,-6.147,-6.082,-6.0412,-6.0219,-6.0171,-6.0171,-6.0171,-6.0171,-6.0171,-6.0171,-6.0171,-6.0171,-6.0171,-6.0171,-6.0171,-6.0171,-6.0171,-6.0171,-6.0171,-6.0171,-6.0171,-6.0171,-6.0171,-6.0171,-6.0171,-6.0171,-6.0171,-6.046,-6.0965,-6.1398,-6.1782,-6.2336,-6.2889,-6.3057,-6.3249,-6.3322,-6.3322,-6.3498,-6.3498,-6.3675,-6.4026,-6.4202,-6.4702,-6.5075,-6.5421,-6.5594,-4.5883,-4.5883,-4.5883,-4.5883,-4.5883,-4.5883,-4.636,-4.7057,-4.7112,-4.7552,-4.8286,-4.8898,-4.9095,-4.9273,-5.0059,-5.0646,-5.0842,-5.1231,-5.1426,-5.1426,-5.1445,-5.1445,-5.1445,-5.1445,-5.1445,-5.1445,-5.1445,-5.1445,-5.1445,-5.1445,-5.1445,-5.1445,-5.1445,-5.1445,-5.1445,-5.1445,-5.1445,-5.1445,-5.1445,-5.1445,-5.1445,-5.1445,-5.1445,-5.1445,-5.1445,-5.1445,-5.1445,-5.1445,-5.1445,-5.1445,-5.1445,-5.1445,-5.1445,-5.1445,-5.1445,-5.1445,-5.1445,-5.1445,-5.1445,-5.1445,-5.162,-5.1988,-5.3296,-5.5346,-5.7753,-6.0632,-6.2337,-6.1802,-6.1782,-6.1326,-6.058,-6.0267,-6.0171,-6.0171,-6.0171,-6.0171,-6.0171,-6.0171,-6.0171,-6.0171,-6.0171,-6.0171,-6.0171,-6.0171,-6.0171,-6.0171,-6.0171,-6.0171,-6.0171,-6.0171,-6.0171,-6.0171,-6.0171,-6.0171,-6.0171,-6.0171,-6.0364,-6.082,-6.1133,-6.147,-6.2071,-6.2648,-6.2985,-6.3129,-6.3249,-6.3322,-6.3322,-6.3498,-6.3498,-6.3675,-6.4026,-6.4552,-6.5248,-6.5421,-6.5421,-4.5883,-4.5883,-4.5883,-4.5883,-4.5883,-4.5883,-4.6342,-4.6984,-4.7112,-4.7552,-4.8176,-4.8484,-4.8898,-4.9489,-4.9863,-5.0255,-5.0842,-5.1037,-5.1231,-5.1426,-5.1426,-5.1445,-5.1445,-5.1445,-5.1445,-5.1445,-5.1445,-5.1445,-5.1445,-5.1445,-5.1445,-5.1445,-5.1445,-5.1445,-5.1445,-5.1445,-5.1445,-5.1445,-5.1445,-5.1445,-5.1445,-5.1445,-5.1445,-5.1445,-5.1445,-5.1445,-5.1445,-5.1445,-5.1445,-5.1445,-5.1445,-5.1445,-5.1445,-5.1445,-5.1445,-5.1445,-5.1445,-5.1445,-5.1445,-5.1445,-5.1794,-5.2932,-5.404,-5.5723,-5.8653,-6.1211,-6.2672,-6.1903,-6.1494,-6.0965,-6.0388,-6.0195,-6.0171,-6.0171,-6.0171,-6.0171,-6.0171,-6.0171,-6.0171,-6.0171,-6.0171,-6.0171,-6.0171,-6.0171,-6.0171,-6.0171,-6.0171,-6.0171,-6.0171,-6.0171,-6.0171,-6.0171,-6.0171,-6.0171,-6.0171,-6.0171,-6.0171,-6.0532,-6.0869,-6.1277,-6.1879,-6.236,-6.2696,-6.3057,-6.3274,-6.3322,-6.3322,-6.3322,-6.3498,-6.3498,-6.3675,-6.4202,-6.4901,-6.5075,-6.5223,-4.5883,-4.5883,-4.5883,-4.5883,-4.5883,-4.5792,-4.6269,-4.7057,-4.6965,-4.7442,-4.8102,-4.8484,-4.8879,-4.947,-4.947,-5.0059,-5.0646,-5.0842,-5.1037,-5.1231,-5.1426,-5.1426,-5.1445,-5.1445,-5.1445,-5.1445,-5.1445,-5.1445,-5.1445,-5.1445,-5.1445,-5.1445,-5.1445,-5.1445,-5.1445,-5.1445,-5.1445,-5.1445,-5.1445,-5.1445,-5.1445,-5.1445,-5.1445,-5.1445,-5.1445,-5.1445,-5.1445,-5.1445,-5.1445,-5.1445,-5.1445,-5.1445,-5.1445,-5.1445,-5.1445,-5.1445,-5.1445,-5.1445,-5.1445,-5.1426,-5.2181,-5.3296,-5.5346,-5.7011,-6.0498,-6.2136,-6.236,-6.1855,-6.1326,-6.0796,-6.0315,-6.0171,-6.0171,-6.0171,-6.0171,-6.0171,-6.0171,-6.0171,-6.0171,-6.0171,-6.0171,-6.0171,-6.0171,-6.0171,-6.0171,-6.0171,-6.0171,-6.0171,-6.0171,-6.0171,-6.0171,-6.0171,-6.0171,-6.0171,-6.0171,-6.0171,-6.0171,-6.0243,-6.0604,-6.0965,-6.1518,-6.2023,-6.2456,-6.2817,-6.3201,-6.3322,-6.3322,-6.3322,-6.3322,-6.3322,-6.3498,-6.3851,-6.4353,-6.4702,-6.505,-4.5883,-4.5883,-4.5883,-4.5865,-4.5847,-4.548,-4.6012,-4.7002,-4.669,-4.7222,-4.8212,-4.8682,-4.8682,-4.8879,-4.9667,-4.9863,-4.947,-5.0646,-5.1037,-5.1037,-5.1231,-5.1445,-5.1445,-5.1445,-5.1445,-5.1445,-5.1445,-5.1445,-5.1445,-5.1445,-5.1445,-5.1445,-5.1445,-5.1445,-5.1445,-5.1445,-5.1445,-5.1445,-5.1445,-5.1445,-5.1445,-5.1445,-5.1445,-5.1445,-5.1445,-5.1445,-5.1445,-5.1445,-5.1445,-5.1445,-5.1445,-5.1445,-5.1445,-5.1445,-5.1445,-5.1445,-5.1445,-5.1445,-5.1445,-5.1814,-5.1814,-5.274,-5.5346,-5.9042,-6.2066,-6.2465,-6.2336,-6.1758,-6.1133,-6.07,-6.0339,-6.0171,-6.0171,-6.0171,-6.0171,-6.0171,-6.0171,-6.0171,-6.0171,-6.0171,-6.0171,-6.0171,-6.0171,-6.0171,-6.0171,-6.0171,-6.0171,-6.0171,-6.0171,-6.0171,-6.0171,-6.0171,-6.0171,-6.0171,-6.0171,-6.0171,-6.0171,-6.0171,-6.0364,-6.0676,-6.1037,-6.1566,-6.2215,-6.2672,-6.3057,-6.3201,-6.3322,-6.3322,-6.3322,-6.3322,-6.3498,-6.4026,-6.4552,-6.5075,-6.5421,-4.5883,-4.5865,-4.5627,-4.5535,-4.5517,-4.537,-4.5847,-4.6599,-4.6562,-4.7149,-4.8286,-4.8484,-4.8879,-4.9292,-4.9076,-4.9863,-5.0255,-5.0255,-5.0646,-5.1037,-5.1231,-5.1445,-5.1445,-5.1445,-5.1445,-5.1445,-5.1445,-5.1445,-5.1445,-5.1445,-5.1445,-5.1445,-5.1445,-5.1445,-5.1445,-5.1445,-5.1445,-5.1445,-5.1445,-5.1445,-5.1445,-5.1445,-5.1445,-5.1445,-5.1445,-5.1445,-5.1445,-5.1445,-5.1445,-5.1445,-5.1445,-5.1445,-5.1445,-5.1445,-5.1445,-5.1445,-5.1445,-5.1445,-5.1814,-5.2547,-5.423,-5.7197,-5.943,-6.1554,-6.2785,-6.2432,-6.1879,-6.1326,-6.082,-6.0412,-6.0267,-6.0171,-6.0171,-6.0171,-6.0171,-6.0171,-6.0171,-6.0171,-6.0171,-6.0171,-6.0171,-6.0171,-6.0171,-6.0171,-6.0171,-6.0171,-6.0171,-6.0171,-6.0171,-6.0171,-6.0171,-6.0171,-6.0171,-6.0171,-6.0171,-6.0171,-6.0171,-6.0171,-6.0171,-6.046,-6.0796,-6.1422,-6.2023,-6.2504,-6.2913,-6.3153,-6.3298,-6.3322,-6.3322,-6.3322,-6.3675,-6.4202,-6.4726,-6.5421,-6.5767,-4.5883,-4.5865,-4.559,-4.548,-4.5443,-4.5095,-4.5535,-4.636,-4.6342,-4.7057,-4.8267,-4.8484,-4.8879,-4.9076,-4.947,-4.9273,-5.0059,-5.0274,-5.047,-5.0861,-5.1037,-5.1231,-5.1426,-5.1445,-5.1445,-5.1445,-5.1445,-5.1445,-5.1445,-5.1445,-5.1445,-5.1445,-5.1445,-5.1445,-5.1445,-5.1445,-5.1445,-5.1445,-5.1445,-5.1445,-5.1445,-5.1445,-5.1445,-5.1445,-5.1445,-5.1445,-5.1445,-5.1445,-5.1445,-5.1445,-5.1445,-5.1445,-5.1445,-5.1445,-5.1445,-5.1445,-5.1445,-5.1445,-5.1988,-5.3487,-5.6098,-5.9087,-6.0748,-6.1972,-6.2425,-6.2095,-6.1638,-6.1061,-6.0532,-6.0171,-6.0171,-6.0171,-6.0171,-6.0171,-6.0171,-6.0171,-6.0171,-6.0171,-6.0171,-6.0171,-6.0171,-6.0171,-6.0171,-6.0171,-6.0171,-6.0171,-6.0171,-6.0171,-6.0171,-6.0171,-6.0171,-6.0171,-6.0171,-6.0171,-6.0171,-6.0171,-6.0171,-6.0171,-6.0195,-6.0291,-6.0676,-6.1277,-6.1758,-6.2143,-6.2576,-6.3057,-6.3249,-6.3322,-6.3322,-6.3322,-6.3675,-6.4202,-6.4726,-6.5248,-6.5594,-4.5883,-4.5883,-4.5847,-4.5847,-4.5718,-4.4618,-4.5077,-4.6379,-4.6305,-4.6947,-4.8212,-4.8682,-4.8682,-4.8879,-4.947,-4.9667,-4.9273,-5.0059,-5.047,-5.0274,-5.047,-5.0861,-5.1231,-5.1231,-5.1231,-5.1426,-5.1445,-5.1445,-5.1445,-5.1445,-5.1445,-5.1445,-5.1445,-5.1445,-5.1445,-5.1445,-5.1445,-5.1445,-5.1445,-5.1445,-5.1445,-5.1445,-5.1445,-5.1445,-5.1445,-5.1445,-5.1445,-5.1445,-5.1445,-5.1445,-5.1445,-5.1445,-5.1445,-5.1445,-5.1445,-5.1445,-5.1445,-5.1426,-5.1794,-5.3487,-5.6846,-6.0204,-6.1671,-6.177,-6.2226,-6.2071,-6.1494,-6.0869,-6.0436,-6.0219,-6.0171,-6.0171,-6.0171,-6.0171,-6.0171,-6.0171,-6.0171,-6.0171,-6.0171,-6.0171,-6.0171,-6.0171,-6.0171,-6.0171,-6.0171,-6.0171,-6.0171,-6.0171,-6.0171,-6.0171,-6.0171,-6.0171,-6.0171,-6.0171,-6.0171,-6.0171,-6.0171,-6.0171,-6.0195,-6.0267,-6.046,-6.0869,-6.1326,-6.1782,-6.2336,-6.2889,-6.3153,-6.3322,-6.3322,-6.3322,-6.3675,-6.4026,-6.4552,-6.5075,-6.5421,-4.5883,-4.5865,-4.5608,-4.5645,-4.581,-4.548,-4.5773,-4.6525,-4.7167,-4.7791,-4.8194,-4.8484,-4.8682,-4.8879,-4.8879,-4.9273,-4.9489,-4.9076,-4.9489,-4.9901,-5.0078,-5.047,-5.0842,-5.1037,-5.1037,-5.1231,-5.1445,-5.1445,-5.1445,-5.1445,-5.1445,-5.1445,-5.1445,-5.1445,-5.1445,-5.1445,-5.1445,-5.1445,-5.1445,-5.1445,-5.1445,-5.1445,-5.1445,-5.1445,-5.1445,-5.1445,-5.1445,-5.1445,-5.1445,-5.1445,-5.1445,-5.1445,-5.1445,-5.1445,-5.1426,-5.1426,-5.162,-5.2932,-5.4779,-5.7405,-5.943,-6.1312,-6.2161,-6.2007,-6.2191,-6.1951,-6.1326,-6.07,-6.0339,-6.0171,-6.0171,-6.0171,-6.0171,-6.0171,-6.0171,-6.0171,-6.0171,-6.0171,-6.0171,-6.0171,-6.0171,-6.0171,-6.0171,-6.0171,-6.0171,-6.0171,-6.0171,-6.0171,-6.0171,-6.0171,-6.0171,-6.0171,-6.0171,-6.0171,-6.0171,-6.0171,-6.0267,-6.0315,-6.0243,-6.0195,-6.0412,-6.07,-6.1157,-6.1734,-6.2263,-6.2744,-6.3081,-6.3322,-6.3322,-6.3322,-6.3498,-6.4026,-6.4527,-6.4876,-6.505,-4.5883,-4.5865,-4.5608,-4.5737,-4.6012,-4.581,-4.6048,-4.6764,-4.7662,-4.8157,-4.8249,-4.8286,-4.8484,-4.8682,-4.8682,-4.8682,-4.9292,-4.9292,-4.9095,-4.9686,-4.9686,-5.0078,-5.0451,-5.0646,-5.1037,-5.1231,-5.1426,-5.1445,-5.1445,-5.1445,-5.1445,-5.1445,-5.1445,-5.1445,-5.1445,-5.1445,-5.1445,-5.1445,-5.1445,-5.1445,-5.1445,-5.1445,-5.1445,-5.1445,-5.1445,-5.1445,-5.1445,-5.1445,-5.1445,-5.1445,-5.1445,-5.1445,-5.1445,-5.1426,-5.1814,-5.2181,-5.3487,-5.5157,-5.796,-5.9087,-6.0928,-6.279,-6.3201,-6.2672,-6.1927,-6.1614,-6.1037,-6.0508,-6.0219,-6.0171,-6.0171,-6.0171,-6.0171,-6.0171,-6.0171,-6.0171,-6.0171,-6.0171,-6.0171,-6.0171,-6.0171,-6.0171,-6.0171,-6.0171,-6.0171,-6.0171,-6.0171,-6.0171,-6.0171,-6.0171,-6.0171,-6.0171,-6.0171,-6.0171,-6.0171,-6.0171,-6.0291,-6.0436,-6.046,-6.046,-6.0532,-6.0845,-6.1277,-6.1638,-6.2047,-6.2504,-6.3057,-6.3322,-6.3322,-6.3322,-6.3322,-6.3851,-6.4353,-6.4527,-6.4702,-4.5883,-4.5883,-4.5902,-4.6122,-4.6324,-4.5828,-4.6177,-4.7167,-4.7571,-4.7956,-4.8286,-4.8286,-4.8286,-4.8484,-4.8879,-4.8682,-4.8484,-4.8879,-4.8898,-4.9095,-4.9076,-4.9667,-5.0255,-5.0451,-5.0646,-5.1037,-5.1231,-5.1231,-5.1445,-5.1445,-5.1445,-5.1445,-5.1445,-5.1445,-5.1445,-5.1445,-5.1445,-5.1445,-5.1445,-5.1445,-5.1445,-5.1445,-5.1445,-5.1445,-5.1445,-5.1445,-5.1445,-5.1445,-5.1445,-5.1445,-5.1445,-5.1445,-5.1445,-5.1445,-5.274,-5.423,-5.591,-5.8145,-5.9635,-6.0386,-6.1398,-6.2953,-6.2768,-6.2312,-6.1879,-6.1374,-6.082,-6.0436,-6.0171,-6.0171,-6.0171,-6.0171,-6.0171,-6.0171,-6.0171,-6.0171,-6.0171,-6.0171,-6.0171,-6.0171,-6.0171,-6.0171,-6.0171,-6.0171,-6.0171,-6.0171,-6.0171,-6.0171,-6.0171,-6.0171,-6.0171,-6.0171,-6.0171,-6.0171,-6.0195,-6.0267,-6.046,-6.0676,-6.0941,-6.0989,-6.1013,-6.0965,-6.1277,-6.1566,-6.1807,-6.2287,-6.3033,-6.3322,-6.3322,-6.3322,-6.3322,-6.3498,-6.4026,-6.4178,-6.4353,-4.5883,-4.592,-4.6195,-4.6379,-4.6525,-4.6855,-4.7387,-4.7937,-4.8084,-4.8194,-4.8286,-4.8286,-4.8286,-4.8286,-4.8484,-4.8484,-4.8484,-4.8484,-4.8484,-4.8484,-4.8682,-4.9076,-4.947,-4.9667,-5.0255,-5.0646,-5.1037,-5.1231,-5.1426,-5.1445,-5.1445,-5.1445,-5.1445,-5.1445,-5.1445,-5.1445,-5.1445,-5.1445,-5.1445,-5.1445,-5.1445,-5.1445,-5.1445,-5.1445,-5.1445,-5.1445,-5.1445,-5.1445,-5.1445,-5.1445,-5.1445,-5.1445,-5.1445,-5.1426,-5.2354,-5.442,-5.7219,-5.984,-6.0567,-6.1671,-6.2469,-6.2617,-6.2336,-6.2047,-6.1662,-6.1229,-6.07,-6.0364,-6.0171,-6.0171,-6.0171,-6.0171,-6.0171,-6.0171,-6.0171,-6.0171,-6.0171,-6.0171,-6.0171,-6.0171,-6.0171,-6.0171,-6.0171,-6.0171,-6.0171,-6.0171,-6.0171,-6.0171,-6.0171,-6.0171,-6.0171,-6.0171,-6.0195,-6.0195,-6.0388,-6.0484,-6.07,-6.0941,-6.1277,-6.1398,-6.1157,-6.1133,-6.1301,-6.1662,-6.2119,-6.2624,-6.3201,-6.3322,-6.3322,-6.3322,-6.3322,-6.3346,-6.3522,-6.3675,-6.3826,-4.5975,-4.614,-4.6379,-4.6654,-4.7039,-4.7644,-4.8084,-4.8267,-4.8286,-4.8286,-4.8286,-4.8286,-4.8286,-4.8286,-4.8286,-4.8286,-4.8286,-4.8286,-4.8286,-4.8286,-4.8286,-4.8682,-4.8898,-4.9292,-5.0078,-5.0451,-5.0842,-5.1231,-5.1426,-5.1445,-5.1445,-5.1445,-5.1445,-5.1445,-5.1445,-5.1445,-5.1445,-5.1445,-5.1445,-5.1445,-5.1445,-5.1445,-5.1445,-5.1445,-5.1445,-5.1445,-5.1445,-5.1445,-5.1445,-5.1445,-5.1445,-5.1445,-5.162,-5.2181,-5.3467,-5.5723,-5.8329,-6.0567,-6.1648,-6.235,-6.2713,-6.2504,-6.1927,-6.1542,-6.1277,-6.0893,-6.0532,-6.0243,-6.0195,-6.0171,-6.0171,-6.0171,-6.0171,-6.0171,-6.0171,-6.0171,-6.0171,-6.0171,-6.0171,-6.0171,-6.0171,-6.0171,-6.0171,-6.0171,-6.0171,-6.0171,-6.0171,-6.0171,-6.0171,-6.0171,-6.0171,-6.0171,-6.0219,-6.0243,-6.0484,-6.082,-6.1181,-6.1494,-6.1879,-6.1879,-6.1446,-6.135,-6.1542,-6.2023,-6.2624,-6.3009,-6.3322,-6.3322,-6.3322,-6.3322,-6.3322,-6.3346,-6.3346,-6.3522,-6.3675,-4.6158,-4.647,-4.6544,-4.7057,-4.7736,-4.8121,-4.8267,-4.8286,-4.8286,-4.8286,-4.8286,-4.8286,-4.8286,-4.8286,-4.8286,-4.8286,-4.8286,-4.8286,-4.8286,-4.8286,-4.8286,-4.8484,-4.8879,-4.9489,-4.9686,-5.0451,-5.0842,-5.1037,-5.1231,-5.1445,-5.1445,-5.1445,-5.1445,-5.1445,-5.1445,-5.1445,-5.1445,-5.1445,-5.1445,-5.1445,-5.1445,-5.1445,-5.1445,-5.1445,-5.1445,-5.1445,-5.1445,-5.1445,-5.1445,-5.1445,-5.1445,-5.1445,-5.1988,-5.3104,-5.4968,-5.7033,-5.9087,-6.1109,-6.2291,-6.2785,-6.2648,-6.2191,-6.159,-6.1133,-6.082,-6.0604,-6.0291,-6.0219,-6.0195,-6.0171,-6.0171,-6.0171,-6.0171,-6.0171,-6.0171,-6.0171,-6.0171,-6.0171,-6.0171,-6.0171,-6.0171,-6.0171,-6.0171,-6.0171,-6.0171,-6.0171,-6.0171,-6.0171,-6.0195,-6.0195,-6.0243,-6.0267,-6.0388,-6.0532,-6.0796,-6.1181,-6.1686,-6.2095,-6.2432,-6.2239,-6.171,-6.1662,-6.1782,-6.2191,-6.2624,-6.3057,-6.3322,-6.3322,-6.3322,-6.3322,-6.3322,-6.3322,-6.3322,-6.3346,-6.3322,-4.6397,-4.6544,-4.7149,-4.7699,-4.8121,-4.8231,-4.8286,-4.8286,-4.8286,-4.8286,-4.8286,-4.8286,-4.8286,-4.8286,-4.8286,-4.8286,-4.8286,-4.8286,-4.8286,-4.8286,-4.8286,-4.8286,-4.8484,-4.8879,-4.9095,-4.9489,-5.0078,-5.0861,-5.1231,-5.1445,-5.1445,-5.1445,-5.1445,-5.1445,-5.1445,-5.1445,-5.1445,-5.1445,-5.1445,-5.1445,-5.1445,-5.1445,-5.1445,-5.1445,-5.1445,-5.1445,-5.1445,-5.1445,-5.1445,-5.1445,-5.1445,-5.1445,-5.1426,-5.3296,-5.5346,-5.7219,-5.9087,-6.0905,-6.2197,-6.2593,-6.2384,-6.1903,-6.135,-6.0845,-6.0484,-6.0267,-6.0171,-6.0171,-6.0171,-6.0171,-6.0171,-6.0171,-6.0171,-6.0171,-6.0171,-6.0171,-6.0171,-6.0171,-6.0171,-6.0171,-6.0171,-6.0171,-6.0171,-6.0171,-6.0171,-6.0171,-6.0171,-6.0195,-6.0243,-6.0267,-6.0412,-6.0484,-6.07,-6.0869,-6.1181,-6.1542,-6.2047,-6.2432,-6.2768,-6.2432,-6.1951,-6.1855,-6.1831,-6.2143,-6.2504,-6.3009,-6.3322,-6.3322,-6.3322,-6.3322,-6.3322,-6.3322,-6.3322,-6.3322,-6.3322,-4.6599,-4.6855,-4.7607,-4.8084,-4.8267,-4.8286,-4.8286,-4.8286,-4.8286,-4.8286,-4.8286,-4.8286,-4.8286,-4.8286,-4.8286,-4.8286,-4.8286,-4.8286,-4.8286,-4.8286,-4.8286,-4.8286,-4.8286,-4.8484,-4.8879,-4.9292,-4.9882,-5.0666,-5.1251,-5.1445,-5.1445,-5.1445,-5.1445,-5.1445,-5.1445,-5.1445,-5.1445,-5.1445,-5.1445,-5.1445,-5.1445,-5.1445,-5.1445,-5.1445,-5.1445,-5.1445,-5.1445,-5.1445,-5.1445,-5.1445,-5.1445,-5.1445,-5.162,-5.2374,-5.404,-5.591,-5.7753,-5.9908,-6.1094,-6.1803,-6.1826,-6.1322,-6.0941,-6.0388,-6.0339,-6.0171,-6.0171,-6.0171,-6.0171,-6.0171,-6.0171,-6.0171,-6.0171,-6.0171,-6.0171,-6.0171,-6.0171,-6.0171,-6.0171,-6.0171,-6.0171,-6.0171,-6.0171,-6.0171,-6.0171,-6.0171,-6.0171,-6.0412,-6.0436,-6.058,-6.0652,-6.0796,-6.1085,-6.147,-6.1903,-6.2143,-6.2384,-6.2744,-6.3057,-6.2552,-6.2071,-6.1903,-6.1879,-6.2095,-6.248,-6.3105,-6.3322,-6.3322,-6.3322,-6.3322,-6.3322,-6.3322,-6.3322,-6.3322,-6.3322,-4.6837,-4.7332,-4.7992,-4.8286,-4.8286,-4.8286,-4.8286,-4.8286,-4.8286,-4.8286,-4.8286,-4.8286,-4.8286,-4.8286,-4.8286,-4.8286,-4.8286,-4.8286,-4.8286,-4.8286,-4.8286,-4.8286,-4.8484,-4.8682,-4.8879,-4.9292,-5.0078,-5.0666,-5.1251,-5.1251,-5.1445,-5.1445,-5.1445,-5.1445,-5.1445,-5.1445,-5.1445,-5.1445,-5.1445,-5.1445,-5.1445,-5.1445,-5.1445,-5.1445,-5.1445,-5.1445,-5.1445,-5.1445,-5.1445,-5.1445,-5.1445,-5.1445,-5.1445,-5.1814,-5.2932,-5.4589,-5.5927,-5.7607,-5.9112,-6.0405,-6.0458,-6.0477,-6.0291,-6.0195,-6.0195,-6.0171,-6.0171,-6.0171,-6.0171,-6.0171,-6.0171,-6.0171,-6.0171,-6.0171,-6.0171,-6.0171,-6.0171,-6.0171,-6.0171,-6.0171,-6.0171,-6.0171,-6.0171,-6.0171,-6.0195,-6.0195,-6.0364,-6.058,-6.082,-6.1061,-6.1253,-6.1398,-6.1638,-6.2071,-6.2456,-6.2672,-6.2793,-6.2913,-6.3081,-6.26,-6.2191,-6.1951,-6.1855,-6.1975,-6.2432,-6.3129,-6.3322,-6.3322,-6.3322,-6.3322,-6.3322,-6.3322,-6.3322,-6.3322,-6.3322,-4.7406,-4.8066,-4.8231,-4.8286,-4.8286,-4.8286,-4.8286,-4.8286,-4.8286,-4.8286,-4.8286,-4.8286,-4.8286,-4.8286,-4.8286,-4.8286,-4.8286,-4.8286,-4.8286,-4.8286,-4.8286,-4.8286,-4.8286,-4.8484,-4.8682,-4.9273,-4.9686,-5.0274,-5.0842,-5.1231,-5.1445,-5.1445,-5.1445,-5.1445,-5.1445,-5.1445,-5.1445,-5.1445,-5.1445,-5.1445,-5.1445,-5.1445,-5.1445,-5.1445,-5.1445,-5.1445,-5.1445,-5.1445,-5.1445,-5.1445,-5.1445,-5.1445,-5.1445,-5.1426,-5.2374,-5.3386,-5.4738,-5.5543,-5.7012,-5.8579,-5.8971,-5.9257,-5.9177,-6.0195,-6.0171,-6.0171,-6.0171,-6.0171,-6.0171,-6.0171,-6.0171,-6.0171,-6.0171,-6.0171,-6.0171,-6.0171,-6.0171,-6.0171,-6.0171,-6.0171,-6.0171,-6.0171,-6.0171,-6.0195,-6.0219,-6.0315,-6.0604,-6.0869,-6.1205,-6.1494,-6.1831,-6.2023,-6.2215,-6.2336,-6.2576,-6.2961,-6.3129,-6.3201,-6.2961,-6.2263,-6.1879,-6.1879,-6.1855,-6.1927,-6.2504,-6.3225,-6.3322,-6.3322,-6.3322,-6.3322,-6.3322,-6.3322,-6.3322,-6.3322,-6.3322]}]]